[[{"header":{"parameterUnit":"m.s-1","parameterCategory":1,"la1":30.6,"la2":28.766,"lo1":-90.7593,"lo2":-88.6598,"dy":0.0162,"dx":0.0183,"nx":116,"ny":114,"refTime":"2023-10-22T06:00:00:Z","depth":0,"parameterNumber":2,"parameterNumberName":"U-component_of_WINDS"},"data":[0.0,0.0,0.0,0.0,0.0,0.0,0.0,0.0,0.0,0.0,0.0,0.0,0.0,0.0,0.0,0.0,0.0,0.0,0.0,0.0,0.0,0.0,0.0,0.0,0.0,0.0,0.0,0.0,0.0,0.0,0.0,0.0,0.0,0.0,0.0,0.0,0.0,0.0,0.0,0.0,0.0,0.0,0.0,0.0,0.0,0.0,0.0,0.0,0.0,0.0,0.0,0.0,0.0,0.0,0.0,0.0,0.0,0.0,0.0,0.0,0.0,0.0,0.0,0.0,0.0,0.0,0.0,0.0,0.0,0.0,0.0,0.0,0.0,0.0,0.0,0.0,0.0,0.0,0.0,0.0,0.0,0.0,0.0,0.0,0.0,0.0,0.0,0.0,0.0,0.0,0.0,0.0,0.0,0.0,0.0,0.0,0.0,0.0,0.0,0.0,0.0,0.0,0.0,0.0,0.0,0.0,0.0,0.0,0.0,0.0,0.0,0.0,0.0,0.0,0.0,0.0,0.0,0.0,0.0,0.0,0.0,0.0,0.0,0.0,0.0,0.0,0.0,0.0,0.0,0.0,0.0,0.0,0.0,0.0,0.0,0.0,0.0,0.0,0.0,0.0,0.0,0.0,0.0,0.0,0.0,0.0,0.0,0.0,0.0,0.0,0.0,0.0,0.0,0.0,0.0,0.0,0.0,0.0,0.0,0.0,0.0,0.0,0.0,0.0,0.0,0.0,0.0,0.0,0.0,0.0,0.0,0.0,0.0,0.0,0.0,0.0,0.0,0.0,0.0,0.0,0.0,0.0,0.0,0.0,0.0,0.0,0.0,0.0,0.0,0.0,0.0,0.0,0.0,0.0,0.0,0.0,0.0,0.0,0.0,0.0,0.0,0.0,0.0,0.0,0.0,0.0,0.0,0.0,0.0,0.0,0.0,0.0,0.0,0.0,0.0,0.0,0.0,0.0,0.0,0.0,0.0,0.0,0.0,0.0,0.0,0.0,0.0,0.0,0.0,0.0,0.0,0.0,0.0,0.0,0.0,0.0,0.0,0.0,0.0,0.0,0.0,0.0,0.0,0.0,0.0,0.0,0.0,0.0,0.0,0.0,0.0,0.0,0.0,0.0,0.0,0.0,0.0,0.0,0.0,0.0,0.0,0.0,0.0,0.0,0.0,0.0,0.0,0.0,0.0,0.0,0.0,0.0,0.0,0.0,0.0,0.0,0.0,0.0,0.0,0.0,0.0,0.0,0.0,0.0,0.0,0.0,0.0,0.0,0.0,0.0,0.0,0.0,0.0,0.0,0.0,0.0,0.0,0.0,0.0,0.0,0.0,0.0,0.0,0.0,0.0,0.0,0.0,0.0,0.0,0.0,0.0,0.0,0.0,0.0,0.0,0.0,0.0,0.0,0.0,0.0,0.0,0.0,0.0,0.0,0.0,0.0,0.0,0.0,0.0,0.0,0.0,0.0,0.0,0.0,0.0,0.0,0.0,0.0,0.0,0.0,0.0,0.0,0.0,0.0,0.0,0.0,0.0,0.0,0.0,0.0,0.0,0.0,0.0,0.0,0.0,0.0,0.0,0.0,0.0,0.0,0.0,0.0,0.0,0.0,0.0,0.0,0.0,0.0,0.0,0.0,0.0,0.0,0.0,0.0,0.0,0.0,0.0,0.0,0.0,0.0,0.0,0.0,0.0,0.0,0.0,0.0,0.0,0.0,0.0,0.0,0.0,0.0,0.0,0.0,0.0,0.0,0.0,0.0,0.0,0.0,0.0,0.0,0.0,0.0,0.0,0.0,0.0,0.0,0.0,0.0,0.0,0.0,0.0,0.0,0.0,0.0,0.0,0.0,0.0,0.0,0.0,0.0,0.0,0.0,0.0,0.0,0.0,0.0,0.0,0.0,0.0,0.0,0.0,0.0,0.0,0.0,0.0,0.0,0.0,0.0,0.0,0.0,0.0,0.0,0.0,0.0,0.0,0.0,0.0,0.0,0.0,0.0,0.0,0.0,0.0,0.0,0.0,0.0,0.0,0.0,0.0,0.0,0.0,0.0,0.0,0.0,0.0,0.0,0.0,0.0,0.0,0.0,0.0,0.0,0.0,0.0,0.0,0.0,0.0,0.0,0.0,0.0,0.0,0.0,0.0,0.0,0.0,0.0,0.0,0.0,0.0,0.0,0.0,0.0,0.0,0.0,0.0,0.0,0.0,0.0,0.0,0.0,0.0,0.0,0.0,0.0,0.0,0.0,0.0,0.0,0.0,0.0,0.0,0.0,0.0,0.0,0.0,0.0,0.0,0.0,0.0,0.0,0.0,0.0,0.0,0.0,0.0,0.0,0.0,0.0,0.0,0.0,0.0,0.0,0.0,0.0,0.0,0.0,0.0,0.0,0.0,0.0,0.0,0.0,0.0,0.0,0.0,0.0,0.0,0.0,0.0,0.0,0.0,0.0,0.0,0.0,0.0,0.0,0.0,0.0,0.0,0.0,0.0,0.0,0.0,0.0,0.0,0.0,0.0,0.0,0.0,0.0,0.0,0.0,0.0,0.0,0.0,0.0,0.0,0.0,0.0,0.0,0.0,0.0,0.0,0.0,0.0,0.0,0.0,0.0,0.0,0.0,0.0,0.0,0.0,0.0,0.0,0.0,0.0,0.0,0.0,0.0,0.0,0.0,0.0,0.0,0.0,0.0,0.0,0.0,0.0,0.0,0.0,0.0,0.0,0.0,0.0,0.0,0.0,0.0,0.0,0.0,0.0,0.0,0.0,0.0,0.0,0.0,0.0,0.0,0.0,0.0,0.0,0.0,0.0,0.0,0.0,0.0,0.0,0.0,0.0,0.0,0.0,0.0,0.0,0.0,0.0,0.0,0.0,0.0,0.0,0.0,0.0,0.0,0.0,0.0,0.0,0.0,0.0,0.0,0.0,0.0,0.0,0.0,0.0,0.0,0.0,0.0,0.0,0.0,0.0,0.0,0.0,0.0,0.0,0.0,0.0,0.0,0.0,0.0,0.0,0.0,0.0,0.0,0.0,0.0,0.0,0.0,0.0,0.0,0.0,0.0,0.0,0.0,0.0,0.0,0.0,0.0,0.0,0.0,0.0,0.0,0.0,0.0,0.0,0.0,0.0,0.0,0.0,0.0,0.0,0.0,0.0,0.0,0.0,0.0,0.0,0.0,0.0,0.0,0.0,0.0,0.0,0.0,0.0,0.0,0.0,0.0,0.0,0.0,0.0,0.0,0.0,0.0,0.0,0.0,0.0,0.0,0.0,0.0,0.0,0.0,0.0,0.0,0.0,0.0,0.0,0.0,0.0,0.0,0.0,0.0,0.0,0.0,0.0,0.0,0.0,0.0,0.0,0.0,0.0,0.0,0.0,0.0,0.0,0.0,0.0,0.0,0.0,0.0,0.0,0.0,0.0,0.0,0.0,0.0,0.0,0.0,0.0,0.0,0.0,0.0,0.0,0.0,0.0,0.0,0.0,0.0,0.0,0.0,0.0,0.0,0.0,0.0,0.0,0.0,0.0,0.0,0.0,0.0,0.0,0.0,0.0,0.0,0.0,0.0,0.0,0.0,0.0,0.0,0.0,0.0,0.0,0.0,0.0,0.0,0.0,0.0,0.0,0.0,0.0,0.0,0.0,0.0,0.0,0.0,0.0,0.0,0.0,0.0,0.0,0.0,0.0,0.0,0.0,0.0,0.0,0.0,0.0,0.0,0.0,0.0,0.0,0.0,0.0,0.0,0.0,0.0,0.0,0.0,0.0,0.0,0.0,0.0,0.0,0.0,0.0,0.0,0.0,0.0,0.0,0.0,0.0,0.0,0.0,0.0,0.0,0.0,0.0,0.0,0.0,0.0,0.0,0.0,0.0,0.0,0.0,0.0,0.0,0.0,0.0,0.0,0.0,0.0,0.0,0.0,0.0,0.0,0.0,0.0,0.0,0.0,0.0,0.0,0.0,0.0,0.0,0.0,0.0,0.0,0.0,0.0,0.0,0.0,0.0,0.0,0.0,0.0,0.0,0.0,0.0,0.0,0.0,0.0,0.0,0.0,0.0,0.0,0.0,0.0,0.0,0.0,0.0,0.0,0.0,0.0,0.0,0.0,0.0,0.0,0.0,0.0,0.0,0.0,0.0,0.0,0.0,0.0,0.0,0.0,0.0,0.0,0.0,0.0,0.0,0.0,0.0,0.0,0.0,0.0,0.0,0.0,0.0,0.0,0.0,0.0,0.0,0.0,0.0,0.0,0.0,0.0,0.0,0.0,0.0,0.0,0.0,0.0,0.0,0.0,0.0,0.0,0.0,0.0,0.0,0.0,0.0,0.0,0.0,0.0,0.0,0.0,0.0,0.0,0.0,0.0,0.0,0.0,0.0,0.0,0.0,0.0,0.0,0.0,0.0,0.0,0.0,0.0,0.0,0.0,0.0,0.0,0.0,0.0,0.0,0.0,0.0,0.0,0.0,0.0,0.0,0.0,0.0,0.0,0.0,0.0,0.0,0.0,0.0,0.0,0.0,0.0,0.0,0.0,0.0,0.0,0.0,0.0,0.0,0.0,0.0,0.0,0.0,0.0,0.0,0.0,0.0,0.0,0.0,0.0,0.0,0.0,0.0,0.0,0.0,0.0,0.0,0.0,0.0,0.0,0.0,0.0,0.0,0.0,0.0,0.0,0.0,0.0,0.0,0.0,0.0,0.0,0.0,0.0,0.0,0.0,0.0,0.0,0.0,0.0,0.0,0.0,0.0,0.0,0.0,0.0,0.0,0.0,0.0,0.0,0.0,0.0,0.0,0.0,0.0,0.0,0.0,0.0,0.0,0.0,0.0,0.0,0.0,0.0,0.0,0.0,0.0,0.0,0.0,0.0,0.0,0.0,0.0,0.0,0.0,0.0,0.0,0.0,0.0,0.0,0.0,0.0,0.0,0.0,0.0,0.0,0.0,0.0,0.0,0.0,0.0,0.0,0.0,0.0,0.0,0.0,0.0,0.0,0.0,0.0,0.0,0.0,0.0,0.0,0.0,0.0,0.0,0.0,0.0,0.0,0.0,0.0,0.0,0.0,0.0,0.0,0.0,0.0,0.0,0.0,0.0,0.0,0.0,0.0,0.0,0.0,0.0,0.0,0.0,0.0,0.0,0.0,0.0,0.0,0.0,0.0,0.0,0.0,0.0,0.0,0.0,0.0,0.0,0.0,0.0,0.0,0.0,0.0,0.0,0.0,0.0,0.0,0.0,0.0,0.0,0.0,0.0,0.0,0.0,0.0,0.0,0.0,0.0,0.0,0.0,0.0,0.0,0.0,0.0,0.0,0.0,0.0,0.0,0.0,0.0,0.0,0.0,0.0,0.0,0.0,0.0,0.0,0.0,0.0,0.0,0.0,0.0,0.0,0.0,0.0,0.0,0.0,0.0,0.0,0.0,0.0,0.0,0.0,0.0,0.0,0.0,0.0,0.0,0.0,0.0,0.0,0.0,0.0,0.0,0.0,0.0,0.0,0.0,0.0,0.0,0.0,0.0,0.0,0.0,0.0,0.0,0.0,0.0,0.0,0.0,0.0,0.0,0.0,0.0,0.0,0.0,0.0,0.0,0.0,0.0,0.0,0.0,0.0,0.0,0.0,0.0,0.0,0.0,0.0,0.0,0.0,0.0,0.0,0.0,0.0,0.0,0.0,0.0,0.0,0.0,0.0,0.0,0.0,0.0,0.0,0.0,0.0,0.0,0.0,0.0,0.0,0.0,0.0,0.0,0.0,0.0,0.0,0.0,0.0,0.0,0.0,0.0,0.0,0.0,0.0,0.0,0.0,0.0,0.0,0.0,0.0,0.0,0.0,0.0,0.0,0.0,0.0,0.0,0.0,0.0,0.0,0.0,0.0,0.0,0.0,0.0,0.0,0.0,0.0,0.0,0.0,0.0,0.0,0.0,0.0,0.0,0.0,0.0,0.0,0.0,0.0,0.0,0.0,0.0,0.0,0.0,0.0,0.0,0.0,0.0,0.0,0.0,0.0,0.0,0.0,0.0,0.0,0.0,0.0,0.0,0.0,0.0,0.0,0.0,0.0,0.0,0.0,0.0,0.0,0.0,0.0,0.0,0.0,0.0,0.0,-2.1631,0.0,0.0,0.0,0.0,0.0,0.0,0.0,0.0,0.0,0.0,0.0,0.0,0.0,0.0,0.0,0.0,0.0,0.0,0.0,0.0,0.0,0.0,0.0,0.0,0.0,0.0,0.0,0.0,0.0,0.0,0.0,0.0,0.0,0.0,0.0,0.0,0.0,0.0,-2.5518,-2.5798,-2.6159,-2.6613,-2.6305,-2.5864,-2.5277,0.0,0.0,0.0,0.0,0.0,0.0,0.0,0.0,0.0,0.0,0.0,0.0,0.0,0.0,0.0,0.0,0.0,0.0,0.0,0.0,0.0,0.0,0.0,0.0,0.0,0.0,0.0,0.0,0.0,0.0,0.0,0.0,0.0,0.0,0.0,0.0,0.0,0.0,0.0,0.0,0.0,0.0,0.0,0.0,0.0,0.0,0.0,0.0,0.0,0.0,0.0,0.0,0.0,0.0,0.0,0.0,0.0,0.0,0.0,0.0,0.0,0.0,0.0,0.0,0.0,0.0,0.0,0.0,0.0,0.0,0.0,-2.1697,0.0,0.0,0.0,0.0,0.0,0.0,0.0,0.0,0.0,0.0,0.0,0.0,0.0,0.0,0.0,0.0,0.0,0.0,0.0,0.0,0.0,0.0,0.0,-2.3644,-2.3843,-2.395,-2.4636,-2.5104,0.0,0.0,0.0,0.0,0.0,0.0,-2.5678,-2.6038,-2.6078,-2.5745,-2.644,-2.7028,-2.7536,-2.7643,-2.7134,-2.6186,-2.5879,0.0,0.0,0.0,0.0,0.0,0.0,0.0,0.0,0.0,0.0,0.0,0.0,0.0,0.0,0.0,0.0,0.0,0.0,0.0,0.0,0.0,0.0,0.0,0.0,0.0,0.0,0.0,0.0,0.0,0.0,0.0,0.0,0.0,0.0,0.0,0.0,0.0,0.0,0.0,0.0,0.0,0.0,0.0,0.0,0.0,0.0,0.0,0.0,0.0,0.0,0.0,0.0,0.0,0.0,0.0,0.0,0.0,0.0,0.0,0.0,0.0,0.0,0.0,-2.4723,-2.4922,-2.5007,-2.5007,-2.487,-2.4578,-2.2943,-2.2461,-2.2732,-2.2141,0.0,0.0,0.0,0.0,0.0,0.0,0.0,0.0,0.0,0.0,0.0,0.0,0.0,0.0,0.0,0.0,0.0,0.0,0.0,0.0,0.0,-2.3603,-2.3968,-2.4439,-2.4863,-2.5184,-2.5438,0.0,0.0,0.0,0.0,0.0,-2.6279,-2.6854,-2.6947,-2.6614,-2.7762,-2.835,-2.8444,-2.8951,-2.9112,-2.8898,-2.7335,-2.6614,-2.6613,0.0,0.0,0.0,0.0,0.0,0.0,0.0,0.0,0.0,0.0,0.0,0.0,0.0,0.0,0.0,0.0,0.0,0.0,0.0,0.0,0.0,0.0,0.0,0.0,0.0,0.0,0.0,0.0,0.0,0.0,0.0,0.0,0.0,0.0,0.0,0.0,0.0,0.0,0.0,0.0,0.0,-2.3046,-2.3085,0.0,0.0,0.0,0.0,0.0,0.0,0.0,0.0,0.0,0.0,0.0,0.0,0.0,-2.4503,-2.5044,-2.5484,-2.5603,-2.5417,-2.5805,-2.5768,-2.5313,-2.5313,-2.5434,-2.5573,-2.4877,0.0,-2.3401,-2.2644,0.0,0.0,0.0,0.0,0.0,0.0,0.0,0.0,0.0,0.0,0.0,0.0,0.0,0.0,0.0,0.0,0.0,0.0,0.0,0.0,0.0,-2.4035,-2.4646,-2.4863,-2.6226,-2.676,-2.6052,-2.6787,0.0,0.0,0.0,-2.66,-2.6627,-2.6881,-2.7362,-2.8028,-2.8764,-2.9432,-3.0074,-3.0181,-3.0301,-3.0421,-2.9472,-2.8497,-2.7563,-2.676,0.0,0.0,0.0,0.0,0.0,0.0,0.0,0.0,0.0,0.0,0.0,0.0,0.0,0.0,0.0,0.0,0.0,0.0,0.0,0.0,0.0,0.0,0.0,0.0,0.0,0.0,0.0,0.0,0.0,0.0,0.0,0.0,0.0,0.0,0.0,0.0,0.0,0.0,0.0,-2.3268,-2.3513,-2.3236,-2.3398,-2.3287,0.0,0.0,0.0,0.0,0.0,0.0,0.0,0.0,0.0,-2.4899,-2.5453,-2.5952,-2.6493,-2.6978,-2.7241,-2.729,-2.7604,-2.7751,-2.7667,-2.7667,-2.7655,-2.7594,-2.7174,-2.6516,-2.5629,-2.3948,-2.2992,-2.2417,0.0,0.0,0.0,0.0,-2.1678,-2.183,0.0,0.0,0.0,0.0,0.0,0.0,0.0,0.0,0.0,0.0,0.0,0.0,-2.3772,-2.473,-2.5556,-2.6052,-2.7562,-2.8056,-2.7028,-2.7495,-2.7456,-2.6533,-2.6573,-2.668,-2.6814,-2.716,-2.8001,-2.9379,-2.99,-3.0635,-3.1557,-3.149,-3.1543,-3.1664,-3.1289,-3.0181,-2.858,-2.7655,-2.6894,-2.6265,0.0,0.0,0.0,0.0,0.0,0.0,0.0,0.0,0.0,0.0,0.0,0.0,0.0,0.0,0.0,0.0,0.0,0.0,0.0,0.0,0.0,0.0,0.0,0.0,0.0,0.0,0.0,0.0,0.0,0.0,0.0,0.0,0.0,0.0,0.0,0.0,0.0,-2.3775,-2.3829,-2.3261,-2.3755,-2.3694,0.0,0.0,0.0,0.0,0.0,0.0,-2.4499,-2.5104,-2.5732,-2.6303,-2.6918,-2.7522,-2.8125,-2.8656,-2.8982,-2.9127,-2.9332,-2.9453,-2.9501,-2.9501,-2.9369,-2.9103,-2.8837,-2.8343,-2.7534,-2.5366,-2.3982,-2.3198,-2.2644,-2.228,-2.209,-2.2291,-2.2503,-2.2667,0.0,0.0,0.0,0.0,0.0,0.0,0.0,0.0,0.0,0.0,0.0,-2.3549,-2.5224,-2.5743,-2.6707,-2.8628,-2.843,-2.8299,-2.8484,-2.7482,-2.6827,-2.676,-2.7068,-2.7094,-2.6827,-2.8161,-2.9379,-3.0346,-3.1423,-3.2144,-3.2541,-3.3026,-3.3133,-3.2866,-3.2291,-3.1209,-2.9766,-2.8885,-2.8003,-2.7162,-2.6292,0.0,0.0,0.0,0.0,0.0,0.0,0.0,0.0,0.0,0.0,0.0,0.0,0.0,0.0,0.0,0.0,0.0,0.0,0.0,0.0,0.0,0.0,0.0,0.0,0.0,0.0,0.0,0.0,0.0,0.0,0.0,0.0,0.0,0.0,0.0,0.0,0.0,0.0,-2.329,-2.4899,0.0,0.0,0.0,0.0,-2.4767,-2.4985,-2.5339,-2.5852,-2.6061,-2.6616,-2.7679,-2.8475,-2.9272,-3.0069,-3.06,-3.0745,-3.0503,-3.0515,-3.0262,-2.9779,-2.9779,-2.9634,-2.9369,-2.9103,-2.8825,-2.8367,-2.6496,-2.5228,-2.4432,-2.3647,-2.3203,-2.3038,-2.305,-2.3062,-2.3075,0.0,0.0,0.0,0.0,0.0,0.0,0.0,0.0,-2.185,-2.2098,-2.306,-2.4329,-2.5905,-2.7362,-2.8751,-3.006,-3.0707,-3.0748,-3.006,-2.9085,-2.8364,-2.7989,-2.7335,-2.7375,-2.8188,-2.9325,-3.0501,-3.1818,-3.2759,-3.3587,-3.4255,-3.4269,-3.4322,-3.4376,-3.3788,-3.2919,-3.1757,-2.974,-2.8419,-2.7609,-2.6826,-2.6002,0.0,0.0,0.0,0.0,0.0,0.0,0.0,0.0,0.0,0.0,0.0,0.0,0.0,0.0,0.0,0.0,0.0,0.0,0.0,0.0,0.0,0.0,0.0,0.0,0.0,0.0,0.0,0.0,0.0,0.0,0.0,0.0,0.0,0.0,0.0,0.0,0.0,-2.5289,-2.6271,0.0,-2.5257,-2.5256,-2.5536,-2.5977,-2.6701,-2.7427,-2.8144,-2.9031,-2.9876,-3.0612,-3.1083,-3.1529,-3.1988,-3.2012,-3.1891,-3.1626,-3.1626,-3.1445,-3.1095,-3.1095,-3.0853,-3.0419,-3.0153,-2.9791,-2.9296,-2.8294,-2.7162,-2.6029,-2.5065,-2.4728,-2.4794,-2.4456,-2.4552,-2.483,0.0,0.0,0.0,0.0,0.0,0.0,0.0,0.0,-2.1609,-2.2071,-2.3434,-2.5064,-2.6934,-2.8978,-3.0707,-3.1744,-3.2407,-3.2246,-3.1022,-2.9833,-2.8925,-2.8323,-2.7829,-2.8134,-2.9459,-3.0635,-3.1912,-3.3196,-3.4042,-3.4776,-3.5338,-3.5244,-3.5204,-3.5177,-3.479,-3.4126,-3.314,-3.0948,-2.9554,-2.8649,-2.7603,-2.678,-2.6092,0.0,0.0,0.0,0.0,0.0,0.0,0.0,0.0,0.0,0.0,0.0,0.0,0.0,0.0,0.0,0.0,0.0,0.0,0.0,0.0,0.0,0.0,0.0,0.0,0.0,0.0,0.0,0.0,0.0,0.0,0.0,0.0,0.0,0.0,-2.5801,-2.6619,-2.6704,-2.7842,-2.8246,-2.7256,-2.7329,-2.7618,-2.8053,-2.8922,-2.9695,-3.031,-3.1348,-3.2133,-3.2592,-3.2942,-3.3207,-3.3376,-3.3304,-3.3074,-3.2748,-3.2748,-3.2495,-3.2073,-3.1976,-3.1638,-3.1119,-3.0853,-3.0431,-2.9912,-2.9562,-2.885,-2.786,-2.674,-2.6319,-2.6283,-2.5933,-2.5969,-2.6174,0.0,0.0,0.0,0.0,0.0,0.0,0.0,-2.1109,-2.143,-2.2298,-2.3705,-2.5653,-2.835,-3.0488,-3.238,-3.3801,-3.336,-3.2505,-3.1343,-2.9593,-2.835,-2.7749,-2.8548,-2.9513,-3.0467,-3.2193,-3.348,-3.4389,-3.5205,-3.5685,-3.5631,-3.5965,-3.5792,-3.5231,-3.5231,-3.4742,-3.3863,-3.2678,-3.1509,-3.0322,-2.864,-2.7913,-2.7662,0.0,0.0,0.0,0.0,0.0,0.0,0.0,0.0,0.0,0.0,0.0,0.0,0.0,0.0,0.0,0.0,0.0,0.0,0.0,0.0,0.0,0.0,0.0,0.0,0.0,0.0,0.0,0.0,0.0,0.0,0.0,0.0,0.0,-2.4923,-2.6621,-2.7799,-2.7536,-2.9634,-3.0552,-2.926,-3.0069,-3.0793,-3.1046,-3.1578,-3.2,-3.2254,-3.2785,-3.3171,-3.3437,-3.3956,-3.4221,-3.4221,-3.4475,-3.4318,-3.3799,-3.3787,-3.3376,-3.2592,-3.2326,-3.1916,-3.1384,-3.1131,-3.0721,-3.0226,-3.0226,-3.0069,-2.9707,-2.8644,-2.7932,-2.7498,-2.7461,-2.728,-2.6969,0.0,0.0,0.0,0.0,0.0,0.0,-2.1109,-2.1109,-2.143,-2.2298,-2.4449,-2.676,-2.9005,-3.165,-3.3694,-3.475,-3.3908,-3.2986,-3.2286,-2.994,-2.8537,-2.8364,-2.9406,-3.0702,-3.2273,-3.3624,-3.4803,-3.5899,-3.658,-3.6901,-3.6901,-3.6754,-3.65,-3.6139,-3.5925,-3.5498,-3.4794,-3.4046,-3.3171,-3.2084,-2.9986,-2.8559,-2.7687,0.0,0.0,0.0,0.0,0.0,0.0,0.0,0.0,0.0,0.0,0.0,0.0,0.0,0.0,0.0,0.0,0.0,0.0,0.0,0.0,0.0,0.0,0.0,0.0,0.0,0.0,0.0,0.0,0.0,0.0,0.0,-2.6456,-2.7326,-2.7272,-2.8572,-2.9815,-3.0515,-3.1686,-3.229,-3.1928,-3.2157,-3.2435,-3.2743,-3.3263,-3.363,-3.3919,-3.4438,-3.4764,-3.4837,-3.497,-3.5054,-3.5054,-3.4933,-3.4607,-3.4088,-3.3883,-3.3473,-3.2912,-3.2592,-3.2193,-3.1686,-3.1614,-3.1167,-3.0503,-3.0503,-3.0346,-3.0008,-2.9139,-2.8934,-2.9043,-2.827,-2.7824,-2.7558,0.0,0.0,0.0,0.0,0.0,0.0,-2.1109,-2.1109,-2.147,-2.2472,-2.5024,-2.7455,-2.9285,-3.2225,-3.4229,-3.4616,-3.3788,-3.2732,-3.1577,-2.9659,-2.8764,-2.9138,-3.0635,-3.2171,-3.3694,-3.4883,-3.5952,-3.6874,-3.7342,-3.7569,-3.7555,-3.7382,-3.7179,-3.6992,-3.6491,-3.6092,-3.5653,-3.454,-3.3876,-3.3393,-3.1478,-2.9991,-2.8825,-2.8156,-2.7429,-2.672,-2.6255,-2.5774,-2.5306,-2.4698,0.0,0.0,0.0,0.0,0.0,0.0,0.0,0.0,0.0,0.0,0.0,0.0,0.0,0.0,0.0,0.0,0.0,0.0,0.0,0.0,0.0,0.0,0.0,0.0,-2.8137,-2.9477,-3.0262,-3.0853,-3.1529,-3.2362,-3.3268,-3.3823,-3.3823,-3.4016,-3.4221,-3.4378,-3.4668,-3.4933,-3.5066,-3.5489,-3.5706,-3.5706,-3.5875,-3.5875,-3.5706,-3.5609,-3.5163,-3.4511,-3.4399,-3.3956,-3.3304,-3.305,-3.2688,-3.229,-3.2073,-3.1638,-3.1095,-3.0986,-3.0708,0.0,0.0,0.0,0.0,0.0,-2.8536,-2.827,0.0,0.0,0.0,0.0,0.0,0.0,-2.1109,-2.1109,-2.1537,-2.2746,-2.5382,-2.7724,-2.9165,-3.2144,-3.3961,-3.3801,-3.3133,-3.1917,-2.9993,-2.9138,-2.9152,-3.0167,-3.2118,-3.3734,-3.4871,-3.6099,-3.6981,-3.7595,-3.7849,-3.7899,-3.7829,-3.7859,-3.7819,-3.7683,-3.6866,-3.651,-3.6376,-3.4648,-3.4008,-3.4132,-3.2809,-3.1627,-3.0478,-2.9218,-2.859,-2.8294,-2.7332,-2.6685,-2.6093,-2.5361,0.0,0.0,0.0,0.0,0.0,0.0,0.0,0.0,0.0,0.0,0.0,0.0,0.0,0.0,0.0,0.0,0.0,0.0,0.0,0.0,0.0,0.0,0.0,0.0,-3.0008,-3.1541,-3.3396,-3.3263,-3.3111,-3.3589,-3.4475,-3.5066,-3.5066,-3.5572,-3.5875,-3.5875,-3.5839,-3.5875,-3.5875,0.0,0.0,0.0,0.0,-3.6515,-3.6262,-3.6225,-3.5838,-3.5066,-3.5028,-3.4547,-3.3823,-3.3565,-3.3263,-3.2917,-3.2447,-3.206,-3.1747,-3.1493,-3.1083,-3.0576,-3.0322,-3.0045,-2.9767,-2.9538,-2.9284,-2.9019,0.0,0.0,0.0,0.0,0.0,0.0,-2.1109,-2.1109,-2.1537,-2.2746,-2.486,-2.6814,-2.8286,-3.0707,-3.2487,-3.3093,-3.1971,-3.0742,-2.9633,-2.9406,-3.0127,-3.2005,-3.3611,-3.4963,-3.6139,-3.7315,-3.8223,-3.8766,-3.8806,-3.8613,-3.812,-3.8419,-3.8003,-3.7085,-3.6919,-3.6719,-3.6415,-3.5088,-3.429,-3.3818,-3.3121,-3.2066,-3.0862,-3.0152,-2.9092,-2.7927,-2.7721,-2.7263,-2.6742,-2.6158,-2.5909,-2.5796,-2.5126,-2.4921,0.0,0.0,0.0,0.0,0.0,0.0,0.0,0.0,0.0,0.0,0.0,0.0,0.0,0.0,0.0,0.0,0.0,0.0,0.0,-2.9948,-3.1698,-3.334,-3.4801,-3.509,-3.5126,-3.5052,-3.5415,-3.5669,-3.5669,-3.5911,-3.6104,-3.6104,-3.6297,-3.6455,-3.6455,-3.6515,-3.649,-3.649,-3.6588,-3.6588,-3.649,-3.6322,-3.6032,-3.5609,0.0,0.0,-3.4088,-3.3593,-3.3111,-3.2652,-3.2555,-3.2121,-3.1469,-3.1409,-3.1083,-3.0576,-3.0322,-3.0045,-2.9791,-2.9743,-2.955,-2.9296,0.0,0.0,0.0,0.0,0.0,0.0,0.0,-2.1109,-2.143,-2.2345,-2.4102,-2.5692,-2.676,-2.8714,-3.0065,-3.0314,-2.9392,-2.8804,-2.8861,-2.9691,-3.1129,-3.3334,-3.4843,-3.6179,-3.7398,-3.7969,-3.8544,-3.91,-3.8806,-3.8578,-3.8414,-3.8211,-3.7801,-3.7225,-3.6793,-3.6666,-3.6743,-3.5271,-3.4582,-3.4401,-3.3649,-3.2841,-3.1936,-3.1417,-3.0371,-2.9188,-2.9067,-2.8415,-2.7558,-2.7148,-2.693,-2.6725,-2.6162,-2.5909,-2.5716,0.0,0.0,0.0,0.0,0.0,0.0,0.0,0.0,0.0,0.0,0.0,0.0,0.0,0.0,-2.6991,-2.7522,0.0,-3.0527,-3.2133,-3.3497,-3.4799,-3.5875,-3.6129,-3.6032,-3.5669,-3.5875,-3.5971,-3.5971,-3.6262,-3.6419,-3.6419,-3.649,-3.6624,-3.6624,-3.6624,-3.6624,-3.6624,-3.6624,-3.6624,-3.6624,-3.6491,-3.6104,-3.5585,-3.5222,-3.4644,-3.3992,-3.388,-3.34,-3.2785,-3.2785,-3.241,-3.1759,-3.136,-3.1034,-3.0769,-3.0371,-3.0129,-3.0008,-3.0008,-2.9924,-2.9755,0.0,0.0,0.0,0.0,0.0,0.0,0.0,-2.1109,-2.1323,-2.1911,-2.3327,-2.4506,-2.5184,-2.6667,-2.751,-2.7295,-2.7094,-2.7415,-2.846,-3.01,-3.2131,-3.4549,-3.6006,-3.7275,-3.833,-3.8477,-3.8798,-3.9273,-3.8788,-3.8624,-3.8701,-3.8236,-3.7899,-3.7597,-3.6831,-3.6696,-3.6992,-3.5353,-3.4825,-3.5008,-3.4269,-3.363,-3.3074,-3.2616,-3.1735,-3.0721,-3.0467,-2.9429,-2.8174,-2.7956,-2.7679,-2.7343,-2.7126,-2.6957,-2.6704,-2.6114,-2.5608,0.0,0.0,0.0,0.0,0.0,0.0,0.0,0.0,-2.6331,-2.6632,-2.7174,-2.8125,-2.9103,-3.002,-3.1324,-3.2724,-3.4113,-3.5054,-3.5839,-3.6528,-3.6624,-3.6455,-3.6032,-3.6165,-3.6298,-3.6298,-3.6491,-3.6624,-3.6624,-3.6624,-3.6624,-3.6624,-3.6624,-3.6624,-3.6624,-3.6624,-3.6588,-3.649,-3.649,-3.6165,-3.538,-3.532,-3.4837,-3.3956,-3.4052,-3.369,-3.2978,-3.2821,-3.2519,-3.206,-3.1312,-3.0998,-3.095,-3.0419,-3.0214,-3.0214,-3.0214,-3.0214,-3.0141,0.0,0.0,0.0,0.0,0.0,0.0,0.0,0.0,-2.1323,-2.1911,-2.2653,-2.3429,-2.4249,-2.4997,-2.5518,-2.5745,-2.6881,-2.8203,-2.9633,-3.1129,-3.3133,-3.5765,-3.7021,-3.7996,-3.8651,-3.9199,-3.9599,-3.992,-3.9827,-3.9527,-3.9027,-3.9494,-3.899,-3.7669,-3.733,-3.7,-3.6698,-3.5458,-3.4968,-3.4966,-3.4641,-3.4185,-3.3666,-3.3376,-3.2435,-3.1264,-3.101,-2.9743,-2.8198,-2.8174,-2.7836,-2.7367,-2.7343,-2.751,-2.7534,-2.6728,-2.6283,-2.5945,-2.5475,-2.5355,-2.5584,-2.656,-2.6656,-2.6921,0.0,-2.8982,-2.9163,-2.9707,-3.0467,-3.1143,-3.1517,-3.2857,-3.4182,-3.4823,-3.5802,-3.6515,-3.6624,-3.6624,-3.6588,-3.649,-3.6552,-3.6588,-3.6588,-3.6588,-3.6624,-3.6624,-3.6624,-3.6624,-3.6624,-3.6624,-3.6624,-3.6624,-3.6624,-3.6515,-3.6262,-3.6262,-3.5935,-3.538,-3.5185,-3.4837,-3.4475,-3.4016,-3.3533,-3.2954,-3.2242,-3.1904,-3.1807,-3.124,-3.0998,-3.095,-3.0419,-3.0214,-3.0214,-3.0214,-3.0214,-3.0165,0.0,0.0,0.0,0.0,0.0,0.0,0.0,0.0,0.0,-2.1443,-2.1877,-2.2278,-2.2653,-2.3067,-2.3394,-2.3688,-2.5224,-2.6947,-2.8807,-3.1109,-3.3517,-3.5965,-3.7195,-3.8183,-3.8913,-3.9167,-3.9559,-3.9967,-3.9422,-3.9228,-3.9313,-3.8854,-3.8339,-3.7945,-3.7466,-3.6958,-3.6406,-3.5774,-3.5224,-3.4762,-3.4508,-3.4125,-3.3726,-3.3147,-3.2085,-3.0877,-3.0455,-2.9393,0.0,-2.7498,-2.7449,-2.7594,-2.7292,-2.7377,-2.7461,-2.6777,-2.6174,-2.568,-2.5451,-2.5849,-2.6463,-2.7066,-2.7751,-2.8536,-2.9634,-3.0226,-3.0757,-3.1457,-3.235,-3.3147,-3.3569,-3.4704,-3.5742,-3.6129,-3.6647,-3.7144,-3.7301,-3.7047,-3.6685,-3.6165,-3.6298,-3.6455,-3.6551,-3.6624,-3.6624,-3.6624,-3.6624,-3.6624,-3.6624,-3.6624,-3.6624,-3.6624,-3.6455,-3.6358,-3.6455,-3.6298,-3.6032,-3.5609,-3.5548,-3.5185,-3.4571,-3.4342,-3.3787,-3.2954,-3.2145,-3.1807,-3.1771,-3.1215,-3.0998,-3.095,-3.0419,-3.0214,-3.0214,-3.0214,-3.0214,-3.0177,0.0,0.0,0.0,0.0,0.0,0.0,0.0,0.0,0.0,0.0,-2.1296,-2.1489,-2.1582,-2.177,-2.201,-2.2271,-2.3714,-2.5504,-2.7684,-3.044,-3.3116,-3.5591,-3.6981,-3.8103,-3.8953,-3.9207,-3.9559,-3.986,-3.9249,-3.9149,-3.9537,-3.8579,-3.8202,-3.8177,-3.7525,-3.6933,-3.6403,-3.5867,-3.5316,-3.4668,-3.4414,-3.4049,-3.3473,-3.2592,-3.1384,-3.0117,-2.9719,-2.8705,-2.7437,-2.6632,-2.6753,-2.722,-2.6945,-2.7102,-2.7271,-2.6753,-2.6029,-2.5439,-2.5668,-2.6391,-2.7247,-2.792,-2.9019,-3.0153,-3.0914,-3.1698,-3.2471,-3.3207,-3.4016,-3.4764,-3.5223,-3.6032,-3.6721,-3.6949,-3.7203,-3.7471,-3.7529,-3.7144,-3.6454,-3.5646,-3.5645,-3.5778,-3.6032,-3.6322,-3.649,-3.6624,-3.6624,-3.6624,-3.6624,-3.6624,-3.6624,-3.6624,-3.6419,-3.6395,-3.6515,-3.6395,-3.6129,-3.5682,-3.5742,-3.5451,-3.4668,-3.4508,-3.3823,-3.2845,-3.2193,-3.1879,-3.1771,-3.1215,-3.0998,-3.095,-3.0419,-3.0214,-3.0214,-3.0214,-3.0214,-3.0189,0.0,0.0,0.0,0.0,0.0,0.0,0.0,0.0,0.0,0.0,0.0,0.0,0.0,-2.1628,-2.1716,-2.1977,-2.2846,-2.4332,-2.6707,-2.9098,-3.173,-3.4618,-3.6473,-3.7823,-3.866,-3.9559,-3.982,-3.9599,-3.982,-3.982,-3.9567,-3.954,-3.923,-3.8563,-3.7685,-3.7072,-3.6641,-3.5482,-3.5028,-3.4933,-3.4668,-3.3976,-3.2881,-3.1831,-3.0443,-2.9055,-2.9043,-2.7691,-2.5849,-2.5825,-2.5825,-2.5933,-2.6451,-2.6957,-2.7271,-2.6753,-2.6029,-2.556,-2.6343,-2.6957,-2.7787,-2.9332,-3.0527,-3.1674,-3.2978,-3.3952,-3.4644,-3.5187,-3.5572,-3.5875,-3.6129,-3.6419,-3.6721,-3.6949,-3.7203,-3.7338,-3.7046,-3.6588,-3.5911,-3.509,-3.4547,-3.4342,0.0,-3.5585,-3.6297,-3.6588,-3.6624,-3.6624,-3.6624,-3.6624,-3.6624,-3.6624,-3.6624,-3.6491,-3.6225,-3.6491,-3.6165,-3.5451,-3.5705,-3.5489,-3.4933,-3.4149,-3.3376,-3.2592,-3.2302,-3.2048,-3.1771,-3.1215,-3.0998,-3.095,-3.0419,-3.0214,-3.0214,-3.0214,-3.0214,-3.0214,0.0,0.0,0.0,0.0,0.0,0.0,0.0,0.0,0.0,0.0,0.0,0.0,0.0,0.0,0.0,0.0,-2.2699,-2.3995,-2.5558,-2.8243,-3.0568,-3.2283,-3.4482,-3.6059,-3.6941,-3.7823,-3.833,-3.8397,-3.8504,-3.8611,-3.8691,-3.8103,-3.78,-3.7788,-3.7094,-3.6455,-3.5895,-3.5279,-3.4757,-3.4182,-3.3497,-3.2845,-3.2048,-3.0612,-2.9188,-2.7836,0.0,-2.5909,-2.4909,-2.4391,-2.4559,-2.5017,-2.521,-2.5632,-2.5993,-2.5644,-2.5849,-2.6367,-2.7162,-2.8331,-2.9658,-3.1252,-3.2181,-3.3106,-3.4414,-3.4933,-3.5223,-3.5585,-3.5283,-3.5052,-3.509,-3.5379,-3.5645,-3.5875,-3.6744,-3.7398,-3.7301,-3.7144,-3.6395,-3.4702,-3.4607,0.0,0.0,0.0,0.0,-3.6237,-3.6201,-3.6201,-3.6588,-3.6624,-3.6624,-3.6624,-3.6455,-3.6395,-3.6491,-3.6225,-3.5911,-3.5646,-3.5187,-3.4801,-3.4472,-3.3799,-3.3171,-3.2592,-3.2314,-3.2048,-3.1771,-3.1215,-3.0998,-3.095,-3.0419,-3.0214,-3.0214,-3.0214,-3.0214,-3.0214,0.0,0.0,0.0,0.0,0.0,0.0,0.0,0.0,0.0,0.0,0.0,0.0,0.0,0.0,0.0,0.0,0.0,-2.3247,-2.4566,-2.668,-2.8524,-2.99,-3.1931,-3.3387,-3.4175,-3.5044,-3.5591,-3.5778,-3.5979,-3.6233,-3.6568,-3.6059,-3.6055,-3.6452,-3.5796,-3.5318,-3.4875,-3.4389,-3.3727,-3.2845,-3.1952,-3.1155,-3.0346,-2.8741,-2.7365,0.0,-2.4987,-2.4238,-2.3744,-2.3487,-2.3812,-2.4318,-2.4415,-2.4752,-2.515,-2.5355,-2.6114,-2.7126,-2.8355,-2.9839,-3.1409,-3.2821,-3.3702,-3.4532,-3.5452,-3.5682,-3.5646,-3.5513,-3.4823,-3.4125,-3.4016,-3.3762,-3.3823,-3.4668,-3.5452,-3.6201,-3.6781,-3.6685,-3.5971,-3.4511,-3.4508,-3.4149,0.0,0.0,0.0,-3.5705,-3.5778,-3.5971,-3.6455,-3.6552,-3.6624,-3.6624,-3.6455,-3.6455,-3.6624,-3.6237,-3.5971,-3.5778,-3.4861,-3.4339,-3.4016,-3.3529,-3.2954,-3.2447,-3.2266,-3.2,-3.1626,-3.1179,-3.0938,-3.0817,-3.0383,-3.0214,-3.0214,-3.0214,-3.0214,-3.0214,0.0,0.0,0.0,0.0,0.0,0.0,0.0,0.0,0.0,0.0,0.0,0.0,0.0,0.0,0.0,0.0,0.0,0.0,-2.3629,-2.4579,-2.5798,-2.7468,-2.8978,-3.0047,-3.0621,-3.149,-3.1944,-3.1944,-3.2519,-3.2946,-3.3213,-3.3507,-3.3948,-3.4458,-3.3823,-3.3574,-3.3556,-3.2761,-3.1907,-3.1095,-3.0057,-2.9006,-2.7908,-2.6363,-2.5077,-2.4077,-2.336,-2.2744,-2.2417,-2.3113,-2.3571,-2.3872,-2.415,-2.4427,-2.4861,-2.5977,-2.6894,-2.7956,-2.9827,-3.1493,-3.2954,-3.4016,-3.5054,-3.5839,-3.6128,-3.6201,-3.5899,-3.5089,-3.4049,-3.3147,-3.2876,-3.1795,-3.1578,-3.3437,-3.3593,-3.4052,-3.5646,-3.5476,-3.5028,-3.4702,-3.4242,-3.3916,-3.3799,0.0,-3.3916,-3.4897,-3.5452,-3.5875,-3.6225,-3.6491,-3.6624,-3.6624,-3.6624,-3.6624,-3.6624,-3.6588,-3.6261,-3.5778,-3.4668,-3.4016,-3.3762,-3.3207,-3.2688,-3.2205,-3.2205,-3.1891,-3.1372,-3.1107,-3.0841,-3.0576,-3.0322,-3.0214,-3.0214,-3.0214,-3.0214,-3.0214,0.0,0.0,0.0,0.0,0.0,0.0,0.0,0.0,0.0,0.0,0.0,0.0,0.0,0.0,0.0,0.0,0.0,0.0,-2.2465,-2.3888,-2.4919,-2.536,-2.7041,-2.811,-2.8484,-2.9322,-2.9775,-2.9775,-3.0194,-3.0408,-3.0488,-3.0341,-3.0306,-3.0488,-3.0301,-3.0045,-2.9794,-2.9587,-2.9053,-2.8379,-2.7715,-2.6994,-2.6283,-2.527,-2.4475,-2.3824,-2.33,-2.2744,-2.2357,-2.2756,-2.343,-2.4174,-2.4644,-2.5114,-2.5728,-2.7039,-2.8258,-2.9598,-3.1481,-3.3014,-3.4378,-3.5646,-3.5875,-3.5911,-3.6358,-3.5742,-3.4704,-3.3702,-3.2326,-3.1046,-3.0189,-3.0395,-3.1191,-3.2652,-3.4185,-3.5585,-3.6842,-3.7261,-3.6907,-3.5355,-3.5453,-3.5179,-3.3916,-3.4088,-3.4475,-3.4933,-3.5149,-3.5609,-3.643,-3.6588,-3.6624,-3.6624,-3.6624,-3.6624,-3.6624,-3.6225,-3.5706,-3.5222,-3.4318,-3.3762,-3.3473,-3.2973,-3.2519,-3.2205,-3.2205,-3.1891,-3.1372,-3.1107,-3.0841,-3.0576,-3.0322,-3.0214,-3.0214,-3.0214,-3.0214,-3.0214,0.0,0.0,0.0,0.0,0.0,0.0,0.0,0.0,0.0,0.0,0.0,0.0,0.0,0.0,0.0,0.0,0.0,0.0,0.0,-2.318,-2.3679,-2.3848,-2.493,-2.5611,-2.5772,-2.64,-2.6921,-2.7308,-2.7335,-2.7615,-2.8123,-2.7829,-2.7835,-2.8037,-2.8037,-2.793,-2.7738,-2.7624,-2.7196,0.0,0.0,-2.5185,-2.4656,-2.3888,-2.3406,-2.3116,-2.284,-2.2695,-2.2731,-2.3309,-2.4154,-2.5029,-2.5801,-2.6403,-2.716,-2.8608,-2.99,-3.1228,-3.2978,-3.4438,-3.5705,-3.6588,-3.6491,-3.6068,-3.5609,-3.4668,-3.334,-3.1457,-3.0081,-2.8971,-2.8203,-2.8571,-2.9636,-3.1526,-3.3536,-3.5378,-3.6931,-3.7803,-3.7814,-3.6674,-3.6842,-3.6606,-3.5549,-3.5352,-3.5546,-3.6076,-3.5678,-3.5646,-3.6358,-3.6552,-3.6624,-3.6624,-3.6624,-3.6624,-3.6624,-3.5935,-3.5452,-3.5185,-3.3992,-3.3396,-3.3171,-3.2531,-3.2169,-3.2024,0.0,-3.1722,-3.1215,-3.1179,-3.0877,-3.0431,-3.0407,-3.0322,-3.0214,-3.0214,-3.0214,-3.0214,0.0,0.0,0.0,0.0,0.0,0.0,0.0,0.0,0.0,0.0,0.0,0.0,0.0,0.0,0.0,0.0,0.0,0.0,0.0,0.0,-2.2592,-2.288,-2.3113,-2.326,-2.326,-2.3514,-2.4058,-2.482,-2.4529,-2.4917,-2.5919,-2.5703,-2.585,-2.6293,-2.6333,-2.632,-2.6334,-2.6127,-2.5758,-2.5157,-2.4165,-2.3612,-2.3263,0.0,-2.2296,-2.2296,-2.2296,-2.2611,-2.3215,-2.4383,-2.5306,-2.623,-2.7341,-2.8113,-2.8934,-3.0515,-3.1662,-3.2748,-3.4399,-3.5705,-3.6685,-3.7011,-3.672,-3.6068,-3.4475,-3.3304,-3.1836,-2.9079,-2.7856,-2.7156,-2.6865,-2.7038,-2.803,-3.0537,-3.2577,-3.4551,-3.6771,-3.7812,-3.8323,-3.825,-3.8213,-3.8088,-3.7852,-3.7102,-3.6931,-3.7716,-3.6771,-3.6177,-3.6262,-3.6491,-3.6624,-3.6624,-3.6588,-3.6552,-3.6552,-3.5778,-3.5283,-3.5223,-3.3702,-3.2954,-3.2857,-3.2133,-3.1807,-3.1807,-3.1807,-3.1517,-3.1071,-3.1288,-3.095,-3.0286,-3.0515,-3.0443,-3.0214,-3.0214,-3.0214,-3.0214,0.0,0.0,0.0,0.0,0.0,0.0,0.0,0.0,0.0,0.0,-2.1296,0.0,0.0,0.0,0.0,0.0,0.0,0.0,0.0,0.0,0.0,-2.2893,-2.2947,-2.2974,-2.2974,-2.3027,-2.3134,-2.3281,-2.3228,-2.3308,-2.3509,-2.3455,-2.3482,-2.3589,-2.3821,-2.373,-2.3437,-2.3669,-2.3658,-2.3404,-2.2881,-2.2794,-2.2941,-2.2469,0.0,0.0,-2.2296,-2.2502,-2.3058,-2.4963,-2.6258,-2.7365,-2.8656,-2.9876,-3.1107,-3.2483,-3.3171,-3.3859,-3.5512,-3.6225,-3.6745,-3.7241,-3.6491,-3.5283,-3.4125,-3.2036,-2.9927,-2.8474,-2.7189,-2.6363,-2.6457,-2.7403,-2.8962,-3.1454,-3.3542,-3.5699,-3.8114,-3.8798,-3.9184,-3.9451,-3.9287,-3.9147,-3.9084,-3.8768,-3.8568,-3.8741,-3.8328,-3.7615,-3.6564,-3.6588,-3.6624,-3.6624,-3.6358,-3.6298,-3.6298,-3.5452,-3.4837,-3.4378,-3.3437,-3.2748,-3.2326,-3.1964,-3.1807,-3.1807,-3.1807,0.0,-3.1324,-3.1372,-3.1059,-3.0539,-3.0588,-3.0443,-3.0214,-3.0214,-3.0214,-3.0214,0.0,0.0,0.0,0.0,0.0,0.0,0.0,0.0,0.0,0.0,-2.1977,-2.1777,0.0,0.0,0.0,0.0,0.0,0.0,0.0,0.0,0.0,-2.2893,-2.2893,-2.2893,-2.2893,-2.2893,-2.3054,-2.3375,0.0,-2.3054,-2.3362,-2.3041,-2.2893,-2.2907,-2.302,-2.2982,-2.2809,-2.2989,-2.3059,-2.3068,-2.2887,-2.296,-2.3116,0.0,0.0,0.0,-2.2296,-2.255,-2.3118,-2.4516,-2.6126,-2.7956,-2.9839,-3.1252,-3.2447,-3.3686,-3.4281,-3.4897,-3.6237,-3.6877,-3.7301,-3.7567,-3.6358,-3.4668,-3.2785,-3.0793,-2.8758,-2.6648,-2.5969,-2.5814,-2.5871,-2.714,-2.8744,-3.0606,-3.252,-3.4776,-3.7606,-3.8451,-3.9205,-4.0398,-4.0437,-4.0374,-4.0516,-3.9738,-3.9356,-3.9702,-3.9149,-3.8429,-3.7617,-3.7605,-3.7605,-3.7605,-3.7344,-3.7207,-3.7207,-3.5932,-3.5142,-3.4885,-3.3459,-3.2652,-3.2386,-3.1988,-3.1807,-3.1807,-3.1807,-3.165,-3.1449,-3.1859,-3.155,-3.0857,-3.1115,-3.0905,-3.0407,-3.0262,-3.0214,-3.0214,0.0,0.0,0.0,0.0,0.0,0.0,0.0,-2.193,-2.2144,-2.2893,-2.2819,-2.2458,-2.1836,-2.1716,0.0,0.0,0.0,0.0,0.0,0.0,0.0,0.0,0.0,0.0,-2.2893,0.0,0.0,-2.3616,-2.3134,0.0,0.0,0.0,0.0,0.0,-2.2893,-2.2893,-2.2893,-2.2974,-2.3134,0.0,0.0,-2.337,0.0,0.0,0.0,0.0,0.0,-2.2562,-2.3058,-2.3925,-2.5523,-2.7606,-2.9839,-3.1662,-3.3147,-3.3992,-3.4837,-3.5742,-3.672,-3.7372,-3.7758,-3.7761,-3.6201,-3.4013,-3.1587,-2.9591,-2.764,-2.5345,-2.5175,-2.5497,-2.5649,-2.6874,-2.8264,-2.9584,-3.1285,-3.3536,-3.6662,-3.7773,-3.9018,-4.1077,-4.1255,-4.1398,-4.1788,-4.0652,-4.0123,-4.0684,-3.9975,-3.9224,-3.8636,-3.8636,-3.8559,-3.8432,-3.8152,-3.7974,-3.7876,-3.6225,-3.5374,-3.53,-3.3522,-3.2652,-3.261,-3.2216,-3.2052,-3.2052,-3.2152,-3.2046,-3.1916,-3.2508,-3.2257,-3.15,-3.1904,-3.1602,-3.0935,-3.0574,-3.0414,-3.0366,0.0,0.0,0.0,0.0,0.0,0.0,0.0,-2.2452,-2.2907,-2.3233,-2.35,-2.3313,-2.2432,-2.2111,0.0,0.0,0.0,0.0,0.0,0.0,0.0,0.0,0.0,0.0,0.0,0.0,0.0,-2.2974,-2.292,0.0,0.0,0.0,0.0,0.0,0.0,-2.2893,-2.292,-2.3166,0.0,0.0,0.0,0.0,0.0,0.0,0.0,0.0,0.0,-2.2332,-2.2562,-2.3804,-2.4668,-2.5547,-2.7256,-3.0177,-3.3014,-3.3111,-3.4378,-3.5971,-3.6756,-3.7372,-3.7761,-3.7531,-3.5452,-3.3137,-3.1552,-2.8642,-2.6218,-2.6053,-2.5726,-2.5662,-2.6534,-2.7239,-2.8198,-2.9592,-3.111,-3.3153,-3.608,-3.7404,-3.9044,-4.143,-4.1427,-4.1576,-4.2518,-4.1972,-4.1599,-4.1675,-4.1283,-4.0435,-3.9039,-3.8977,-3.8674,-3.8152,-3.7907,-3.7606,-3.7267,-3.5863,-3.5003,-3.473,-3.3522,-3.2821,-3.2592,-3.2777,-3.2912,-3.2899,-3.3186,-3.3326,0.0,-3.3379,-3.3202,-3.2923,-3.2962,-3.2645,-3.2086,-3.1549,-3.1184,-3.086,0.0,0.0,0.0,0.0,0.0,0.0,0.0,-2.2211,-2.2579,-2.3212,-2.3581,-2.3567,-2.2985,-2.2699,-2.2138,0.0,0.0,0.0,0.0,0.0,0.0,0.0,0.0,0.0,0.0,0.0,-2.2893,-2.2893,-2.2893,0.0,0.0,0.0,0.0,0.0,0.0,-2.2893,-2.292,-2.3193,0.0,0.0,0.0,0.0,0.0,0.0,0.0,0.0,0.0,0.0,-2.2381,-2.2913,-2.3769,-2.4657,-2.4768,-2.7267,-3.0428,-3.187,-3.3243,-3.4726,-3.6297,-3.7239,-3.7725,-3.7239,-3.5253,-3.2912,-3.1103,-2.8528,-2.6425,-2.6024,-2.5846,-2.5923,-2.644,-2.6894,-2.7466,-2.838,-2.8897,-3.021,-3.3142,-3.3937,-3.5695,-3.9714,-4.0238,-4.0934,-4.2766,-4.2552,-4.2295,-4.2071,-4.1777,-4.1248,-4.0435,-4.0251,-3.994,-3.9582,-3.911,-3.8696,-3.8369,-3.6942,-3.611,-3.6026,-3.4686,-3.4033,-3.3908,-3.3864,-3.3746,-3.3529,-3.3696,-3.3663,0.0,-3.3869,-3.3752,-3.3307,-3.3181,-3.2769,-3.2139,-3.1472,-3.113,-3.0969,0.0,0.0,0.0,0.0,0.0,0.0,-2.1897,-2.2171,-2.2512,-2.3198,-2.3581,-2.3723,-2.3487,-2.2953,-2.2331,-2.1563,0.0,0.0,0.0,0.0,0.0,0.0,0.0,0.0,0.0,0.0,-2.2813,-2.2893,-2.2893,-2.2893,0.0,0.0,-2.2893,-2.2893,0.0,0.0,0.0,0.0,0.0,0.0,0.0,0.0,0.0,0.0,0.0,0.0,0.0,0.0,0.0,0.0,0.0,-2.3829,-2.3174,-2.4885,-2.7511,-2.9749,-3.1744,-3.3612,-3.5445,-3.6626,-3.7279,-3.7127,-3.4975,-3.2516,-3.0977,-2.8647,-2.665,-2.6069,-2.6069,-2.6185,-2.636,-2.6627,-2.6987,-2.7495,-2.759,-2.854,-3.1323,-3.1938,-3.3561,-3.7579,-3.8357,-3.9493,-4.1817,-4.2445,-4.2592,-4.2365,-4.2004,-4.171,-4.1483,-4.1122,-4.0695,-4.0227,-3.9813,-3.9372,-3.8846,-3.754,-3.6862,-3.6758,-3.5524,-3.4939,-3.4914,-3.4708,-3.4494,-3.4301,-3.4295,-3.4168,0.0,-3.4398,-3.4346,-3.3962,-3.3585,-3.3142,-3.2569,-3.1702,-3.1319,-3.1182,0.0,0.0,0.0,0.0,0.0,0.0,0.0,-2.2519,-2.3,-2.3252,-2.3581,-2.3803,-2.3803,-2.2746,-2.2111,-2.2345,0.0,0.0,0.0,0.0,0.0,0.0,0.0,0.0,0.0,0.0,-2.2565,-2.2893,-2.2893,-2.2893,-2.2893,-2.2893,-2.2893,-2.2893,0.0,0.0,0.0,0.0,0.0,0.0,0.0,0.0,0.0,0.0,0.0,0.0,0.0,0.0,0.0,0.0,0.0,0.0,0.0,-2.3425,-2.4626,-2.6511,-2.9761,-3.3038,-3.403,-3.5277,-3.6371,-3.7,-3.4606,-3.1921,-3.1261,-2.8775,-2.6551,-2.644,-2.6386,-2.6386,-2.6386,-2.6627,-2.6921,-2.7269,-2.7791,-2.9008,-3.1376,-3.2412,-3.3641,-3.5458,-3.5925,-3.7048,-3.9412,-4.1456,-4.2723,-4.2723,-4.2111,0.0,-4.179,-4.1243,-4.0508,-3.964,-3.9599,-3.9159,-3.829,-3.7387,-3.6758,-3.6471,-3.5626,-3.522,-3.5181,-3.5181,-3.5193,-3.5167,-3.5192,-3.5191,0.0,-3.5191,-3.5191,-3.5138,-3.4504,-3.411,-3.3758,-3.2594,-3.2,-3.1713,0.0,0.0,0.0,0.0,0.0,0.0,0.0,-2.1756,-2.2104,-2.2365,-2.2659,-2.2926,-2.3161,-2.2492,-2.2017,-2.2111,0.0,0.0,0.0,0.0,0.0,0.0,0.0,0.0,0.0,0.0,-2.28,-2.2893,-2.2893,-2.2893,-2.2893,-2.2893,-2.2893,-2.2893,-2.2893,-2.2893,0.0,0.0,0.0,0.0,0.0,0.0,-2.2227,0.0,0.0,0.0,0.0,0.0,0.0,0.0,0.0,0.0,0.0,0.0,0.0,-2.5662,-2.774,-3.0313,-3.1754,-3.2835,-3.3537,-3.3582,-3.2187,-3.0593,-2.9855,-2.8164,-2.6653,-2.6466,-2.6265,-2.6198,-2.636,-2.6466,-2.6814,-2.7764,-2.8058,-2.866,-3.0025,-3.145,-3.3334,-3.5925,-3.9159,-4.1376,-4.1924,-4.2405,-4.2723,-4.2723,-4.2111,-4.171,-4.1483,-4.1122,-4.0588,-3.992,-3.9706,-3.9159,-3.8321,-3.7985,-3.7636,-3.7101,-3.6616,-3.6281,-3.6071,-3.592,-3.5683,-3.5484,-3.5471,-3.5378,-3.5191,-3.5191,-3.5191,-3.5138,-3.4557,-3.4241,-3.4057,-3.2882,-3.2409,-3.2257,0.0,0.0,0.0,0.0,0.0,0.0,0.0,-2.1395,-2.1649,-2.1836,-2.1977,-2.2285,-2.284,-2.2171,-2.179,-2.2124,0.0,0.0,0.0,0.0,0.0,0.0,0.0,0.0,-2.2579,-2.2659,-2.2786,-2.2893,-2.3121,-2.3121,-2.2893,-2.3134,-2.3121,-2.2893,-2.2893,-2.2893,0.0,0.0,0.0,0.0,0.0,0.0,-2.2062,0.0,0.0,0.0,0.0,0.0,0.0,0.0,0.0,0.0,0.0,0.0,0.0,0.0,-2.645,-2.8198,-2.9913,-3.097,-3.1605,-3.1763,-3.0776,-2.9585,-2.8997,-2.7775,-2.6734,-2.6453,-2.6279,-2.6212,-2.636,-2.6346,-2.6573,-2.7536,-2.7684,-2.8112,-2.9312,-3.0902,-3.2986,-3.5832,-3.95,-4.1795,-4.1777,-4.2218,-4.2485,-4.2485,-4.1857,-4.1376,-4.1141,-4.0909,-4.0468,-3.9893,-3.9706,-3.9159,-3.8321,-3.8143,-3.7782,-3.7195,-3.6901,-3.662,-3.6326,-3.6032,-3.5805,-3.5565,-3.5511,-3.5364,0.0,-3.5191,-3.5191,-3.5138,-3.4557,-3.4293,-3.4187,-3.3286,-3.2914,-3.2835,0.0,0.0,0.0,0.0,0.0,0.0,0.0,0.0,0.0,0.0,-2.1555,-2.1863,-2.2679,-2.1764,-2.1443,0.0,0.0,0.0,0.0,0.0,0.0,0.0,0.0,0.0,-2.2813,-2.2565,-2.2579,-2.2893,-2.3482,-2.3482,-2.2947,-2.3536,-2.3496,-2.2934,-2.2934,-2.292,-2.292,0.0,0.0,0.0,-2.3265,-2.271,0.0,0.0,0.0,0.0,0.0,0.0,0.0,0.0,0.0,0.0,0.0,0.0,0.0,0.0,0.0,0.0,0.0,-2.9536,-3.0249,-3.1114,-3.0089,-2.8778,-2.8569,-2.7655,0.0,-2.6507,-2.644,-2.6426,-2.6453,-2.6238,-2.6225,-2.6814,-2.6921,-2.7509,-2.9219,-3.0935,-3.2919,-3.5485,-3.7859,-3.9393,-3.9599,-4.1163,-4.2178,-4.2151,-4.1376,-4.0909,-4.0909,-4.0628,-4.0214,-3.964,-3.9599,-3.9159,-3.8281,-3.7969,-3.7529,-3.6845,-3.6592,-3.634,-3.6032,-3.5738,-3.5591,0.0,-3.5311,-3.5191,-3.5191,-3.5191,-3.5191,-3.5111,-3.4597,-3.4332,-3.4267,-3.3763,-3.3551,-3.3445,0.0,0.0,0.0,0.0,0.0,0.0,0.0,0.0,0.0,0.0,0.0,-2.1296,-2.1496,-2.1269,0.0,0.0,0.0,0.0,0.0,0.0,0.0,0.0,0.0,0.0,-2.2224,-2.2599,-2.2827,-2.2893,-2.3247,-2.3354,-2.322,-2.3594,-2.3567,-2.322,-2.322,-2.3086,-2.2893,-2.2974,0.0,0.0,-2.3,-2.2685,0.0,0.0,0.0,0.0,-2.295,-2.3127,0.0,0.0,0.0,0.0,0.0,0.0,0.0,0.0,-2.6293,-2.656,-2.7171,0.0,-2.7678,-2.7892,-2.7624,-2.7383,0.0,-2.7403,-2.7134,-2.7108,-2.6881,-2.6787,-2.7055,-2.668,-2.6667,-2.771,-2.7871,-2.8179,-2.9018,-3.2345,-3.5511,-3.7686,-4.0067,-4.1082,-4.0027,-4.1122,-4.179,-4.1501,-4.1101,-4.0909,-4.0909,-4.0628,-4.0214,-3.964,-3.9599,-3.9052,-3.7929,-3.8076,-3.7635,-3.6607,-3.654,-3.6233,-3.5725,-3.5431,-3.5297,-3.5297,-3.5231,-3.5191,-3.5191,-3.5191,-3.507,-3.4883,-3.4953,-3.4847,-3.4622,-3.4267,-3.4134,-3.4028,0.0,0.0,0.0,0.0,0.0,0.0,0.0,0.0,0.0,0.0,0.0,0.0,0.0,0.0,0.0,0.0,0.0,0.0,0.0,0.0,0.0,0.0,0.0,-2.1877,-2.201,-2.2432,-2.2659,-2.2659,-2.3247,-2.346,-2.3305,-2.3634,-2.3607,-2.3278,-2.318,-2.3054,-2.2893,-2.2893,-2.2893,-2.2893,-2.2893,0.0,0.0,0.0,0.0,0.0,-2.3182,-2.3432,0.0,-2.4834,-2.5232,-2.5278,0.0,0.0,0.0,0.0,-2.6386,-2.6453,-2.6747,-2.672,-2.6653,-2.6787,-2.6787,-2.6867,-2.7028,-2.7202,-2.7269,-2.7094,-2.6934,-2.6827,-2.6854,-2.6533,-2.6519,-2.7388,-2.7697,-2.8513,-3.0555,-3.3374,-3.6153,-3.8611,-4.0114,-4.0909,-4.0594,-4.1096,-4.131,-4.1101,-4.0869,-4.0695,-4.0695,-4.0441,-4.0067,-3.9599,-3.9346,-3.8838,-3.8036,-3.7929,-3.7422,-3.65,-3.6233,-3.5872,-3.5418,-3.5271,-3.5191,-3.5191,-3.5191,-3.5191,-3.5191,-3.5057,-3.491,-3.4829,-3.4937,-3.4949,-3.4803,-3.4715,-3.4716,-3.461,0.0,0.0,0.0,0.0,0.0,0.0,0.0,0.0,0.0,0.0,0.0,0.0,0.0,0.0,0.0,0.0,0.0,0.0,0.0,0.0,0.0,0.0,-2.1555,-2.1729,-2.1977,-2.2271,-2.2445,-2.2485,-2.3434,-2.3781,-2.3505,-2.3928,-2.3875,-2.3412,-2.3174,-2.2987,-2.2893,-2.2893,-2.2893,-2.2893,-2.2893,0.0,0.0,0.0,0.0,0.0,0.0,0.0,0.0,-2.5064,-2.5451,-2.5545,-2.6079,0.0,0.0,0.0,0.0,0.0,-2.68,-2.668,-2.652,-2.672,-2.6787,-2.6787,-2.6787,-2.7081,-2.7282,-2.6947,-2.6894,-2.6814,-2.6573,-2.6359,-2.6386,-2.6934,-2.7468,-2.9155,-3.2853,-3.4387,-3.6032,-3.87,-3.9433,-4.0067,-4.0874,-4.0909,-4.0842,-4.0842,-4.0615,-4.0502,-4.0401,-4.0174,-3.9853,-3.9493,-3.8985,-3.8504,-3.8076,-3.7569,-3.7021,-3.6433,-3.5885,-3.5471,-3.5191,-3.5191,-3.5191,-3.5191,0.0,0.0,-3.511,-3.487,-3.4762,-3.4695,-3.4775,-3.4788,-3.4736,-3.507,-3.5191,-3.5085,0.0,0.0,0.0,0.0,0.0,0.0,0.0,0.0,0.0,0.0,0.0,0.0,0.0,0.0,0.0,0.0,0.0,0.0,0.0,0.0,0.0,-2.1176,-2.1448,-2.1729,-2.1977,-2.2271,-2.2539,-2.2827,-2.3941,-2.4439,-2.4412,-2.5288,-2.5101,-2.4062,-2.3768,-2.3375,-2.2893,-2.2893,-2.2893,-2.2893,-2.2893,0.0,0.0,0.0,0.0,0.0,0.0,0.0,0.0,-2.4836,-2.5144,-2.5211,-2.5545,0.0,0.0,0.0,0.0,0.0,-2.7095,-2.6987,-2.6774,-2.6774,-2.6787,-2.6787,-2.6787,-2.7241,-2.7549,-2.7296,-2.7242,-2.7229,-2.7175,-2.7135,-2.7296,-2.7884,-2.9289,-3.141,-3.475,-3.5805,-3.6874,-3.8584,-3.9706,-4.0107,-3.95,-4.0147,-4.0548,-4.0548,-4.0508,-4.0361,-4.0107,-4.0007,-3.9666,-3.8865,-3.8758,-3.821,-3.7155,-3.6992,-3.6727,-3.6139,-3.5792,-3.5471,-3.5191,-3.5191,-3.5191,-3.5191,0.0,-3.5057,-3.4882,-3.4829,-3.4521,-3.4068,-3.4628,-3.4603,-3.4456,-3.499,-3.5191,-3.5085,0.0,0.0,0.0,0.0,0.0,0.0,0.0,0.0,0.0,0.0,0.0,0.0,0.0,0.0,0.0,0.0,0.0,0.0,0.0,0.0,-2.1176,-2.1368,-2.1515,-2.1649,-2.1783,-2.2512,-2.306,-2.3388,-2.4382,-2.5037,-2.5344,-2.5277,-2.4783,-2.3955,-2.3522,-2.3161,-2.2893,-2.2893,-2.2893,-2.2893,0.0,0.0,0.0,0.0,0.0,0.0,0.0,0.0,0.0,0.0,-2.4943,-2.5168,-2.5424,0.0,0.0,0.0,0.0,0.0,-2.6907,-2.6814,-2.6667,-2.6987,-2.7068,-2.7014,-2.6854,-2.7161,-2.7469,-2.7336,-2.7309,-2.7309,-2.7309,-2.7669,-2.8497,-3.0079,-3.1517,-3.32,-3.5338,-3.6006,-3.6874,-3.8486,-3.9199,-3.964,-3.9853,-4.0227,-4.0481,-4.0481,-4.0481,-4.0334,-4.004,-3.9893,-3.9386,-3.8504,-3.8183,-3.7595,-3.6672,-3.6338,-3.6099,-3.5832,-3.5538,-3.5324,-3.5191,-3.5191,-3.511,-3.4963,0.0,-3.4803,-3.4523,-3.4523,-3.4362,-3.4162,-3.4589,-3.4735,-3.4616,-3.5044,-3.5191,-3.5085,0.0,0.0,0.0,0.0,0.0,0.0,0.0,0.0,0.0,0.0,0.0,0.0,0.0,0.0,0.0,0.0,0.0,0.0,0.0,-2.1176,-2.1309,-2.1569,-2.1716,-2.1823,-2.189,-2.2819,-2.3541,-2.3968,-2.4917,-2.5757,-2.6386,-2.5464,-2.4703,-2.4084,-2.3415,-2.3027,-2.2893,-2.2893,-2.2893,-2.2893,0.0,0.0,0.0,0.0,0.0,0.0,0.0,0.0,0.0,0.0,0.0,0.0,0.0,0.0,0.0,-2.5971,-2.6158,-2.6346,-2.664,-2.656,-2.652,-2.7028,-2.7255,-2.7309,-2.7241,-2.7522,-2.7844,-2.7911,-2.7924,-2.7871,-2.7657,-2.8417,-2.9847,-3.2051,-3.3587,-3.4937,-3.6125,-3.666,-3.7448,-3.8945,-3.9132,-3.9493,-4.0401,-4.0401,-4.0361,-4.0361,-4.0254,-4.004,-3.9687,-3.9452,-3.8878,-3.8026,-3.7529,-3.6981,-3.6313,-3.5792,-3.5565,-3.5631,-3.5338,-3.5191,-3.5191,-3.5124,-3.4977,-3.4815,-3.4748,-3.4496,-3.4229,-3.4295,-3.4282,-3.4255,-3.4616,-3.4855,-3.4949,-3.511,-3.5191,-3.5138,0.0,0.0,0.0,0.0,0.0,0.0,0.0,0.0,0.0,0.0,0.0,0.0,0.0,0.0,0.0,0.0,0.0,0.0,0.0,-2.1395,-2.1569,-2.1582,-2.2071,-2.2485,-2.28,-2.314,-2.3705,-2.4532,-2.5732,-2.6734,-2.7549,-2.6667,-2.5812,-2.4981,-2.4124,-2.3429,-2.2893,-2.2893,-2.2893,-2.2893,-2.2893,0.0,0.0,0.0,0.0,0.0,0.0,0.0,0.0,0.0,0.0,0.0,0.0,0.0,-2.5598,-2.5917,-2.6011,-2.6091,-2.6346,-2.64,-2.6466,-2.6774,-2.7068,-2.7523,-2.8297,-2.8911,-2.9406,-2.9673,-2.9726,-2.9472,-2.8657,-2.9673,-3.1223,-3.3026,-3.5004,-3.6834,-3.829,-3.8985,-3.9599,-4.0314,-4.0361,-4.0435,-4.0481,-4.0214,-4.0067,-4.0067,-3.95,-3.906,-3.8838,-3.8517,-3.7969,-3.7048,-3.6981,-3.6512,-3.5645,-3.5378,-3.5364,-3.5631,-3.5338,-3.5191,-3.5191,-3.4923,-3.4829,-3.4802,-3.4469,-3.4189,-3.3935,-3.4202,-3.4162,-3.3975,-3.4588,-3.4923,-3.5164,-3.5191,-3.5191,-3.5191,0.0,0.0,0.0,0.0,0.0,0.0,0.0,0.0,0.0,0.0,0.0,0.0,0.0,0.0,0.0,0.0,0.0,0.0,0.0,-2.1216,-2.1475,-2.1836,-2.2031,-2.2458,-2.314,-2.3981,-2.485,-2.5732,-2.672,-2.7094,-2.6867,-2.5985,-2.5141,-2.4272,-2.3562,-2.3215,-2.314,-2.2974,-2.3014,-2.314,-2.2974,-2.2893,0.0,0.0,0.0,0.0,0.0,0.0,0.0,0.0,-2.4079,-2.4466,-2.4649,-2.5197,-2.5784,-2.5529,-2.5717,-2.5984,-2.5865,-2.6106,-2.6453,-2.6747,-2.7175,-2.7776,-2.8671,-2.9192,-2.9673,-3.0327,-3.0755,-3.0902,-3.0568,-3.1557,-3.2879,-3.4295,-3.6099,-3.7782,-3.9092,-3.9599,-4.0027,-4.0441,-4.0321,-4.0214,-4.0214,-3.992,-3.9773,-3.9773,-3.9372,-3.8953,-3.8731,-3.8437,-3.7782,-3.6687,-3.6632,-3.6246,-3.5364,-3.507,-3.4977,-3.5084,-3.4977,-3.4923,-3.4976,-3.4869,-3.467,-3.4469,-3.4175,-3.3881,-3.3627,-3.4122,-3.4255,-3.4215,-3.4803,-3.5097,-3.5191,-3.5191,-3.5191,-3.5191,0.0,0.0,0.0,0.0,0.0,0.0,0.0,0.0,0.0,0.0,0.0,0.0,0.0,0.0,0.0,0.0,0.0,0.0,-2.1256,-2.1336,-2.1523,-2.1863,-2.1937,-2.2405,-2.3278,-2.4476,-2.5503,-2.6253,-2.7362,-2.7388,-2.6507,-2.5718,-2.5021,-2.4325,-2.3629,-2.346,-2.3679,-2.3313,-2.322,-2.3265,-2.3027,-2.2893,0.0,0.0,0.0,0.0,0.0,0.0,0.0,0.0,-2.3861,-2.4396,-2.4569,-2.517,-2.5797,-2.5489,-2.561,-2.5758,-2.5451,-2.5665,-2.6092,-2.656,-2.7201,-2.8083,-2.9539,-3.0034,-3.0555,-3.1904,-3.2131,-3.2152,-3.2198,-3.2799,-3.3694,-3.499,-3.6834,-3.8379,-3.9287,-3.9773,-4.0067,-4.0187,-4.0027,-3.9893,-3.9893,-3.964,-3.9452,-3.9452,-3.8953,-3.8593,-3.8437,-3.7969,-3.729,-3.6259,-3.6233,-3.5805,-3.4923,-3.4817,-3.4762,-3.4629,-3.4629,-3.4629,-3.4629,-3.4775,-3.4549,-3.4175,-3.3975,-3.3708,-3.3454,-3.4068,-3.4429,-3.4643,-3.5044,-3.5191,-3.5191,-3.5191,-3.5191,-3.5191,0.0,0.0,0.0,0.0,0.0,0.0,0.0,0.0,0.0,0.0,0.0,0.0,0.0,0.0,0.0,0.0,0.0,0.0,-2.1582,-2.1863,-2.189,-2.1609,-2.1877,-2.2405,-2.3265,-2.4476,-2.5409,-2.6011,-2.7456,-2.771,-2.68,-2.6265,-2.5824,-2.5464,-2.4596,-2.4369,-2.4559,-2.4008,-2.3594,-2.3265,-2.2993,-2.2907,-2.2893,0.0,0.0,0.0,0.0,0.0,0.0,0.0,-2.3803,-2.4004,-2.513,-2.5504,-2.5571,-2.5904,-2.5745,-2.5451,-2.5157,-2.5115,-2.5291,-2.6172,-2.7054,-2.8404,-3.1122,-3.1724,-3.2345,-3.471,-3.4028,-3.3093,-3.3374,-3.32,-3.348,-3.4963,-3.7195,-3.8766,-3.906,-3.9607,-3.986,-3.964,-3.9599,-3.9599,-3.9599,-3.9306,-3.91,-3.91,-3.8259,-3.7809,-3.7809,-3.6981,-3.6233,-3.5645,-3.5631,-3.5204,-3.4322,-3.4603,-3.4603,-3.4322,-3.4322,-3.4322,-3.4336,-3.4629,-3.4494,-3.3895,-3.3881,-3.3708,-3.3454,-3.4068,-3.467,-3.5191,-3.5191,-3.5191,-3.5191,-3.5191,-3.5191,-3.5085,0.0,0.0,0.0,0.0,0.0,0.0,0.0,0.0,0.0,0.0,0.0,0.0,0.0,0.0,0.0,0.0,0.0,0.0,-2.1877,-2.197,-2.2044,-2.2151,-2.2245,-2.2512,-2.3027,-2.3955,-2.5358,-2.7188,-2.7041,-2.656,-2.5892,-2.5518,-2.5007,-2.4289,-2.4449,-2.4329,-2.3995,-2.3621,-2.3372,-2.3305,-2.3447,-2.3281,-2.296,0.0,0.0,0.0,0.0,0.0,0.0,0.0,0.0,0.0,-2.4218,-2.5034,-2.5757,-2.5184,-2.5411,-2.5703,-2.4957,-2.5064,-2.5651,-2.6774,-2.7682,-2.9032,-3.1724,-3.234,-3.3009,-3.5324,-3.5297,-3.4803,-3.4696,-3.4763,-3.5057,-3.5712,-3.7088,-3.833,-3.8993,-3.9247,-3.9393,-3.9599,-3.9052,-3.8789,-3.8972,-3.8504,-3.821,-3.821,-3.7539,-3.7195,-3.7195,-3.658,-3.5939,-3.5351,-3.5324,-3.5004,-3.4322,-3.4202,-3.4108,-3.4015,-3.4015,-3.4229,-3.4629,-3.4509,-3.4362,-3.4175,-3.3975,-3.3708,-3.3454,-3.4068,-3.467,-3.5191,-3.5191,-3.5191,-3.5191,-3.5191,-3.5191,-3.5191,0.0,0.0,0.0,0.0,0.0,0.0,0.0,0.0,0.0,0.0,-2.1109,-2.1109,0.0,0.0,0.0,0.0,0.0,0.0,0.0,-2.2271,-2.2311,-2.2245,-2.2352,-2.2672,-2.3241,-2.4102,-2.5237,-2.6653,-2.6239,-2.5745,-2.5133,-2.5464,-2.5355,-2.4874,-2.5545,-2.5464,-2.4796,-2.4489,-2.4102,-2.3665,-2.3995,-2.3901,-2.3621,0.0,0.0,0.0,0.0,0.0,0.0,0.0,0.0,0.0,-2.3763,-2.4566,-2.5331,-2.4759,-2.5104,-2.5529,-2.4957,-2.5157,-2.5852,-2.7309,-2.8377,-2.9887,-3.2822,-3.4012,-3.4989,-3.6635,-3.6568,-3.6139,-3.6072,-3.5832,-3.5805,-3.6326,-3.7301,-3.8183,-3.8731,-3.8846,-3.8953,-3.9052,-3.8477,-3.8103,-3.8183,-3.7849,-3.7595,-3.7432,-3.6992,-3.6754,-3.6754,-3.6219,-3.5631,-3.5044,-3.5017,-3.4683,-3.3961,-3.4028,-3.4002,-3.3881,-3.3881,-3.4135,-3.4576,-3.4402,-3.4255,-3.4135,-3.3828,-3.3654,-3.3641,-3.4122,-3.4603,-3.5044,-3.5151,-3.5191,-3.5191,-3.5191,-3.5032,-3.4821,0.0,0.0,0.0,0.0,0.0,0.0,0.0,0.0,0.0,0.0,-2.1109,-2.1109,0.0,0.0,0.0,0.0,0.0,0.0,0.0,0.0,-2.2706,-2.2124,-2.2392,-2.2953,-2.387,-2.4619,-2.4994,-2.4994,-2.5251,-2.5144,-2.4666,-2.5825,-2.636,-2.6426,-2.7281,-2.7148,-2.6253,-2.5971,-2.5168,-2.4115,-2.4452,-2.4546,-2.4492,-2.4599,0.0,0.0,0.0,0.0,0.0,0.0,0.0,0.0,-2.371,-2.4168,-2.4599,-2.4599,-2.4863,-2.5155,-2.5155,-2.5371,-2.6066,-2.7898,-2.9366,-3.1183,-3.4253,-3.6206,-3.7569,-3.8133,-3.7595,-3.7183,-3.7382,-3.654,-3.5992,-3.6805,-3.7676,-3.824,-3.824,-3.8437,-3.8477,-3.8183,-3.7889,-3.7595,-3.7342,-3.7275,-3.7155,-3.6874,-3.658,-3.6393,-3.6393,-3.5885,-3.5311,-3.4748,-3.4762,-3.4295,-3.3414,-3.3961,-3.4108,-3.3841,-3.3841,-3.4002,-3.4282,-3.4282,-3.4135,-3.3868,-3.3547,-3.3614,-3.3948,-3.4215,-3.4509,-3.4882,-3.5097,-3.5191,-3.5191,-3.5191,-3.4821,-3.424,0.0,0.0,0.0,0.0,0.0,0.0,0.0,0.0,0.0,0.0,0.0,0.0,0.0,0.0,0.0,0.0,0.0,0.0,0.0,0.0,-2.3166,-2.3046,-2.3327,-2.3781,-2.4399,-2.4182,-2.4084,-2.4084,-2.4342,-2.4649,-2.4997,-2.5757,-2.6212,-2.6413,-2.7108,-2.6653,-2.5331,-2.4796,-2.4022,-2.3268,-2.4235,-2.4186,-2.3679,-2.4636,-2.4183,0.0,0.0,0.0,0.0,0.0,0.0,0.0,-2.3629,-2.4168,-2.4599,-2.4599,-2.4973,-2.5424,-2.5424,-2.5972,-2.7028,-2.9032,-3.181,-3.4362,-3.5525,-3.6794,-3.7702,-3.7595,-3.7839,-3.7986,-3.7742,-3.7342,-3.7048,-3.7275,-3.7448,-3.7569,-3.7569,-3.7635,-3.7555,-3.7261,-3.6981,-3.6767,-3.6687,-3.6473,-3.6326,-3.6259,-3.5979,-3.5712,-3.5485,-3.5364,-3.491,-3.4108,-3.4295,-3.4095,-3.3414,-3.3547,-3.3574,-3.3507,-3.3507,-3.3681,-3.3975,-3.3975,-3.3948,-3.3868,-3.3547,-3.3721,-3.4229,-3.4295,-3.4629,-3.511,-3.5177,-3.5191,-3.5191,-3.5191,-3.4821,-3.4293,0.0,0.0,0.0,0.0,0.0,0.0,0.0,0.0,0.0,0.0,0.0,0.0,0.0,0.0,0.0,0.0,0.0,0.0,0.0,0.0,-2.3474,-2.3305,-2.3607,-2.3817,-2.3781,-2.3817,-2.3669,-2.3375,-2.3522,-2.3941,-2.4676,-2.5398,-2.6119,-2.6867,-2.7268,-2.6774,-2.5503,-2.5024,-2.4396,-2.3794,-2.469,-2.4746,-2.4399,-2.4862,-2.4298,-2.3267,-2.3122,0.0,0.0,0.0,0.0,0.0,0.0,0.0,-2.4399,-2.4399,-2.4943,-2.5545,-2.5692,-2.668,-2.827,-3.0768,-3.3414,-3.5565,-3.6153,-3.6981,-3.7569,-3.7422,-3.7863,-3.8183,-3.7849,-3.7569,-3.7342,-3.7195,-3.7155,-3.7128,-3.6981,-3.6981,-3.6901,-3.6754,-3.6473,-3.6246,-3.6099,-3.5952,-3.5805,-3.5658,-3.5378,-3.5151,-3.5004,-3.4857,-3.4509,-3.3908,-3.4042,-3.3895,-3.3414,-3.3414,-3.3414,-3.3414,-3.3414,-3.3494,-3.3668,-3.3814,-3.3801,-3.3654,-3.348,-3.3587,-3.3908,-3.4202,-3.4496,-3.4803,-3.5084,-3.5191,-3.5191,-3.5191,-3.4663,-3.3922,0.0,0.0,0.0,0.0,0.0,0.0,0.0,0.0,0.0,0.0,0.0,0.0,0.0,0.0,0.0,0.0,0.0,0.0,0.0,0.0,0.0,-2.3407,-2.3634,-2.3616,-2.3215,-2.3603,-2.3562,-2.3054,-2.3,-2.3509,-2.4516,-2.5197,-2.6146,-2.7309,-2.7468,-2.6934,-2.5891,-2.5451,-2.4917,-2.4346,-2.497,-2.5184,-2.5106,-2.4895,-2.4325,-2.3541,-2.3025,-2.2831,-2.2844,-2.3238,0.0,0.0,0.0,0.0,-2.4209,-2.4262,-2.4796,-2.5438,-2.5824,-2.7362,-2.9566,-3.2291,-3.4309,-3.5765,-3.6313,-3.6874,-3.7301,-3.7235,-3.7702,-3.7996,-3.7662,-3.7382,-3.7128,-3.6834,-3.6739,-3.6687,-3.6393,-3.6393,-3.6393,-3.6286,-3.6112,-3.5885,-3.5578,-3.5551,-3.5431,-3.5137,-3.4949,-3.4775,-3.4668,-3.4429,-3.4162,-3.3814,-3.3855,-3.3734,-3.3414,-3.3414,-3.3414,-3.3414,-3.3414,-3.3414,-3.3414,-3.3681,-3.3654,-3.3414,-3.3414,-3.3467,-3.3601,-3.4108,-3.4349,-3.4442,-3.4937,-3.5097,-3.5044,-3.5097,-3.4439,-3.3434,0.0,0.0,0.0,0.0,0.0,0.0,0.0,0.0,0.0,0.0,-2.1743,-2.1884,0.0,0.0,0.0,0.0,0.0,0.0,0.0,0.0,0.0,-2.3736,-2.379,-2.3968,-2.4359,-2.3981,-2.3763,-2.3683,-2.3394,-2.4115,-2.5757,-2.5585,-2.6146,-2.7296,-2.7041,-2.6426,-2.5518,-2.4716,-2.3888,-2.3188,-2.379,-2.3848,-2.3612,-2.3865,-2.3527,-2.2942,-2.2895,-2.2659,-2.2539,-2.3408,-2.3541,0.0,0.0,0.0,-2.4249,-2.4466,-2.4626,-2.4839,-2.5424,-2.7802,-3.0627,-3.2505,-3.4309,-3.5712,-3.6059,-3.658,-3.6885,-3.6687,-3.7088,-3.7342,-3.6794,-3.6647,-3.654,-3.6233,-3.6193,-3.6086,-3.5792,-3.5965,-3.5939,-3.5431,-3.5565,-3.5578,-3.5284,-3.5257,-3.5137,-3.4895,-3.4842,-3.4588,-3.4028,-3.4202,-3.4055,-3.3494,-3.3748,-3.3734,-3.3414,-3.3414,-3.3414,-3.3414,-3.3414,-3.3414,-3.3414,-3.3454,-3.3454,-3.3414,-3.3414,-3.3708,-3.4202,-3.4282,-3.4469,-3.4762,-3.4842,-3.467,-3.4469,-3.4723,-3.4137,-3.318,0.0,0.0,0.0,0.0,0.0,0.0,0.0,0.0,0.0,0.0,0.0,-2.2044,0.0,0.0,0.0,-2.3086,0.0,0.0,0.0,0.0,0.0,-2.3295,-2.3295,-2.3415,-2.3634,-2.3429,-2.3295,-2.3295,-2.33,-2.4235,-2.5998,-2.6159,-2.6961,-2.8217,-2.7214,-2.6426,-2.5692,-2.4649,-2.3875,-2.3429,-2.3696,-2.3794,-2.3772,-2.3567,-2.3298,-2.3029,-2.2691,-2.2585,-2.2746,-2.3532,-2.3723,-2.3701,-2.4372,0.0,0.0,0.0,-2.4706,-2.5504,-2.7255,-2.8778,-3.0493,-3.2879,-3.4202,-3.5057,-3.5685,-3.6153,-3.6366,-3.6072,-3.6086,-3.6179,-3.6246,-3.6259,-3.6166,-3.5872,-3.5819,-3.5725,-3.5431,-3.5498,-3.5431,-3.5004,-3.507,-3.503,-3.4736,-3.471,-3.4656,-3.4523,-3.4362,-3.4162,-3.3895,-3.3841,-3.3681,-3.3414,-3.3547,-3.3547,-3.3414,-3.3414,-3.3414,-3.3414,-3.3414,-3.3414,-3.3414,-3.3414,-3.3414,-3.3414,-3.3414,-3.3561,-3.3828,-3.4002,-3.4255,-3.4509,-3.4509,-3.4629,-3.4803,-3.4776,-3.419,-3.3333,0.0,0.0,0.0,0.0,0.0,0.0,0.0,0.0,0.0,0.0,0.0,0.0,0.0,0.0,0.0,0.0,-2.346,0.0,0.0,0.0,0.0,-2.2893,-2.2893,-2.2893,-2.2893,-2.2893,-2.2893,-2.2893,-2.3327,-2.4529,-2.6453,-2.7001,-2.8148,-2.9708,-2.819,-2.7054,-2.6252,-2.5117,-2.4476,-2.4218,-2.3808,-2.3781,-2.3932,-2.3579,-2.3439,-2.3372,-2.2854,-2.2879,0.0,0.0,-2.387,-2.391,-2.4412,-2.4546,0.0,0.0,0.0,-2.5665,-2.7869,-2.8698,-2.9597,-3.2211,-3.3427,-3.4229,-3.5191,-3.5631,-3.5805,-3.5658,-3.5338,-3.5217,-3.5712,-3.5685,-3.5578,-3.5431,-3.5351,-3.5217,-3.5004,-3.5044,-3.4977,-3.4683,-3.4775,-3.4643,-3.4349,-3.4322,-3.4295,-3.4215,-3.4015,-3.3855,-3.3774,-3.3534,-3.3414,-3.3414,-3.3414,-3.3414,-3.3414,-3.3414,-3.3414,-3.3414,-3.3414,-3.3414,-3.3414,-3.3414,-3.3414,-3.3414,-3.3414,-3.3454,-3.3547,-3.3788,-3.4015,-3.4215,-3.4295,-3.4496,-3.475,-3.4815,-3.4229,-3.3518,0.0,0.0,0.0,0.0,0.0,0.0,0.0,0.0,0.0,0.0,0.0,0.0,-2.3212,-2.3033,-2.3027,-2.3265,-2.3073,-2.2934,-2.292,-2.2907,0.0,-2.2893,-2.2893,0.0,-2.2893,-2.2893,-2.2893,-2.2893,-2.3728,-2.5344,-2.7615,-2.823,-2.974,-3.1864,-3.0127,-2.8593,-2.7175,-2.6279,-2.5692,-2.5304,-2.3879,-2.3319,-2.3399,-2.3932,-2.3995,-2.3777,-2.3728,0.0,0.0,0.0,0.0,0.0,0.0,-2.4412,-2.4222,0.0,0.0,0.0,-2.5451,-2.6533,-2.7857,-2.9659,-3.1597,-3.336,-3.4588,-3.503,-3.5311,-3.5578,-3.5177,-3.4842,-3.4882,-3.4603,-3.4496,-3.4763,-3.4576,-3.4376,-3.4362,-3.4551,-3.4618,-3.4376,-3.4589,-3.4643,-3.4349,-3.4322,-3.4202,-3.3935,-3.3895,-3.3761,-3.3454,-3.3414,-3.3414,-3.3414,-3.3414,-3.3414,-3.3414,-3.3414,-3.3414,-3.3414,-3.3414,-3.3414,-3.3414,-3.3414,-3.3414,-3.3414,-3.3414,-3.3587,-3.3868,-3.3881,-3.3895,-3.3935,-3.4215,-3.3988,-3.3601,-3.4507,-3.424,-3.3525,0.0,0.0,0.0,0.0,0.0,0.0,0.0,0.0,0.0,0.0,0.0,0.0,0.0,-2.322,-2.3207,-2.3278,-2.3046,-2.2987,-2.3153,-2.3153,0.0,-2.3153,-2.334,-2.3388,-2.3166,-2.3388,-2.3388,-2.3153,-2.3861,-2.5117,-2.6881,-2.8056,-2.9152,-3.0069,-2.9472,-2.8898,-2.827,-2.6253,-2.5331,-2.5144,-2.4048,-2.3834,-2.4119,-2.3981,-2.4088,0.0,0.0,0.0,0.0,0.0,0.0,0.0,0.0,0.0,-2.4168,-2.3981,-2.4062,-2.4396,-2.5277,-2.5959,-2.6988,-2.9098,-3.0474,-3.1698,-3.3076,-3.3919,-3.4389,-3.4496,-3.4349,-3.4255,-3.4442,-3.4389,-3.4349,-3.4456,-3.4389,-3.4322,-3.4322,-3.4364,-3.4311,-3.4082,-3.4135,-3.4082,-3.3761,-3.3734,-3.3694,-3.3587,-3.3587,-3.3534,-3.3414,-3.3414,-3.3414,-3.3414,-3.3414,-3.3414,-3.3414,-3.3414,-3.3414,-3.3414,-3.3414,-3.3414,-3.3414,-3.3414,-3.3414,-3.3414,-3.3414,-3.348,-3.3587,-3.3587,-3.3708,-3.3895,-3.4002,-3.4028,-3.4055,-3.4628,-3.4124,-3.325,0.0,0.0,0.0,0.0,0.0,0.0,0.0,0.0,0.0,-2.2893,0.0,0.0,0.0,0.0,-2.3474,-2.3474,-2.3287,-2.3295,-2.346,-2.3474,-2.3474,-2.3474,-2.3661,-2.371,-2.3474,-2.371,-2.3674,-2.3474,-2.4062,-2.5104,-2.656,-2.7749,-2.8724,-2.9459,-2.8965,-2.9018,-2.9366,-2.7495,-2.6587,-2.6293,-2.5061,-2.485,-2.5306,-2.505,0.0,0.0,0.0,0.0,0.0,0.0,0.0,0.0,0.0,0.0,0.0,0.0,-2.4048,-2.4356,-2.5037,-2.5438,-2.6265,-2.8604,-2.945,-3.0145,-3.2019,-3.2835,-3.3227,-3.3521,-3.3668,-3.3814,-3.4122,-3.4082,-3.4055,-3.4162,-3.4082,-3.4015,-3.4015,-3.4108,-3.4068,-3.3761,-3.3828,-3.3761,-3.344,-3.3414,-3.3414,-3.3414,-3.3414,0.0,-3.3414,-3.3414,-3.3374,-3.3267,-3.3267,-3.3267,-3.3267,-3.336,-3.3414,-3.3414,-3.3414,-3.3414,-3.3414,-3.3414,-3.3414,-3.3414,-3.3414,-3.3414,-3.3414,-3.3414,-3.3601,-3.3881,-3.3881,-3.4002,-3.4229,-3.4616,-3.4124,-3.3263,0.0,0.0,0.0,0.0,0.0,0.0,0.0,0.0,-2.2907,-2.2907,0.0,0.0,0.0,0.0,0.0,-2.3843,-2.383,-2.3817,-2.3817,-2.3817,-2.3817,-2.3817,0.0,0.0,-2.3817,-2.383,-2.383,-2.383,-2.4332,-2.5346,-2.68,-2.7402,-2.8604,-3.0239,-2.8834,-2.8995,-3.0306,-2.9927,-2.9455,-2.8801,-2.6814,-2.6319,-2.6867,0.0,0.0,0.0,-2.7068,-2.6867,0.0,-2.5558,0.0,0.0,0.0,0.0,0.0,0.0,0.0,0.0,0.0,0.0,0.0,-2.7936,-2.8339,-2.8807,-3.1383,-3.177,-3.1885,-3.2732,-3.3133,-3.344,-3.3788,-3.3601,-3.3494,-3.3801,-3.3614,-3.3414,-3.3414,-3.3681,-3.3761,-3.3454,-3.3681,-3.3748,-3.3427,-3.34,-3.34,-3.34,-3.3387,-3.3387,-3.3414,-3.3414,-3.328,-3.2986,-3.2986,-3.2986,-3.2973,-3.3267,-3.3414,-3.3414,-3.3414,-3.3414,-3.3414,-3.3414,-3.3414,-3.3414,-3.3414,-3.3414,-3.3414,-3.3414,-3.3587,-3.3868,-3.3881,-3.3881,-3.3961,-3.4601,-3.4226,-3.3486,0.0,0.0,0.0,0.0,0.0,0.0,-2.2893,-2.306,-2.3193,0.0,0.0,0.0,-2.4048,-2.4275,-2.4489,-2.474,-2.4329,-2.4088,-2.4088,-2.4088,-2.4088,-2.4088,-2.4289,-2.4302,-2.4088,-2.4289,-2.4396,-2.4396,-2.477,-2.5277,-2.5892,-2.6907,-2.7535,-2.7829,-2.8497,-2.8657,-2.8364,-2.7215,-2.7509,-2.8551,-2.6466,-2.6627,-2.803,0.0,0.0,0.0,0.0,-2.7923,-2.803,0.0,-2.7135,-2.6613,0.0,0.0,0.0,0.0,0.0,0.0,-2.4155,0.0,0.0,0.0,0.0,0.0,-2.8604,-2.9192,-2.982,-3.1129,-3.1463,-3.181,-3.2795,-3.2888,-3.2929,-3.3187,-3.3334,-3.3414,-3.3414,-3.3494,-3.3507,-3.3427,-3.3494,-3.3427,-3.3133,-3.3093,-3.3093,0.0,-3.2955,-3.2973,-3.3387,-3.3414,-3.328,-3.2986,-3.3187,-3.3187,-3.2986,-3.3267,-3.3414,-3.3414,-3.3414,-3.3414,-3.3414,-3.3414,-3.3414,-3.3414,-3.3414,-3.3414,-3.3414,-3.3414,-3.3467,-3.3561,-3.3801,-3.3881,-3.3961,-3.4601,-3.4137,-3.3236,0.0,0.0,0.0,0.0,0.0,-2.31,-2.3255,-2.3394,-2.3514,0.0,0.0,0.0,-2.4529,-2.4943,-2.5211,-2.5251,-2.4836,-2.4569,-2.4569,-2.4449,-2.4382,-2.4382,-2.4663,-2.4676,-2.4359,-2.4676,-2.4823,-2.4823,-2.4863,-2.5104,-2.5531,-2.6213,-2.6573,-2.668,-2.7415,-2.7669,-2.7428,-2.6079,-2.664,-2.8337,-2.7375,-2.7936,0.0,-2.8698,-2.9138,0.0,0.0,0.0,-2.978,-2.9112,-2.835,0.0,0.0,0.0,0.0,0.0,0.0,0.0,0.0,0.0,0.0,-2.5959,0.0,0.0,-2.7415,-2.7789,-2.8243,-2.9606,-3.0074,-3.0568,-3.1671,-3.1965,-3.2091,-3.2433,-3.2679,-3.2946,-3.32,-3.3227,-3.3187,-3.3066,-3.316,-3.312,-3.2875,-3.2848,-3.2848,-3.2848,-3.2808,-3.2933,-3.3387,-3.3066,-3.2839,-3.2848,-3.2839,-3.2839,-3.2848,-3.3093,-3.3293,-3.3414,-3.3414,-3.3414,-3.3414,-3.3414,-3.3414,-3.3414,-3.3414,-3.3414,-3.3414,-3.3414,-3.3494,-3.3614,-3.3668,-3.3841,-3.4057,-3.4197,-3.3772,-3.3077,0.0,0.0,0.0,-2.3273,-2.3319,-2.3474,-2.3768,-2.3884,-2.391,0.0,-2.4195,-2.4609,-2.5157,-2.573,-2.5944,-2.5638,-2.5344,-2.5157,-2.5168,-2.4877,-2.4693,-2.4693,-2.5024,-2.5037,-2.4706,-2.5024,-2.5195,-2.513,-2.4863,-2.4959,-2.5518,-2.5545,-2.5825,-2.6279,-2.6065,-2.6359,-2.7001,-2.6052,-2.6547,-2.8045,-2.8671,-2.9566,0.0,0.0,-3.1383,-3.2091,-3.1557,-3.157,-3.1684,-3.0501,-2.9152,0.0,0.0,0.0,0.0,0.0,-2.517,0.0,0.0,0.0,0.0,0.0,-2.6426,0.0,-2.7134,-2.7108,-2.7094,-2.823,-2.8845,-2.9472,-3.0421,-3.0835,-3.1116,-3.143,-3.169,-3.2144,-3.2888,-3.2982,-3.2888,-3.2621,-3.2822,-3.2862,-3.2567,-3.2541,-3.2541,-3.2541,-3.2808,-3.3026,-3.3253,-3.2559,-3.2251,-3.2541,-3.2278,-3.2278,-3.2594,-3.2888,-3.312,-3.3414,-3.3414,-3.3414,-3.3414,-3.3414,-3.3414,-3.3414,-3.3414,-3.3414,-3.3414,-3.3414,-3.3574,-3.3801,-3.3521,-3.3788,-3.4219,-3.3704,-3.3343,-3.3062,0.0,0.0,-2.326,-2.3278,-2.3527,-2.3781,-2.4075,-2.4315,-2.4556,-2.4796,-2.5329,-2.5784,-2.6092,-2.6239,-2.6279,-2.6226,-2.5998,-2.573,-2.5451,-2.5371,-2.5306,-2.5306,-2.5663,-2.569,-2.5344,-2.5638,-2.5703,-2.5424,-2.5371,-2.5398,-2.5518,-2.5797,-2.5798,-2.5678,-2.5625,-2.5571,-2.5558,-2.6266,-2.6627,-2.6867,-2.7924,-2.961,-3.1443,-3.1209,-3.169,-3.2487,-3.238,-3.2527,-3.2572,-3.1637,-3.0501,-2.9259,0.0,0.0,0.0,0.0,0.0,0.0,0.0,0.0,0.0,0.0,0.0,0.0,-2.6132,-2.6213,-2.6667,-2.7375,-2.7428,-2.7762,-2.9081,-2.9619,-2.9847,-2.99,-3.04,-3.1203,-3.25,-3.2674,-3.2661,-3.2607,-3.2648,-3.2567,-3.2211,-3.2185,-3.2185,-3.2185,-3.2514,-3.2594,-3.2372,-3.2474,-3.242,-3.2198,-3.242,-3.2541,-3.2594,-3.2888,-3.312,-3.3414,-3.3414,-3.3414,-3.3414,-3.3414,-3.3414,-3.3414,-3.3414,-3.3414,-3.3414,-3.3414,-3.3454,-3.3494,-3.344,-3.3788,-3.4219,-3.3704,-3.3459,-3.3328,0.0,-2.3268,-2.3634,-2.3892,-2.4102,-2.4396,-2.5021,-2.5197,-2.5398,-2.5692,-2.6373,-2.6774,-2.6627,-2.6734,-2.6747,-2.6413,-2.6158,-2.5931,-2.5745,-2.5598,-2.5518,-2.5518,-2.5932,-2.6078,-2.5745,-2.6065,-2.6145,-2.5945,-2.5651,-2.5585,-2.5732,-2.5931,-2.5917,-2.5732,-2.5732,-2.5732,-2.5758,-2.6199,-2.6774,-2.7429,-2.8915,0.0,-3.1289,-3.1877,-3.2465,-3.2973,-3.2973,-3.3066,-3.3,-3.1677,-3.1129,0.0,0.0,-2.8165,-2.8232,0.0,-2.7081,-2.7081,0.0,0.0,0.0,-2.7055,0.0,0.0,0.0,-2.5718,-2.5758,-2.6653,-2.636,-2.64,-2.7883,-2.8043,-2.8136,-2.8767,-2.9236,-2.99,-3.1076,-3.161,-3.1891,-3.1891,-3.1891,-3.177,-3.1476,-3.1583,-3.1784,-3.2078,-3.2152,-3.2219,-3.2318,-3.2233,-3.2152,-3.2104,-3.2152,-3.2233,-3.2367,-3.2661,-3.2955,-3.32,-3.3347,-3.3414,-3.3414,-3.3414,-3.3414,-3.3414,-3.3414,-3.3414,-3.3414,-3.3414,-3.3414,-3.3414,-3.3414,-3.3636,-3.3807,-3.3279,-3.3067,-3.2967,-2.296,-2.3388,-2.395,-2.4382,-2.4572,-2.4983,-2.5797,0.0,-2.6118,-2.6426,-2.7188,-2.7562,-2.7201,-2.7281,-2.7296,-2.7014,-2.6439,-2.6172,0.0,0.0,0.0,0.0,-2.6186,-2.6333,-2.6091,-2.6319,-2.6413,-2.6306,-2.5825,-2.5718,-2.5998,-2.5998,-2.6024,-2.6078,-2.6024,-2.6225,-2.6533,-2.6279,-2.7015,-2.85,-3.006,-3.0715,-3.0875,-3.2332,-3.3013,-3.3187,-3.3347,-3.3374,-3.3106,-3.169,-3.161,-3.1677,-2.9232,-2.9383,0.0,0.0,0.0,0.0,0.0,0.0,0.0,0.0,0.0,-2.6346,0.0,0.0,0.0,-2.6066,-2.5611,-2.5503,-2.6734,-2.6626,-2.6613,-2.7456,-2.8085,0.0,0.0,-3.0167,0.0,-3.1036,-3.1009,-3.0929,-3.0808,-3.0955,-3.1276,-3.181,-3.1637,-3.1778,-3.2313,-3.1938,-3.1784,-3.2011,-3.1797,-3.181,-3.2104,-3.2447,-3.2741,-3.2986,-3.328,-3.3414,-3.3414,-3.3414,-3.3414,-3.3414,-3.3414,-3.3414,-3.3414,-3.348,-3.3467,-3.3414,-3.3314,-3.3332,-3.3395,-3.2697,-3.2531,-3.2541,-2.296,-2.3388,-2.383,-2.3897,-2.4516,-2.5157,0.0,0.0,-2.6185,-2.6694,-2.7308,-2.7883,-2.835,-2.7949,-2.8043,-2.9045,0.0,0.0,-2.7871,0.0,0.0,0.0,0.0,0.0,-2.6346,-2.6627,-2.652,-2.6051,-2.5971,-2.5957,-2.5998,-2.5998,-2.6131,-2.6333,-2.6118,-2.6453,-2.7188,-2.6854,-2.7575,-2.8975,-3.0007,-3.0453,0.0,-3.2086,-3.25,-3.2358,-3.3133,-3.324,-3.3,0.0,-3.2452,-3.1998,0.0,-3.0868,-3.0413,0.0,0.0,0.0,0.0,0.0,0.0,0.0,-2.8991,0.0,0.0,0.0,-2.6347,-2.5745,0.0,-2.5211,-2.5638,0.0,0.0,0.0,-2.676,0.0,-2.763,-2.8337,-2.9285,-3.0373,-3.0221,-3.0261,-3.0742,-3.0595,-3.0641,-3.0915,-3.0915,-3.1036,-3.1356,-3.1557,-3.1724,-3.1764,-3.1738,-3.181,-3.2104,-3.2447,-3.2741,-3.2986,-3.328,-3.3414,-3.3414,-3.3414,-3.3414,-3.3414,-3.3414,-3.3414,-3.3427,-3.3721,-3.3668,-3.3364,-3.2862,-3.3027,-3.3395,-3.2284,-3.2164,-3.2541,-2.292,-2.3388,0.0,-2.4209,-2.4583,-2.509,0.0,0.0,-2.7642,-2.8014,-2.8617,-2.9152,-2.9579,-2.8938,0.0,0.0,0.0,-2.7736,0.0,0.0,0.0,0.0,0.0,0.0,0.0,-2.6854,0.0,-2.6453,-2.6293,-2.6252,-2.6252,-2.6252,-2.6493,-2.6921,-2.6453,-2.6827,-2.7791,-2.7455,-2.7789,-2.8631,-2.9905,-3.0199,0.0,-3.2099,-3.2719,-3.2679,-3.3213,-3.3227,-3.2866,0.0,-3.2358,0.0,0.0,0.0,0.0,0.0,0.0,0.0,0.0,0.0,0.0,0.0,0.0,0.0,-2.7308,0.0,-2.6266,0.0,0.0,0.0,0.0,0.0,0.0,0.0,-2.6386,-2.6867,0.0,0.0,-2.7883,-2.9673,0.0,0.0,-2.9713,-2.982,-2.9967,-3.0261,-3.0287,-3.0488,-3.0955,-3.1089,-3.1316,-3.1711,-3.1711,-3.173,-3.1851,-3.2144,-3.2438,-3.2781,-3.3026,-3.3253,-3.3414,-3.3414,-3.3414,-3.3414,-3.3414,-3.3414,-3.3427,-3.3547,-3.3333,-3.2862,-3.236,-3.2468,-3.2878,-3.2076,-3.1967,-3.2127,-2.3027,0.0,0.0,-2.4329,-2.4596,0.0,0.0,-2.7321,-2.831,-2.8815,-2.9432,-3.0034,-3.0694,-3.0074,0.0,0.0,-2.978,-2.9058,0.0,0.0,-2.7295,0.0,0.0,0.0,0.0,0.0,0.0,-2.6707,-2.6493,-2.6507,-2.6747,-2.6587,-2.6867,-2.7536,-2.7148,-2.7603,-2.854,-2.8364,-2.8671,-2.9356,-3.0266,-3.0581,-3.0715,-3.2185,-3.2839,-3.3013,-3.3307,-3.3173,-3.2808,-3.2051,-3.2425,0.0,-3.177,0.0,0.0,0.0,0.0,0.0,-3.1436,0.0,0.0,0.0,0.0,0.0,0.0,0.0,0.0,0.0,0.0,0.0,0.0,0.0,0.0,0.0,0.0,-2.6507,0.0,-2.6161,0.0,0.0,0.0,0.0,0.0,-2.9112,-2.9325,-2.9539,-2.9553,-2.982,-3.0408,-3.0581,-3.0942,-3.153,-3.1671,-3.1711,-3.1711,-3.1957,-3.2251,-3.2594,-3.2888,-3.3133,-3.3414,-3.3414,-3.3414,-3.3414,-3.3414,-3.3414,-3.3414,-3.3343,-3.3029,-3.2524,-3.1946,-3.1971,-3.2296,-3.1778,-3.1655,-3.171,-2.3278,-2.3554,0.0,-2.383,-2.4539,-2.5302,-2.5917,-2.6493,-2.7295,-2.847,-2.9138,-3.0047,0.0,0.0,0.0,0.0,0.0,-3.0835,-3.1042,0.0,-2.7764,0.0,0.0,-2.6694,0.0,0.0,0.0,0.0,-2.6386,-2.6827,-2.7642,-2.7068,-2.7281,-2.8165,-2.8404,-2.8871,-2.9459,-2.9726,-3.0675,-3.1931,-3.141,-3.2038,-3.32,0.0,-3.2478,-3.3013,-3.3307,0.0,0.0,-3.316,-3.3,0.0,0.0,0.0,0.0,0.0,0.0,0.0,0.0,0.0,0.0,-3.0354,0.0,0.0,0.0,0.0,-2.7951,0.0,0.0,0.0,0.0,0.0,0.0,0.0,0.0,0.0,0.0,0.0,0.0,0.0,0.0,0.0,0.0,-2.8631,-2.8644,-2.8644,-2.8644,-2.8911,-2.9499,-3.0105,-3.0635,-3.1223,-3.1517,-3.1711,-3.1711,-3.1957,-3.2251,-3.2594,-3.2888,-3.3133,-3.3414,-3.3414,-3.3414,-3.3414,-3.3414,-3.3414,-3.339,-3.3165,-3.2923,-3.2537,-3.1819,-3.1633,-3.1765,-3.1206,-3.1167,-3.1445,0.0,0.0,-2.4289,-2.4088,-2.4302,-2.4957,-2.6319,-2.7375,-2.8631,-3.0408,-3.0969,-3.1931,0.0,-3.3748,-3.3961,0.0,0.0,-3.2839,-3.2193,-3.0902,0.0,0.0,0.0,-2.8108,0.0,0.0,0.0,0.0,0.0,-2.6827,-2.7121,-2.7121,-2.7523,-2.8192,-2.8299,-2.8888,-2.9806,-3.0287,0.0,0.0,0.0,-3.3106,-3.4469,0.0,-3.3106,-3.3293,-3.3387,-3.316,0.0,-3.3053,-3.312,-3.3106,-3.3013,-3.2973,-3.2959,-3.2915,-3.2973,0.0,0.0,0.0,-3.2786,-3.1423,0.0,0.0,0.0,0.0,0.0,0.0,0.0,0.0,0.0,0.0,0.0,0.0,0.0,0.0,0.0,0.0,0.0,0.0,0.0,0.0,0.0,0.0,0.0,-2.7764,-2.7535,-2.7762,-2.8593,-2.9165,-2.9847,-3.0621,-3.1129,-3.1476,-3.1711,-3.1957,-3.2251,-3.2594,-3.2888,-3.3133,-3.3414,-3.3414,-3.3414,-3.3414,-3.3414,-3.3213,-3.2862,-3.2816,-3.2299,-3.1529,-3.1275,-3.1117,-3.1015,-3.099,-3.1276,-3.1674,-2.4516,-2.4663,-2.4703,-2.4372,-2.4623,-2.5317,-2.676,-2.8257,-2.986,-3.1597,-3.2438,0.0,-3.5324,0.0,-3.5618,0.0,-3.5631,-3.4616,-3.3169,-3.2492,0.0,-3.014,-2.9806,0.0,0.0,0.0,0.0,0.0,0.0,-2.7669,-2.8083,-2.7843,-2.8152,-2.8821,-2.9035,-2.9392,-2.9993,-3.1223,-3.1677,0.0,0.0,-3.3921,0.0,0.0,-3.3654,-3.367,0.0,-3.3227,-3.2986,-3.3093,-3.3187,-3.3227,-3.304,-3.3053,-3.3106,-3.3013,-3.3133,-3.328,-3.3173,-3.32,0.0,-3.2064,-3.1463,0.0,-2.9379,0.0,0.0,0.0,0.0,0.0,0.0,0.0,0.0,0.0,0.0,0.0,0.0,-2.3627,0.0,0.0,0.0,0.0,0.0,0.0,-2.7175,-2.6867,-2.6627,-2.6854,0.0,-2.8337,-2.9179,-3.0167,-3.0862,-3.137,-3.1711,-3.1957,-3.2251,-3.2594,-3.2888,-3.3133,-3.3414,-3.3414,-3.3314,-3.3113,-3.3113,-3.2812,-3.231,-3.2109,-3.1617,-3.0961,-3.0771,-3.0676,-3.0636,-3.0902,-3.1336,-3.1807,-2.513,-2.5144,-2.5039,-2.4733,-2.5424,-2.6319,-2.7215,-2.9088,-3.0841,-3.2024,-3.348,-3.4857,-3.61,-3.6433,-3.6834,-3.7382,-3.7155,-3.6166,-3.4189,-3.4028,0.0,0.0,-3.0835,-3.0555,-2.9659,0.0,0.0,0.0,0.0,-2.9219,-3.0319,-2.9165,-2.9072,-2.986,-3.0501,-3.0461,-3.0074,-3.2363,-3.3267,-3.312,-3.4002,-3.4549,-3.4815,-3.4148,-3.4095,-3.4255,-3.3641,-3.324,-3.304,-3.332,-3.3227,-3.3,-3.3,-3.3187,-3.336,-3.308,-3.3414,-3.3801,-3.347,-3.3227,-3.2866,-3.2291,0.0,0.0,0.0,0.0,-3.1022,0.0,0.0,0.0,0.0,0.0,0.0,0.0,0.0,0.0,0.0,0.0,0.0,0.0,0.0,0.0,0.0,0.0,-2.6867,-2.5999,-2.5957,0.0,0.0,-2.7657,-2.8687,-2.982,-3.0715,-3.133,-3.1684,-3.1944,-3.2251,-3.2594,-3.2888,-3.3133,-3.3414,-3.3414,-3.3113,-3.2611,-3.2611,-3.2259,-3.1718,-3.1214,-3.0961,-3.091,-3.0416,-3.0383,-3.066,-3.0914,-3.1348,-3.1807,-2.5372,-2.5609,-2.5846,-2.5557,-2.5937,-2.6693,-2.7791,-2.9356,-3.1149,-3.316,-3.471,-3.6153,-3.7585,-3.7969,-3.821,-3.8357,-3.8103,0.0,0.0,0.0,0.0,-3.4015,-3.3614,-3.2893,-3.1831,-3.1116,0.0,-2.9958,0.0,0.0,-2.9379,-2.9299,-2.9018,-2.87,-3.014,-3.0461,-3.0047,-3.1957,-3.324,-3.4028,-3.471,-3.5284,-3.5631,0.0,-3.4337,-3.4484,-3.3708,-3.336,-3.3307,-3.3387,-3.336,-3.3293,-3.3293,-3.3347,-3.34,-3.332,-3.3414,-3.3521,-3.344,-3.336,-3.3213,-3.2853,-3.2372,-3.1851,0.0,0.0,0.0,0.0,0.0,0.0,0.0,0.0,0.0,0.0,0.0,0.0,0.0,0.0,0.0,-2.3717,0.0,0.0,0.0,0.0,-2.5749,-2.5215,-2.5272,0.0,0.0,0.0,-2.7978,-2.8911,-3.0007,-3.0822,-3.133,-3.1851,-3.2251,-3.2594,-3.2888,-3.3133,-3.3414,-3.3414,-3.3113,-3.2611,-3.2611,-3.2058,-3.1163,-3.1062,-3.0771,-3.0366,-3.0264,-3.0491,-3.0926,-3.1191,-3.1505,-3.1807,-2.5436,-2.614,-2.6813,-2.6992,-2.7664,-2.8433,-2.9222,-3.0279,-3.1684,-3.3627,-3.5271,0.0,-3.7422,-3.833,-3.8913,-3.9092,-3.8731,0.0,-3.7478,0.0,0.0,-3.5444,-3.5191,-3.4469,-3.321,-3.2251,0.0,-3.0975,0.0,-2.9659,-2.9935,-2.9379,-2.9008,-2.8834,-3.0181,-3.0541,-3.0234,-3.2118,-3.3681,-3.4897,-3.4977,-3.5204,0.0,-3.4763,-3.4362,-3.4097,-3.3991,-3.3748,-3.3427,-3.3574,-3.3614,-3.3641,-3.3774,-3.3895,-3.4002,-3.4002,-3.4002,-3.4028,-3.4162,-3.4002,-3.3774,-3.3601,-3.3213,-3.2732,-3.2233,-3.2233,-3.2118,0.0,0.0,0.0,0.0,0.0,0.0,0.0,0.0,0.0,0.0,0.0,0.0,0.0,-2.4669,0.0,0.0,0.0,0.0,0.0,0.0,0.0,0.0,0.0,-2.7802,-2.8577,-2.9873,-3.0768,-3.1223,-3.2064,-3.2505,-3.2594,-3.2973,-3.3253,-3.3414,-3.3414,-3.2963,-3.2259,-3.2259,-3.1668,-3.067,-3.067,-3.0467,-3.0226,-3.0346,-3.0708,-3.1191,-3.1336,-3.1566,-3.1807,-2.5428,-2.6655,-2.7777,-2.8267,-2.9579,-3.0709,-3.1089,-3.1704,-3.2674,-3.3988,0.0,-3.6861,-3.6861,-3.8193,-3.9207,-3.9519,0.0,-3.8397,-3.7595,-3.8036,-3.7595,-3.6046,-3.6153,-3.5591,-3.4202,-3.3276,0.0,0.0,0.0,-3.006,-3.0856,-2.9339,-2.8858,-2.9352,-3.0274,0.0,0.0,-3.2532,-3.4122,-3.5297,-3.4883,-3.4802,-3.4869,-3.4788,-3.4215,-3.3641,-3.4404,-3.4177,-3.3587,-3.3935,-3.4055,-3.4095,-3.4349,-3.4616,-3.4869,-3.4869,-3.4842,-3.4869,-3.507,-3.4736,-3.4322,-3.4322,-3.4108,-3.3681,-3.2955,-3.2741,-3.2621,-3.2278,-3.181,-3.141,0.0,0.0,0.0,0.0,0.0,0.0,0.0,0.0,0.0,0.0,0.0,0.0,0.0,0.0,0.0,0.0,0.0,0.0,0.0,0.0,-2.7789,-2.847,-2.9873,-3.0795,-3.1122,-3.2291,-3.2822,-3.2661,-3.3106,-3.3374,-3.3414,-3.3314,-3.2762,-3.1819,-3.1718,-3.1113,-3.0214,-3.0214,-3.0214,-3.0238,-3.0503,-3.0902,-3.1348,-3.1372,-3.1566,-3.1807,-2.5388,-2.6954,-2.8079,-2.7281,-2.9586,-3.186,-3.2794,-3.3895,-3.4843,-3.5645,-3.7448,-3.862,-3.862,-3.8913,-3.9127,-3.9167,-3.8905,0.0,0.0,0.0,0.0,-3.7879,-3.7382,-3.6687,-3.5765,-3.4349,-3.329,0.0,-3.0975,-2.994,-2.9362,-2.8858,-2.8524,-2.8473,-2.9566,0.0,-3.1156,-3.2492,0.0,-3.3828,-3.4242,-3.4696,-3.507,-3.4589,-3.4295,-3.4215,-3.4564,-3.4444,-3.4242,-3.479,-3.4963,-3.4977,-3.503,-3.5084,-3.5124,-3.5124,-3.495,-3.4829,-3.4882,-3.4589,-3.4322,-3.4322,-3.4108,-3.3841,-3.3694,-3.3454,-3.3173,-3.2893,-3.2746,-3.2372,-3.1363,0.0,0.0,0.0,0.0,0.0,0.0,0.0,0.0,0.0,0.0,-2.482,0.0,0.0,0.0,0.0,0.0,0.0,0.0,0.0,-2.6787,0.0,-2.9058,0.0,0.0,0.0,-3.2478,-3.2955,-3.3013,-3.3187,-3.3364,-3.2963,-3.241,-3.1769,-3.1315,-3.0759,-3.0214,-3.0214,-3.0214,-3.0238,-3.0503,-3.0793,-3.1095,-3.1312,-3.1566,-3.1807,-2.6939,-2.7896,0.0,0.0,-3.1636,-3.3524,-3.4818,-3.6032,-3.662,-3.6139,-3.7342,-3.8193,-3.8193,-3.9052,-3.9599,-3.9599,-3.914,-3.8886,-3.8886,-3.8798,-3.8584,-3.8321,-3.7996,0.0,-3.6313,-3.4857,-3.3748,-3.2986,-3.0621,-2.9472,-2.9428,-2.8243,-2.7762,-2.7991,0.0,-3.014,0.0,0.0,0.0,-3.3681,-3.3975,-3.4442,-3.4923,-3.4482,-3.4416,-3.4603,-3.4991,-3.5217,-3.5244,-3.5378,-3.5418,-3.5444,-3.5605,-3.5645,-3.5645,-3.5645,-3.5444,-3.5204,-3.5204,-3.5004,-3.4736,-3.4589,-3.4442,-3.4269,-3.3961,-3.3774,-3.3574,-3.3267,-3.308,-3.2577,-3.1154,-2.9538,0.0,0.0,0.0,0.0,0.0,0.0,0.0,0.0,0.0,0.0,0.0,0.0,0.0,0.0,0.0,0.0,0.0,0.0,-2.6734,0.0,0.0,0.0,-3.0614,0.0,0.0,-3.2317,-3.2656,-3.2881,-3.2963,-3.2712,-3.231,-3.1769,-3.1214,-3.072,-3.0214,-3.0214,-3.0371,-3.0636,-3.0757,-3.1059,-3.1433,-3.1553,-3.1698,-3.1807,-2.8572,-2.9246,0.0,0.0,-3.3809,-3.5112,-3.6378,-3.7635,-3.8036,-3.6874,-3.7382,-3.7889,-3.7929,-3.9199,-3.9967,-3.9967,-3.9433,-3.91,-3.91,-3.8865,-3.8611,-3.837,-3.8348,-3.7782,-3.6727,-3.5257,-3.4055,0.0,-3.0341,-2.9112,-2.9312,-2.7682,-2.7161,0.0,0.0,0.0,0.0,0.0,-3.2545,-3.3801,-3.3855,-3.4282,-3.483,-3.4523,-3.4629,-3.5004,-3.5471,-3.5859,-3.6126,-3.5899,-3.5859,-3.5885,-3.6112,-3.6126,-3.6113,-3.5992,-3.5819,-3.5618,-3.5551,-3.5418,-3.5217,-3.4923,-3.4869,-3.4681,-3.4095,-3.3935,-3.3801,-3.348,-3.3187,-3.2554,-3.1041,-3.0057,0.0,0.0,0.0,0.0,0.0,0.0,0.0,0.0,0.0,0.0,-2.5348,0.0,0.0,0.0,0.0,0.0,-2.5917,0.0,0.0,0.0,0.0,-2.9949,-3.0218,0.0,-3.2011,-3.1806,-3.2364,-3.2662,-3.2762,-3.2511,-3.2209,-3.1769,-3.1113,-3.0619,-3.0214,-3.0214,-3.0455,-3.0841,-3.095,-3.1264,-3.165,-3.1771,-3.1807,-3.1807,0.0,-3.0961,-3.2518,0.0,0.0,-3.6216,-3.6777,-3.8086,-3.8953,-3.8846,-3.9159,-3.9493,-3.9746,-3.992,-3.9967,-3.9967,-3.9433,-3.91,-3.91,-3.8865,-3.866,-3.8691,-3.8397,-3.7969,-3.7315,-3.5859,-3.4162,0.0,0.0,-2.9316,0.0,0.0,0.0,0.0,0.0,0.0,0.0,-3.1503,-3.2612,-3.3457,-3.3774,-3.4402,-3.5124,-3.4882,-3.507,-3.5551,-3.5551,-3.5992,-3.6473,-3.6433,-3.6552,-3.6754,-3.654,-3.6286,-3.6019,-3.5752,-3.5591,-3.5578,-3.5311,-3.5404,-3.5511,-3.5231,-3.4963,-3.4735,-3.4349,-3.4068,-3.3801,-3.348,-3.3187,-3.2638,-3.1517,-3.1384,-3.0683,0.0,0.0,0.0,0.0,0.0,0.0,0.0,0.0,0.0,0.0,-2.5596,-2.5806,0.0,-2.5985,0.0,0.0,0.0,0.0,-2.7296,-2.8781,-2.957,-2.9671,-3.1025,-3.1871,-3.2155,-3.2468,-3.2862,-3.3314,-3.231,-3.187,-3.1769,-3.072,-3.0264,-3.0214,-3.0214,-3.025,-3.0334,-3.0817,-3.1034,-3.1131,-3.1626,-3.1807,-3.1807,0.0,0.0,0.0,0.0,0.0,-3.6759,-3.7819,-3.8593,-3.9167,-3.9353,-3.9666,-3.996,-4.0254,-4.0294,-4.0214,-4.004,-3.9607,-3.9287,-3.91,-3.8865,-3.8718,-3.8718,-3.8611,-3.825,-3.7662,-3.654,-3.5151,0.0,0.0,0.0,0.0,0.0,0.0,0.0,0.0,-2.9713,-3.0755,-3.1517,-3.2452,-3.3454,-3.3761,-3.4416,-3.5151,-3.467,-3.5084,-3.5872,-3.5698,-3.6233,-3.7021,-3.7021,-3.6874,-3.6647,-3.654,-3.6433,-3.6313,-3.6193,-3.6153,-3.6086,-3.5805,-3.5672,-3.5565,-3.5271,-3.511,-3.495,-3.4656,-3.4496,-3.4322,-3.4015,-3.3721,-3.3297,-3.25,-3.2155,-3.1582,0.0,0.0,0.0,0.0,0.0,0.0,0.0,0.0,0.0,0.0,-2.5544,-2.5754,-2.6413,0.0,0.0,0.0,0.0,0.0,-2.6987,0.0,-2.9234,-2.9306,-3.0406,-3.0976,-3.101,-3.1587,-3.1904,-3.1958,-3.187,-3.1466,-3.0822,-3.0366,-3.0214,-3.0214,-3.0214,-3.031,-3.0491,-3.0853,-3.1095,-3.1276,-3.1662,-3.1807,-3.1807,-3.3798,0.0,-3.5085,0.0,-3.7155,-3.7529,-3.8633,-3.8953,-3.9247,-3.9666,-3.9893,-4.0147,-4.0441,-4.0481,-4.0401,-4.0187,-3.9893,-3.9599,-3.9247,-3.8953,-3.8798,-3.8718,-3.8718,0.0,-3.7956,-3.7168,-3.6046,-3.4576,-3.3066,0.0,0.0,0.0,0.0,0.0,-2.9219,-3.0167,-3.1503,-3.1891,-3.2732,-3.3828,-3.4055,-3.4563,-3.5151,-3.4736,-3.5204,-3.6046,-3.5832,-3.6473,-3.7382,-3.7382,-3.7088,-3.6727,-3.654,-3.65,-3.6473,-3.6299,-3.6366,-3.6433,-3.6046,-3.5912,-3.5778,-3.5311,-3.5257,-3.5231,-3.4909,-3.4815,-3.4708,-3.4269,-3.3948,-3.3614,-3.3187,-3.2759,-3.2283,-3.1734,0.0,0.0,0.0,0.0,0.0,0.0,0.0,-2.6253,-2.6133,-2.5805,-2.5898,-2.6507,0.0,0.0,0.0,0.0,0.0,0.0,0.0,0.0,-2.9028,-2.9928,-3.0399,-3.0464,-3.1013,-3.1328,-3.1466,-3.1517,-3.1062,-3.0214,-3.0214,-3.0214,-3.0214,-3.0214,-3.0322,-3.0527,-3.0865,-3.1107,-3.1312,-3.1674,-3.1807,-3.1807,-3.543,-3.6328,-3.7246,-3.8446,-3.8691,-3.8798,-3.906,-3.91,-3.9313,-3.99,-3.9967,-4.0147,-4.0441,-4.0481,-4.0481,-4.0481,-4.0187,-3.9893,-3.9599,-3.9306,-3.8953,0.0,0.0,-3.8584,-3.8321,-3.7676,-3.666,-3.5191,0.0,0.0,-3.0768,0.0,-2.974,-2.9526,-3.0675,-3.153,-3.2131,-3.2719,-3.3705,-3.4802,-3.4802,-3.4923,-3.5191,-3.5191,-3.5551,-3.6072,-3.6126,-3.6675,-3.7382,-3.7382,-3.7382,-3.7275,-3.6687,-3.65,-3.6393,-3.5805,-3.6046,-3.638,-3.5792,-3.6059,-3.6286,-3.5418,-3.5418,-3.5471,-3.4949,-3.4815,-3.4655,-3.4015,-3.3641,-3.3414,-3.3414,-3.34,-3.2971,-3.1622,0.0,0.0,0.0,0.0,0.0,0.0,-2.7987,-2.7702,-2.6507,-2.6386,0.0,0.0,0.0,0.0,0.0,0.0,0.0,-2.7682,-2.8588,0.0,-2.8823,-2.974,-3.0476,-3.0992,-3.1002,-3.1567,-3.2561,-3.1466,-3.072,-3.0214,-3.0214,-3.0214,-3.0214,-3.0214,-3.0214,-3.0274,-3.0793,-3.0998,-3.1071,-3.1614,-3.1807,-3.1807,-3.6799,-3.7403,-3.7969,-3.8388,-3.8584,-3.8758,-3.8838,-3.8953,-3.9167,-3.9353,-3.9599,-3.9786,-3.9853,-4.0227,-4.0401,0.0,-3.9893,-3.9599,0.0,-3.9012,-3.8766,-3.8718,-3.8718,-3.8584,-3.8321,-3.8133,-3.7398,-3.6086,0.0,0.0,0.0,-3.1597,-3.1356,-3.1289,-3.1864,-3.2572,-3.3347,-3.3734,-3.4229,-3.4815,-3.4815,-3.5057,-3.5498,-3.5498,-3.5979,-3.6647,-3.6647,-3.7235,-3.8026,-3.8026,-3.8026,-3.7889,-3.7275,-3.6981,-3.6727,-3.634,-3.65,-3.6632,-3.6086,-3.6072,-3.6046,-3.5364,-3.5271,-3.5284,-3.5097,-3.5057,-3.495,-3.4614,-3.4402,-3.4215,-3.3814,-3.3734,-3.3457,-3.2616,-3.2434,0.0,0.0,0.0,0.0,0.0,-2.7543,-2.7249,-2.6734,-2.6585,0.0,0.0,0.0,0.0,0.0,0.0,0.0,0.0,-2.8334,0.0,-2.8881,-2.9547,-2.9996,-3.0168,-3.0902,-3.1528,-3.2021,-3.0961,-3.0366,-3.0214,-3.0214,-3.0214,-3.0214,-3.0214,-3.0214,-3.025,-3.06,-3.0841,-3.1034,-3.1397,-3.1638,-3.1807,-3.7772,-3.8103,-3.8437,-3.8437,-3.8584,-3.8718,-3.8718,-3.8865,-3.8993,-3.91,-3.9306,-3.9493,-3.9599,-4.004,0.0,-3.9893,-3.9706,-3.9493,-3.9127,-3.8913,-3.8838,-3.8718,-3.8718,-3.8624,-3.8437,-3.8437,0.0,-3.7168,-3.6433,-3.5257,-3.3584,-3.312,-3.2933,-3.2946,-3.329,-3.3798,-3.4389,-3.4576,-3.4883,-3.5297,-3.5137,-3.5378,-3.5805,-3.5912,-3.6366,-3.6912,-3.7139,-3.7702,-3.829,-3.8397,-3.8437,-3.8357,-3.7919,-3.7595,-3.7301,-3.6687,-3.6672,-3.6794,-3.6233,-3.6153,-3.6099,-3.5511,-3.5364,-3.5324,-3.5217,-3.511,-3.4977,-3.4855,-3.4641,-3.4374,-3.3961,-3.3788,-3.3587,-3.32,-3.2674,-3.1872,-3.0734,0.0,0.0,0.0,0.0,0.0,0.0,-2.7274,-2.7458,0.0,0.0,0.0,0.0,0.0,0.0,-2.7731,-2.8608,0.0,-2.9068,-2.9772,-3.012,-3.0103,-3.0864,-3.1353,-3.1466,-3.0619,-3.0214,-3.0214,-3.0214,-3.0214,-3.0214,-3.0214,-3.0214,-3.0238,-3.0503,-3.0769,-3.1034,-3.1288,-3.1566,-3.1807,-3.8348,-3.8504,-3.8718,-3.8718,-3.8718,-3.8718,-3.8718,-3.8718,-3.8766,-3.902,-3.906,-3.9167,-3.9533,-3.9786,-3.9794,-3.9599,0.0,0.0,0.0,-3.906,-3.8953,-3.8731,-3.8718,-3.8718,-3.8718,-3.8718,-3.8584,-3.8321,-3.6874,-3.5899,-3.5311,-3.4723,-3.4442,-3.4456,-3.471,-3.499,-3.5257,-3.5257,-3.5578,-3.6046,-3.5765,-3.5845,-3.6166,-3.6433,-3.6699,-3.7088,-3.7635,-3.8036,-3.8388,-3.8624,-3.8718,-3.8651,-3.8388,-3.825,-3.8093,-3.6901,-3.6754,-3.6834,-3.6259,-3.6286,-3.634,-3.5765,-3.5618,-3.5525,-3.5257,-3.499,-3.4842,-3.4842,-3.4362,-3.3961,-3.3921,-3.3668,-3.3454,-3.3387,-3.2412,-3.1463,-3.0849,0.0,0.0,0.0,0.0,0.0,0.0,-2.831,-2.8404,0.0,0.0,0.0,0.0,0.0,-2.8642,-2.8374,-2.9192,-2.9589,-2.945,-3.0181,-3.0577,-3.069,-3.095,-3.1062,-3.1012,-3.0518,-3.0214,-3.0214,-3.0214,-3.0214,-3.0214,-3.0214,-3.0214,-3.0238,-3.0503,-3.0769,-3.1034,-3.1288,-3.1566,-3.1807,0.0,0.0,-3.8718,-3.8718,-3.8718,-3.8718,-3.8718,-3.8718,-3.87,-3.8766,-3.8766,-3.8886,-3.9167,-3.906,-3.9092,-3.9239,-3.9452,-3.9386,-3.8806,-3.8766,-3.8798,-3.8718,-3.8718,-3.8718,-3.8718,-3.8718,-3.8584,-3.8321,-3.7676,-3.7088,-3.65,-3.5925,-3.5658,-3.5658,-3.5498,-3.5591,-3.5859,-3.5859,-3.5939,-3.6059,-3.5992,-3.6273,-3.6699,-3.6794,-3.7301,-3.7969,-3.8116,-3.8357,-3.8624,-3.8691,-3.8718,-3.8611,-3.8103,-3.8076,-3.8174,-3.7382,-3.7235,-3.7155,-3.658,-3.6286,-3.6086,-3.5725,-3.5458,-3.5284,-3.5204,-3.5137,-3.5097,-3.5097,-3.4977,-3.475,-3.4295,-3.4162,-3.3881,-3.3187,-3.2291,-3.143,-3.0627,-2.9646,0.0,0.0,-2.8698,-2.8804,-2.8681,-2.8815,-2.8828,0.0,0.0,0.0,-2.8465,-2.9596,-2.9875,-2.8942,-2.9027,-2.9688,-3.0897,-3.0304,-3.0501,-3.1516,-3.158,-3.1617,-3.1617,-3.1062,-3.0619,-3.0214,-3.0214,-3.0214,-3.0214,-3.0214,-3.0214,-3.0238,-3.0503,-3.0769,-3.1034,-3.1288,-3.1566,-3.1807,-3.8718,-3.8718,-3.8718,-3.8718,-3.8718,-3.8718,-3.8718,-3.8718,-3.8718,-3.8718,-3.8718,-3.874,-3.8886,-3.9052,-3.9092,-3.8913,-3.906,-3.9052,-3.87,-3.8718,-3.8718,-3.8718,-3.8718,-3.8718,-3.8718,-3.8718,-3.8651,-3.8477,-3.8183,-3.7849,-3.7529,-3.6941,-3.6715,-3.6715,-3.65,-3.6433,-3.6473,-3.6473,-3.654,-3.666,-3.638,-3.6687,-3.7286,-3.7286,-3.7702,-3.829,-3.8437,-3.8584,-3.8691,-3.8544,-3.8504,-3.8437,-3.7956,-3.7929,-3.7969,-3.7529,-3.7382,-3.7275,-3.6834,-3.65,-3.6206,-3.5899,-3.5712,-3.5565,-3.5431,-3.5284,-3.5191,-3.5191,-3.5097,-3.4857,-3.4402,-3.4215,-3.3788,-3.2746,-3.1837,-3.0955,-3.0132,-2.9192,0.0,-2.8791,-2.9058,-2.9352,-2.9619,-2.9842,-2.9828,-2.9428,-2.9793,0.0,-2.8929,-3.0261,-3.0415,-2.9047,-2.969,-3.035,-3.1051,-3.0576,-3.0963,-3.2159,-3.1416,-3.1315,-3.1769,-3.1012,-3.0467,-3.0214,-3.0214,-3.0214,-3.0214,-3.0214,-3.0214,-3.0238,-3.0503,-3.0769,-3.1034,-3.1288,-3.1566,-3.1807,-3.8718,-3.8718,-3.8718,-3.8718,-3.8718,-3.8731,-3.874,-3.874,-3.8798,-3.8838,-3.8865,-3.8865,-3.8905,-3.9346,-3.9412,-3.8913,-3.8838,-3.8758,-3.8718,-3.8718,-3.8718,-3.8718,-3.8718,-3.8718,-3.8718,-3.8718,-3.8718,-3.8718,-3.8477,-3.8348,-3.8321,-3.7799,-3.7489,-3.7448,-3.7448,-3.7301,-3.7032,-3.7032,-3.7179,-3.7422,-3.6901,-3.7168,-3.7889,-3.7889,-3.8076,-3.837,-3.8624,-3.8691,-3.8611,-3.8388,-3.8281,-3.8143,-3.7849,-3.7782,-3.7742,-3.7462,-3.7382,-3.7342,-3.7032,-3.6834,-3.654,-3.6166,-3.6099,-3.6059,-3.5765,-3.5511,-3.5311,-3.5271,-3.507,-3.4776,-3.4389,-3.4122,-3.3561,-3.2358,-3.1396,-3.0501,-2.9659,0.0,-2.8497,-2.9055,-2.9513,-2.9967,-3.0547,-3.1009,-3.0949,-3.0165,-3.1042,-3.0989,-2.9456,-3.0734,-3.0805,-2.9322,-3.0659,-3.1176,-3.0777,-3.1101,-3.1718,-3.2561,-3.1113,-3.091,-3.1769,-3.0771,-3.0264,-3.0214,-3.0214,-3.0214,-3.0214,-3.0214,-3.0214,-3.025,-3.0552,-3.0805,-3.1034,-3.1336,-3.1602,-3.1819,-3.8718,-3.8718,-3.8718,-3.8718,-3.8718,-3.8798,-3.8993,-3.902,-3.914,-3.9412,-3.9452,-3.9559,-3.9754,-3.9706,-3.9666,-3.9813,-3.9313,-3.8913,-3.8731,-3.8718,-3.8718,-3.8718,-3.8718,-3.8718,-3.8718,-3.8718,-3.8718,-3.8718,-3.8691,-3.8504,-3.8321,-3.8214,-3.7996,-3.7742,-3.7742,-3.7702,-3.7676,-3.7676,-3.7702,-3.7742,-3.7635,-3.7849,-3.824,-3.824,-3.8428,-3.8651,-3.866,-3.8544,-3.8388,-3.8321,-3.8133,-3.7823,-3.7529,-3.7635,-3.7742,-3.7462,-3.7382,-3.7382,-3.7371,-3.7275,-3.7048,-3.6273,-3.6259,-3.6366,-3.6072,-3.5965,-3.5859,-3.5618,-3.5525,-3.5257,-3.4469,-3.4282,-3.3868,-3.2714,-3.153,-3.0568,-2.994,0.0,-2.9125,-2.9713,-3.0474,-3.1089,-3.1483,-3.1543,-3.146,-3.109,-3.1193,-3.1117,-3.0718,-3.1776,-3.1959,-3.1034,-3.1261,-3.1464,-3.1592,-3.2096,-3.2461,-3.2611,-3.187,-3.1668,-3.1769,-3.1163,-3.0619,-3.0214,-3.0214,-3.0214,-3.0214,-3.0214,-3.0214,-3.0262,-3.0745,-3.0962,-3.1059,-3.1553,-3.1771,-3.1843,-3.8718,-3.8718,-3.8718,-3.8718,-3.8806,-3.8953,-3.906,-3.9247,-3.9393,-3.9599,-3.9599,-3.964,-3.9786,-3.9813,-3.9813,-3.9813,-3.9559,-3.9265,-3.8913,-3.8798,-3.8718,-3.8718,-3.8718,-3.8718,-3.8718,-3.8718,-3.8718,-3.8718,-3.8718,-3.8651,-3.8504,-3.8504,-3.8437,-3.829,-3.829,-3.821,-3.8093,-3.8093,-3.8093,-3.8036,-3.7889,-3.8103,-3.8477,-3.8143,-3.8223,-3.8437,-3.829,-3.8143,-3.7996,-3.7849,-3.7702,-3.7529,-3.7235,-3.7235,-3.7301,-3.7195,-3.7275,-3.7382,-3.7382,-3.7382,-3.7371,-3.7088,-3.6981,-3.6901,-3.662,-3.6433,-3.6219,-3.5925,-3.5738,-3.5405,-3.4897,-3.4536,-3.3988,-3.2995,-3.1664,0.0,0.0,-2.9753,-2.9606,-3.0515,-3.1263,-3.1877,-3.2332,-3.242,-3.2275,-3.2005,-3.1995,-3.1781,-3.1395,-3.23,-3.264,-3.2336,-3.2156,-3.198,-3.1819,-3.2071,-3.2159,-3.2159,-3.1315,-3.1062,-3.1365,-3.0809,-3.0416,-3.0214,-3.0214,-3.0214,-3.0214,-3.0214,-3.0214,-3.0262,-3.0793,-3.0998,-3.1059,-3.1602,-3.1807,-3.1843,-3.8718,-3.8718,-3.8718,-3.8718,-3.8846,-3.9033,-3.9167,-3.9452,-3.964,-3.9786,-3.9813,-3.9813,-3.9813,-4.0,-4.004,-3.9813,-3.968,-3.9493,-3.9207,-3.8886,-3.8718,-3.8718,-3.8718,-3.8718,-3.8718,-3.8718,-3.8718,-3.8718,-3.8718,-3.8718,-3.8718,-3.8718,-3.8718,-3.8718,-3.8718,-3.8584,-3.837,-3.837,-3.8388,-3.8281,-3.7996,-3.8143,-3.8464,-3.7996,-3.7956,-3.8174,-3.7889,-3.7782,-3.7676,-3.7448,-3.7382,-3.7342,-3.7128,-3.6992,-3.6992,-3.6992,-3.7195,-3.7382,-3.7382,-3.7529,-3.7702,-3.7702,-3.7635,-3.7489,-3.7128,-3.6874,-3.662,-3.6246,-3.5939,-3.5618,-3.5257,-3.4776,-3.4135,-3.3227,0.0,0.0,0.0,-3.0421,-3.0354,-3.1316,-3.1944,-3.2505,-3.3026,-3.3146,-3.3017,-3.2625,-3.2763,-3.2629,-3.1959,-3.2663,-3.317,-3.3283,-3.3035,-3.2615,-3.2073,-3.1895,-3.1845,-3.1858,-3.0745,-3.0467,-3.0961,-3.0528,-3.0274,-3.0214,-3.0286,-3.0274,-3.0214,-3.0214,-3.025,-3.0358,-3.0817,-3.1034,-3.1143,-3.1626,-3.1807,-3.1855,-3.8718,-3.8718,-3.8718,-3.8718,-3.8731,-3.8945,-3.9493,-3.9599,-3.9786,-4.0334,-4.0401,-4.0401,-4.0401,-4.0441,-4.0441,-4.0462,-3.992,-3.9599,-3.9559,-3.8993,-3.8718,-3.8718,-3.8718,-3.8718,-3.8718,-3.8718,-3.8718,-3.8718,-3.8718,-3.8718,-3.8718,-3.8718,-3.8718,-3.8718,-3.8718,-3.866,-3.8691,-3.8691,-3.8504,-3.8321,-3.8281,-3.8076,-3.7889,-3.7823,-3.7823,-3.7849,-3.7809,-3.7635,-3.7422,-3.7382,-3.7382,-3.7382,-3.7342,-3.7342,-3.7342,-3.7342,-3.7382,-3.7382,-3.7382,-3.7996,-3.8437,-3.7595,-3.7823,-3.8093,-3.7489,-3.7342,-3.7168,-3.658,-3.6246,-3.5872,-3.5297,-3.4937,-3.4429,-3.3521,0.0,0.0,-3.1724,-3.1591,-3.1637,-3.1998,-3.2559,-3.304,-3.3347,-3.3641,-3.3492,-3.2672,-3.3375,-3.3402,-3.2572,-3.3073,-3.3534,-3.3831,-3.3817,-3.355,-3.2927,-3.2149,-3.1946,-3.2137,-3.0831,-3.0467,-3.0973,-3.0723,-3.0443,-3.0226,-3.0467,-3.0443,-3.0214,-3.0214,-3.0358,-3.0612,-3.089,-3.1143,-3.1397,-3.1698,-3.1807,-3.1879,-3.8718,-3.8718,-3.8718,-3.8718,-3.8865,-3.902,-3.9247,-3.964,-3.99,-4.0174,-4.0361,-4.0481,-4.0481,-4.0481,-4.0481,-4.0481,-3.9933,-3.9599,-3.9599,-3.9052,-3.8718,-3.8718,-3.8718,-3.8718,-3.8718,-3.8718,-3.8718,-3.8718,-3.8718,-3.8718,-3.8718,-3.8718,-3.8718,-3.8718,-3.8718,-3.8718,-3.8718,-3.8718,-3.8544,-3.8321,-3.8321,-3.8076,-3.7782,-3.7595,-3.7555,-3.7529,-3.7342,-3.7195,-3.7059,-3.7059,-3.7059,-3.7128,-3.7315,-3.7382,-3.7448,-3.7879,-3.7986,-3.7986,-3.7986,-3.8183,-3.8397,-3.825,-3.8281,-3.82,-3.7742,-3.7529,-3.7275,-3.6861,-3.654,-3.6273,-3.6046,-3.5471,-3.4977,-3.4817,0.0,-3.2781,-3.324,-3.2679,-3.2514,-3.3133,-3.3561,-3.3855,-3.3961,-3.4082,-3.4006,-3.3682,-3.398,-3.3926,-3.3418,-3.378,-3.3875,-3.3649,-3.3636,-3.3521,-3.3328,-3.2289,-3.179,-3.1715,-3.102,-3.0715,-3.0774,-3.0836,-3.0793,-3.0708,-3.0805,-3.0793,-3.0696,-3.0696,-3.0757,-3.0877,-3.1143,-3.13,-3.1421,-3.171,-3.1807,-3.1855,-3.8718,-3.8718,-3.8718,-3.8718,-3.8913,-3.914,-3.9265,-3.9706,-4.0067,-4.0147,-4.0361,-4.0481,-4.0481,-4.0401,-4.0334,-4.0334,-3.9813,-3.9452,-3.9452,-3.8953,-3.8718,-3.8718,-3.8718,-3.8718,-3.8718,-3.8718,-3.8718,-3.8718,-3.8718,-3.8718,-3.8718,-3.8718,-3.8718,-3.8718,-3.8718,-3.8718,-3.8718,-3.8718,-3.8544,-3.8321,-3.8321,-3.8076,-3.7782,-3.7595,-3.7448,-3.7342,-3.7155,-3.7088,-3.7088,-3.7088,-3.7195,-3.7382,-3.7595,-3.7676,-3.7799,-3.825,-3.8397,-3.8437,-3.8504,-3.8544,-3.8544,-3.8584,-3.8477,-3.829,-3.7889,-3.7742,-3.7529,-3.6992,-3.6739,-3.662,-3.6513,-3.5939,-3.5471,-3.5498,-3.4309,-3.3601,-3.4229,-3.3614,-3.3383,-3.3948,-3.4202,-3.4322,-3.4322,-3.4402,-3.4416,-3.4322,-3.4402,-3.4336,-3.4042,-3.3917,-3.3806,-3.3628,-3.3253,-3.3136,-3.3238,-3.2193,-3.1578,-3.141,-3.1106,-3.0902,-3.0733,-3.0914,-3.0998,-3.0998,-3.0998,-3.0998,-3.0998,-3.0998,-3.1046,-3.1143,-3.1312,-3.1445,-3.1541,-3.1735,-3.1807,-3.1843,-3.8718,-3.8718,-3.8718,-3.8718,-3.8913,-3.9207,-3.9559,-3.9794,-4.0147,-4.0441,-4.0481,-4.0481,-4.0481,-4.0214,-3.9967,-3.9967,-3.9433,-3.91,-3.91,-3.8865,-3.8718,-3.8718,-3.8718,-3.8718,-3.8718,-3.8718,-3.8718,-3.8718,-3.8718,-3.8718,-3.8718,-3.8718,-3.8718,-3.8718,-3.8718,-3.8718,-3.8718,-3.8718,-3.8544,-3.8321,-3.8321,-3.8076,-3.7809,-3.7809,-3.7635,-3.7382,-3.7382,-3.7382,-3.7382,-3.7382,-3.7782,-3.8321,-3.8321,-3.8321,-3.8388,-3.8651,-3.8718,-3.874,-3.902,-3.91,-3.8953,-3.8455,-3.8504,-3.8513,-3.7956,-3.8036,-3.7996,-3.7128,-3.6885,-3.6805,-3.658,-3.6273,-3.5885,-3.5297,-3.5204,-3.499,-3.4416,-3.4322,-3.4322,-3.4322,-3.4322,-3.4322,-3.4322,-3.4589,-3.4643,-3.4349,-3.4603,-3.4643,-3.4336,-3.348,-3.3277,-3.385,-3.2776,-3.2322,-3.2594,-3.179,-3.1383,-3.1384,-3.1131,-3.101,-3.0998,-3.101,-3.101,-3.101,-3.101,-3.101,-3.101,-3.101,-3.1155,-3.1397,-3.1397,-3.1566,-3.1807,-3.1807,-3.1807,-3.1843,-3.8718,-3.8718,-3.8718,-3.8718,-3.8798,-3.8865,-3.8972,-3.9412,-3.9746,-3.9853,-4.0227,-4.0481,-4.0481,-4.0214,-4.0107,-4.0334,-3.9813,-3.9372,-3.91,-3.8865,-3.8718,-3.8718,-3.8718,-3.8718,-3.8718,-3.8718,-3.8718,-3.8718,-3.8718,-3.8718,-3.8718,-3.8718,-3.8718,-3.8718,-3.8718,-3.8718,-3.8718,-3.8718,-3.8544,-3.8321,-3.8321,-3.8076,-3.7809,-3.7809,-3.7782,-3.7702,-3.7929,-3.7996,-3.8036,-3.825,-3.8437,-3.8611,-3.878,-3.8846,-3.8945,-3.9239,-3.9052,-3.874,-3.902,-3.8953,-3.8806,-3.8865,-3.8651,-3.8357,-3.8183,-3.8036,-3.7889,-3.7595,-3.7555,-3.7448,-3.7168,-3.6874,-3.654,-3.6179,-3.5591,-3.5204,-3.5231,-3.4883,-3.471,-3.491,-3.4937,-3.4937,-3.4937,-3.5017,-3.503,-3.4937,-3.483,-3.466,-3.4295,-3.3876,-3.342,-3.2988,-3.2496,-3.2151,-3.202,-3.1777,-3.1591,-3.1384,-3.1505,-3.1457,-3.1276,-3.1481,-3.1566,-3.1566,-3.1566,-3.1566,-3.1566,-3.1566,-3.1614,-3.1686,-3.1686,-3.1735,-3.1807,-3.1807,-3.1807,-3.1605,-3.8718,-3.8718,-3.8718,-3.8718,-3.8905,-3.9012,-3.8905,-3.9493,-3.9893,-3.9786,-4.0187,-4.0481,-4.0481,-4.0214,-4.0107,-4.0294,-3.9773,-3.9353,-3.9287,-3.8945,-3.8758,-3.8846,-3.874,-3.8718,-3.8718,-3.8718,-3.8718,-3.8718,-3.8718,-3.8718,-3.8718,-3.8718,-3.8718,-3.8718,-3.8718,-3.8718,-3.8718,-3.8718,-3.8611,-3.8437,-3.8437,-3.833,-3.8183,-3.8183,-3.8103,-3.7996,-3.824,-3.8321,-3.829,-3.8477,-3.8611,-3.8758,-3.8993,-3.902,-3.8993,-3.9287,-3.9159,-3.8886,-3.906,-3.8953,-3.8886,-3.906,-3.8798,-3.8397,-3.829,-3.8223,-3.8103,-3.7849,-3.7929,-3.7889,-3.7595,-3.7408,-3.7099,-3.6699,-3.6233,-3.5872,-3.5819,-3.5404,-3.5177,-3.5351,-3.5271,-3.5191,-3.5191,-3.5191,-3.5191,-3.5191,-3.4923,-3.4622,-3.4332,-3.3862,-3.3271,-3.2635,-3.2222,-3.1944,-3.1807,-3.1807,-3.1722,-3.1553,-3.1722,-3.1722,-3.1553,-3.1614,-3.1698,-3.1807,-3.1698,-3.171,-3.1807,-3.1807,-3.1807,-3.1807,-3.1807,-3.1807,-3.1807,-3.1807,-3.1207,-3.022,-3.8718,-3.87,-3.8758,-3.8758,-3.9239,-3.9519,-3.9167,-3.9893,-4.0334,-4.0067,-4.0294,-4.0481,-4.0481,-4.0214,-4.0027,-4.0067,-3.95,-3.9287,-3.9599,-3.9092,-3.8806,-3.906,-3.8806,-3.8718,-3.8718,-3.8718,-3.8718,-3.8718,-3.8718,-3.8718,-3.8718,-3.8718,-3.8718,-3.8718,-3.8718,-3.8718,-3.8718,-3.8718,-3.8718,-3.8718,-3.8718,-3.8731,-3.8758,-3.8731,-3.8584,-3.8388,-3.8428,-3.8428,-3.8388,-3.8428,-3.8584,-3.8838,-3.906,-3.8953,-3.8766,-3.902,-3.906,-3.906,-3.906,-3.906,-3.906,-3.906,-3.8905,-3.8651,-3.837,-3.8504,-3.8513,-3.7996,-3.8103,-3.8223,-3.7929,-3.7823,-3.7635,-3.7032,-3.6885,-3.6672,-3.6179,-3.5832,-3.5578,-3.5578,-3.5378,-3.5191,-3.5191,-3.5191,-3.5191,-3.5191,-3.4898,-3.4596,-3.4227,-3.3467,-3.2875,-3.2541,-3.2074,-3.1807,-3.1807,-3.1807,-3.1807,-3.1807,-3.1807,-3.1807,-3.1795,-3.1541,-3.1566,-3.1795,-3.1541,-3.1578,-3.1807,-3.1807,-3.1807,-3.1807,-3.1807,-3.1807,-3.1754,-3.1528,-3.0113,-2.8253,-3.8718,-3.8846,-3.8993,-3.8993,-3.9346,-3.9559,-3.9519,-3.9853,-4.0107,-4.0027,-4.0294,-4.0481,-4.0481,-4.0214,-4.0087,-4.0361,-4.004,-3.9773,-3.9599,-3.9207,-3.8972,-3.8766,-3.8758,-3.8718,-3.8718,-3.8718,-3.8718,-3.8718,-3.8718,-3.8718,-3.8718,-3.8718,-3.8718,-3.8718,-3.8718,-3.8718,-3.8718,-3.8718,-3.8718,-3.8718,-3.8718,-3.8806,-3.8993,-3.8798,-3.8766,-3.8985,-3.9239,-3.9159,-3.8953,-3.9239,-3.9346,-3.9412,-3.9493,-3.9247,-3.902,-3.906,-3.8953,-3.8766,-3.8766,-3.8766,-3.8766,-3.8766,-3.8758,-3.866,-3.8651,-3.8691,-3.8691,-3.8544,-3.8584,-3.8544,-3.8223,-3.7969,-3.7702,-3.7342,-3.6901,-3.654,-3.6433,-3.5952,-3.5578,-3.5578,-3.5378,-3.5191,-3.5191,-3.5191,-3.5191,-3.5191,-3.4716,-3.4175,-3.371,-3.3076,-3.2492,-3.1967,-3.186,-3.1807,-3.1807,-3.1807,-3.1807,-3.1807,-3.1807,-3.1807,-3.1807,-3.1747,-3.1747,-3.1807,-3.1747,-3.1759,-3.1807,-3.1807,-3.1807,-3.1807,-3.1807,-3.1807,-3.1593,-2.9726,-2.8737,-2.7789,-3.8718,-3.8838,-3.8972,-3.906,-3.9353,-3.9599,-3.9599,-3.996,-4.0187,-4.0007,-4.0294,-4.0481,-4.0481,-4.0334,-4.0294,-4.0468,-4.008,-3.9813,-3.9813,-3.9265,-3.8886,-3.8886,-3.8798,-3.8718,-3.8718,-3.8718,-3.8718,-3.8718,-3.8718,-3.8718,-3.8718,-3.8718,-3.8718,-3.8718,-3.8718,-3.8718,-3.8718,-3.8718,-3.8718,-3.8718,-3.8718,-3.8766,-3.8886,-3.8886,-3.8953,-3.9127,-3.9287,-3.9199,-3.8953,-3.9247,-3.9306,-3.9199,-3.9199,-3.9033,-3.8886,-3.8886,-3.8838,-3.8718,-3.8718,-3.8718,-3.8718,-3.8718,-3.878,-3.8846,-3.8758,-3.8718,-3.8718,-3.8718,-3.8718,-3.8691,-3.8504,-3.8357,-3.8103,-3.7676,-3.7342,-3.7021,-3.6754,-3.6206,-3.5845,-3.5845,-3.5458,-3.5191,-3.5191,-3.5191,-3.5191,-3.5191,-3.4663,-3.4081,-3.3551,-3.2914,-3.2328,-3.1807,-3.1807,-3.1807,-3.1807,-3.1807,-3.1807,-3.1807,-3.1807,-3.1807,-3.1807,-3.1807,-3.1807,-3.1807,-3.1807,-3.1807,-3.1807,-3.1807,-3.1807,-3.1807,-3.1807,-3.11,-2.9994,-2.8737,-2.6894,-2.4464,-3.8718,-3.8758,-3.8846,-3.914,-3.9433,-3.9666,-3.9666,-4.008,-4.0321,-4.0067,-4.0254,-4.0462,-4.0481,-4.0481,-4.0481,-4.0481,-4.0,-3.9746,-3.99,-3.9167,-3.8865,-3.902,-3.8806,-3.8718,-3.8718,-3.8718,-3.8718,-3.8718,-3.8718,-3.8718,-3.8718,-3.8718,-3.8718,-3.8718,-3.8718,-3.8718,-3.8718,-3.8718,-3.8718,-3.8718,-3.8718,-3.8758,-3.8766,-3.8953,-3.906,-3.91,-3.91,-3.8953,-3.878,-3.8953,-3.8873,-3.8718,-3.8718,-3.8718,-3.8718,-3.8718,-3.8718,-3.8718,-3.8718,-3.8718,-3.8718,-3.8718,-3.8846,-3.8953,-3.874,-3.8758,-3.874,-3.8731,-3.8718,-3.866,-3.8651,-3.8553,-3.8397,-3.7823,-3.7702,-3.7489,-3.6952,-3.6433,-3.6072,-3.6072,-3.5551,-3.5191,-3.5191,-3.5191,-3.5138,-3.5032,-3.4504,-3.3922,-3.3392,-3.2754,-3.2287,-3.1807,-3.1807,-3.1807,-3.1807,-3.1807,-3.1807,-3.1807,-3.1807,-3.1807,-3.1807,-3.1807,-3.1807,-3.1807,-3.1807,-3.1807,-3.1807,-3.1807,-3.1807,-3.1754,-3.1368,-2.9994,-2.8188,-2.738,-2.44,-2.0435,-3.8718,-3.8886,-3.914,-3.9493,-3.9773,-3.996,-3.996,-4.004,-4.0067,-4.0027,-4.0067,-4.0187,-4.0441,-4.0481,-4.0481,-4.0481,-4.0174,-3.9893,-3.9666,-3.9247,-3.8953,-3.874,-3.87,-3.8718,-3.8718,-3.8718,-3.8718,-3.8718,-3.8718,-3.8718,-3.8718,-3.8718,-3.8718,-3.8718,-3.8718,-3.8718,-3.8718,-3.8718,-3.8718,-3.8718,-3.8718,-3.8865,-3.902,-3.8806,-3.8886,-3.91,-3.91,-3.906,-3.8993,-3.8806,-3.8758,-3.8718,-3.8718,-3.8718,-3.8718,-3.8718,-3.8718,-3.8718,-3.8718,-3.8718,-3.8718,-3.8718,-3.8758,-3.8758,-3.8731,-3.8905,-3.8953,-3.8758,-3.8718,-3.8651,-3.8428,-3.8103,-3.7823,-3.7489,-3.7235,-3.7008,-3.6885,-3.6433,-3.6072,-3.6072,-3.5551,-3.5191,-3.5191,-3.5191,-3.498,-3.4451,-3.3922,-3.3339,-3.2754,-3.218,-3.186,-3.1807,-3.1807,-3.1807,-3.1807,-3.1807,-3.1807,-3.1807,-3.1807,-3.1807,-3.1807,-3.1807,-3.1807,-3.1807,-3.1807,-3.1807,-3.1807,-3.1807,-3.1807,-3.1593,-2.9565,-2.8576,-2.7811,-2.3747,-2.06,-1.8302,-3.8718,-3.878,-3.8953,-3.9247,-3.9599,-3.9853,-4.0,-4.0174,-4.0294,-4.0294,-4.0294,-4.0334,-4.0468,-4.0481,-4.0401,-4.0254,-3.996,-3.9666,-3.9313,-3.902,-3.8806,-3.8731,-3.8718,-3.8718,-3.8718,-3.8718,-3.8718,-3.8718,-3.8718,-3.8718,-3.8718,-3.8718,-3.8718,-3.8718,-3.8718,-3.8718,-3.8718,-3.8718,-3.8718,-3.8718,-3.8718,-3.8846,-3.91,-3.8953,-3.91,-3.9353,-3.9353,-3.914,-3.8905,-3.8886,-3.8806,-3.8718,-3.8718,-3.8718,-3.8718,-3.8718,-3.8718,-3.8718,-3.8718,-3.8718,-3.8718,-3.8718,-3.8838,-3.8873,-3.8758,-3.8886,-3.902,-3.874,-3.8718,-3.8691,-3.8544,-3.825,-3.7969,-3.7676,-3.7382,-3.7128,-3.6912,-3.658,-3.6193,-3.5859,-3.5458,-3.5191,-3.5191,-3.5191,-3.4927,-3.4346,-3.3816,-3.3232,-3.2648,-3.2074,-3.1807,-3.1807,-3.1807,-3.1807,-3.1807,-3.1807,-3.1807,-3.1807,-3.1807,-3.1807,-3.1807,-3.1807,-3.1807,-3.1807,-3.1807,-3.1807,-3.1807,-3.1807,-3.1047,-2.9726,-2.8683,-2.6677,-2.3965,-2.0639,-1.8736,-1.7915]},{"header":{"parameterUnit":"m.s-1","parameterCategory":1,"la1":30.6,"la2":28.766,"lo1":-90.7593,"lo2":-88.6598,"dy":0.0162,"dx":0.0183,"nx":116,"ny":114,"refTime":"2023-10-22T06:00:00:Z","depth":0,"parameterNumber":3,"parameterNumberName":"V-component_of_WINDS"},"data":[0.0,0.0,0.0,0.0,0.0,0.0,0.0,0.0,0.0,0.0,0.0,0.0,0.0,0.0,0.0,0.0,0.0,0.0,0.0,0.0,0.0,0.0,0.0,0.0,0.0,0.0,0.0,0.0,0.0,0.0,0.0,0.0,0.0,0.0,0.0,0.0,0.0,0.0,0.0,0.0,0.0,0.0,0.0,0.0,0.0,0.0,0.0,0.0,0.0,0.0,0.0,0.0,0.0,0.0,0.0,0.0,0.0,0.0,0.0,0.0,0.0,0.0,0.0,0.0,0.0,0.0,0.0,0.0,0.0,0.0,0.0,0.0,0.0,0.0,0.0,0.0,0.0,0.0,0.0,0.0,0.0,0.0,0.0,0.0,0.0,0.0,0.0,0.0,0.0,0.0,0.0,0.0,0.0,0.0,0.0,0.0,0.0,0.0,0.0,0.0,0.0,0.0,0.0,0.0,0.0,0.0,0.0,0.0,0.0,0.0,0.0,0.0,0.0,0.0,0.0,0.0,0.0,0.0,0.0,0.0,0.0,0.0,0.0,0.0,0.0,0.0,0.0,0.0,0.0,0.0,0.0,0.0,0.0,0.0,0.0,0.0,0.0,0.0,0.0,0.0,0.0,0.0,0.0,0.0,0.0,0.0,0.0,0.0,0.0,0.0,0.0,0.0,0.0,0.0,0.0,0.0,0.0,0.0,0.0,0.0,0.0,0.0,0.0,0.0,0.0,0.0,0.0,0.0,0.0,0.0,0.0,0.0,0.0,0.0,0.0,0.0,0.0,0.0,0.0,0.0,0.0,0.0,0.0,0.0,0.0,0.0,0.0,0.0,0.0,0.0,0.0,0.0,0.0,0.0,0.0,0.0,0.0,0.0,0.0,0.0,0.0,0.0,0.0,0.0,0.0,0.0,0.0,0.0,0.0,0.0,0.0,0.0,0.0,0.0,0.0,0.0,0.0,0.0,0.0,0.0,0.0,0.0,0.0,0.0,0.0,0.0,0.0,0.0,0.0,0.0,0.0,0.0,0.0,0.0,0.0,0.0,0.0,0.0,0.0,0.0,0.0,0.0,0.0,0.0,0.0,0.0,0.0,0.0,0.0,0.0,0.0,0.0,0.0,0.0,0.0,0.0,0.0,0.0,0.0,0.0,0.0,0.0,0.0,0.0,0.0,0.0,0.0,0.0,0.0,0.0,0.0,0.0,0.0,0.0,0.0,0.0,0.0,0.0,0.0,0.0,0.0,0.0,0.0,0.0,0.0,0.0,0.0,0.0,0.0,0.0,0.0,0.0,0.0,0.0,0.0,0.0,0.0,0.0,0.0,0.0,0.0,0.0,0.0,0.0,0.0,0.0,0.0,0.0,0.0,0.0,0.0,0.0,0.0,0.0,0.0,0.0,0.0,0.0,0.0,0.0,0.0,0.0,0.0,0.0,0.0,0.0,0.0,0.0,0.0,0.0,0.0,0.0,0.0,0.0,0.0,0.0,0.0,0.0,0.0,0.0,0.0,0.0,0.0,0.0,0.0,0.0,0.0,0.0,0.0,0.0,0.0,0.0,0.0,0.0,0.0,0.0,0.0,0.0,0.0,0.0,0.0,0.0,0.0,0.0,0.0,0.0,0.0,0.0,0.0,0.0,0.0,0.0,0.0,0.0,0.0,0.0,0.0,0.0,0.0,0.0,0.0,0.0,0.0,0.0,0.0,0.0,0.0,0.0,0.0,0.0,0.0,0.0,0.0,0.0,0.0,0.0,0.0,0.0,0.0,0.0,0.0,0.0,0.0,0.0,0.0,0.0,0.0,0.0,0.0,0.0,0.0,0.0,0.0,0.0,0.0,0.0,0.0,0.0,0.0,0.0,0.0,0.0,0.0,0.0,0.0,0.0,0.0,0.0,0.0,0.0,0.0,0.0,0.0,0.0,0.0,0.0,0.0,0.0,0.0,0.0,0.0,0.0,0.0,0.0,0.0,0.0,0.0,0.0,0.0,0.0,0.0,0.0,0.0,0.0,0.0,0.0,0.0,0.0,0.0,0.0,0.0,0.0,0.0,0.0,0.0,0.0,0.0,0.0,0.0,0.0,0.0,0.0,0.0,0.0,0.0,0.0,0.0,0.0,0.0,0.0,0.0,0.0,0.0,0.0,0.0,0.0,0.0,0.0,0.0,0.0,0.0,0.0,0.0,0.0,0.0,0.0,0.0,0.0,0.0,0.0,0.0,0.0,0.0,0.0,0.0,0.0,0.0,0.0,0.0,0.0,0.0,0.0,0.0,0.0,0.0,0.0,0.0,0.0,0.0,0.0,0.0,0.0,0.0,0.0,0.0,0.0,0.0,0.0,0.0,0.0,0.0,0.0,0.0,0.0,0.0,0.0,0.0,0.0,0.0,0.0,0.0,0.0,0.0,0.0,0.0,0.0,0.0,0.0,0.0,0.0,0.0,0.0,0.0,0.0,0.0,0.0,0.0,0.0,0.0,0.0,0.0,0.0,0.0,0.0,0.0,0.0,0.0,0.0,0.0,0.0,0.0,0.0,0.0,0.0,0.0,0.0,0.0,0.0,0.0,0.0,0.0,0.0,0.0,0.0,0.0,0.0,0.0,0.0,0.0,0.0,0.0,0.0,0.0,0.0,0.0,0.0,0.0,0.0,0.0,0.0,0.0,0.0,0.0,0.0,0.0,0.0,0.0,0.0,0.0,0.0,0.0,0.0,0.0,0.0,0.0,0.0,0.0,0.0,0.0,0.0,0.0,0.0,0.0,0.0,0.0,0.0,0.0,0.0,0.0,0.0,0.0,0.0,0.0,0.0,0.0,0.0,0.0,0.0,0.0,0.0,0.0,0.0,0.0,0.0,0.0,0.0,0.0,0.0,0.0,0.0,0.0,0.0,0.0,0.0,0.0,0.0,0.0,0.0,0.0,0.0,0.0,0.0,0.0,0.0,0.0,0.0,0.0,0.0,0.0,0.0,0.0,0.0,0.0,0.0,0.0,0.0,0.0,0.0,0.0,0.0,0.0,0.0,0.0,0.0,0.0,0.0,0.0,0.0,0.0,0.0,0.0,0.0,0.0,0.0,0.0,0.0,0.0,0.0,0.0,0.0,0.0,0.0,0.0,0.0,0.0,0.0,0.0,0.0,0.0,0.0,0.0,0.0,0.0,0.0,0.0,0.0,0.0,0.0,0.0,0.0,0.0,0.0,0.0,0.0,0.0,0.0,0.0,0.0,0.0,0.0,0.0,0.0,0.0,0.0,0.0,0.0,0.0,0.0,0.0,0.0,0.0,0.0,0.0,0.0,0.0,0.0,0.0,0.0,0.0,0.0,0.0,0.0,0.0,0.0,0.0,0.0,0.0,0.0,0.0,0.0,0.0,0.0,0.0,0.0,0.0,0.0,0.0,0.0,0.0,0.0,0.0,0.0,0.0,0.0,0.0,0.0,0.0,0.0,0.0,0.0,0.0,0.0,0.0,0.0,0.0,0.0,0.0,0.0,0.0,0.0,0.0,0.0,0.0,0.0,0.0,0.0,0.0,0.0,0.0,0.0,0.0,0.0,0.0,0.0,0.0,0.0,0.0,0.0,0.0,0.0,0.0,0.0,0.0,0.0,0.0,0.0,0.0,0.0,0.0,0.0,0.0,0.0,0.0,0.0,0.0,0.0,0.0,0.0,0.0,0.0,0.0,0.0,0.0,0.0,0.0,0.0,0.0,0.0,0.0,0.0,0.0,0.0,0.0,0.0,0.0,0.0,0.0,0.0,0.0,0.0,0.0,0.0,0.0,0.0,0.0,0.0,0.0,0.0,0.0,0.0,0.0,0.0,0.0,0.0,0.0,0.0,0.0,0.0,0.0,0.0,0.0,0.0,0.0,0.0,0.0,0.0,0.0,0.0,0.0,0.0,0.0,0.0,0.0,0.0,0.0,0.0,0.0,0.0,0.0,0.0,0.0,0.0,0.0,0.0,0.0,0.0,0.0,0.0,0.0,0.0,0.0,0.0,0.0,0.0,0.0,0.0,0.0,0.0,0.0,0.0,0.0,0.0,0.0,0.0,0.0,0.0,0.0,0.0,0.0,0.0,0.0,0.0,0.0,0.0,0.0,0.0,0.0,0.0,0.0,0.0,0.0,0.0,0.0,0.0,0.0,0.0,0.0,0.0,0.0,0.0,0.0,0.0,0.0,0.0,0.0,0.0,0.0,0.0,0.0,0.0,0.0,0.0,0.0,0.0,0.0,0.0,0.0,0.0,0.0,0.0,0.0,0.0,0.0,0.0,0.0,0.0,0.0,0.0,0.0,0.0,0.0,0.0,0.0,0.0,0.0,0.0,0.0,0.0,0.0,0.0,0.0,0.0,0.0,0.0,0.0,0.0,0.0,0.0,0.0,0.0,0.0,0.0,0.0,0.0,0.0,0.0,0.0,0.0,0.0,0.0,0.0,0.0,0.0,0.0,0.0,0.0,0.0,0.0,0.0,0.0,0.0,0.0,0.0,0.0,0.0,0.0,0.0,0.0,0.0,0.0,0.0,0.0,0.0,0.0,0.0,0.0,0.0,0.0,0.0,0.0,0.0,0.0,0.0,0.0,0.0,0.0,0.0,0.0,0.0,0.0,0.0,0.0,0.0,0.0,0.0,0.0,0.0,0.0,0.0,0.0,0.0,0.0,0.0,0.0,0.0,0.0,0.0,0.0,0.0,0.0,0.0,0.0,0.0,0.0,0.0,0.0,0.0,0.0,0.0,0.0,0.0,0.0,0.0,0.0,0.0,0.0,0.0,0.0,0.0,0.0,0.0,0.0,0.0,0.0,0.0,0.0,0.0,0.0,0.0,0.0,0.0,0.0,0.0,0.0,0.0,0.0,0.0,0.0,0.0,0.0,0.0,0.0,0.0,0.0,0.0,0.0,0.0,0.0,0.0,0.0,0.0,0.0,0.0,0.0,0.0,0.0,0.0,0.0,0.0,0.0,0.0,0.0,0.0,0.0,0.0,0.0,0.0,0.0,0.0,0.0,0.0,0.0,0.0,0.0,0.0,0.0,0.0,0.0,0.0,0.0,0.0,0.0,0.0,0.0,0.0,0.0,0.0,0.0,0.0,0.0,0.0,0.0,0.0,0.0,0.0,0.0,0.0,0.0,0.0,0.0,0.0,0.0,0.0,0.0,0.0,0.0,0.0,0.0,0.0,0.0,0.0,0.0,0.0,0.0,0.0,0.0,0.0,0.0,0.0,0.0,0.0,0.0,0.0,0.0,0.0,0.0,0.0,0.0,0.0,0.0,0.0,0.0,0.0,0.0,0.0,0.0,0.0,0.0,0.0,0.0,0.0,0.0,0.0,0.0,0.0,0.0,0.0,0.0,0.0,0.0,0.0,0.0,0.0,0.0,0.0,0.0,0.0,0.0,0.0,0.0,0.0,0.0,0.0,0.0,0.0,0.0,0.0,0.0,0.0,0.0,0.0,0.0,0.0,0.0,0.0,0.0,0.0,0.0,0.0,0.0,0.0,0.0,0.0,0.0,0.0,0.0,0.0,0.0,0.0,0.0,0.0,0.0,0.0,0.0,0.0,0.0,0.0,0.0,0.0,0.0,0.0,0.0,0.0,0.0,0.0,0.0,0.0,0.0,0.0,0.0,0.0,0.0,0.0,0.0,0.0,0.0,0.0,0.0,0.0,0.0,0.0,0.0,0.0,0.0,0.0,0.0,0.0,0.0,0.0,0.0,0.0,0.0,0.0,0.0,0.0,0.0,0.0,0.0,0.0,0.0,0.0,0.0,0.0,0.0,0.0,0.0,0.0,0.0,0.0,0.0,0.0,0.0,0.0,0.0,0.0,0.0,0.0,0.0,0.0,0.0,0.0,0.0,0.0,0.0,0.0,0.0,0.0,0.0,0.0,0.0,0.0,0.0,0.0,0.0,0.0,0.0,0.0,0.0,0.0,0.0,0.0,0.0,0.0,0.0,0.0,0.0,0.0,0.0,0.0,0.0,0.0,0.0,0.0,0.0,0.0,0.0,0.0,0.0,0.0,0.0,0.0,0.0,0.0,0.0,0.0,0.0,0.0,0.0,0.0,0.0,0.0,0.0,0.0,0.0,0.0,0.0,0.0,0.0,0.0,0.0,6.1295,0.0,0.0,0.0,0.0,0.0,0.0,0.0,0.0,0.0,0.0,0.0,0.0,0.0,0.0,0.0,0.0,0.0,0.0,0.0,0.0,0.0,0.0,0.0,0.0,0.0,0.0,0.0,0.0,0.0,0.0,0.0,0.0,0.0,0.0,0.0,0.0,0.0,0.0,7.011,7.0881,7.1872,7.2995,7.2151,7.094,6.9449,0.0,0.0,0.0,0.0,0.0,0.0,0.0,0.0,0.0,0.0,0.0,0.0,0.0,0.0,0.0,0.0,0.0,0.0,0.0,0.0,0.0,0.0,0.0,0.0,0.0,0.0,0.0,0.0,0.0,0.0,0.0,0.0,0.0,0.0,0.0,0.0,0.0,0.0,0.0,0.0,0.0,0.0,0.0,0.0,0.0,0.0,0.0,0.0,0.0,0.0,0.0,0.0,0.0,0.0,0.0,0.0,0.0,0.0,0.0,0.0,0.0,0.0,0.0,0.0,0.0,0.0,0.0,0.0,0.0,0.0,0.0,6.2348,0.0,0.0,0.0,0.0,0.0,0.0,0.0,0.0,0.0,0.0,0.0,0.0,0.0,0.0,0.0,0.0,0.0,0.0,0.0,0.0,0.0,0.0,0.0,6.4306,6.5398,6.5692,6.7687,6.8972,0.0,0.0,0.0,0.0,0.0,0.0,7.055,7.1417,7.1527,7.0734,7.2642,7.4258,7.5527,7.5821,7.4551,7.1945,7.1101,0.0,0.0,0.0,0.0,0.0,0.0,0.0,0.0,0.0,0.0,0.0,0.0,0.0,0.0,0.0,0.0,0.0,0.0,0.0,0.0,0.0,0.0,0.0,0.0,0.0,0.0,0.0,0.0,0.0,0.0,0.0,0.0,0.0,0.0,0.0,0.0,0.0,0.0,0.0,0.0,0.0,0.0,0.0,0.0,0.0,0.0,0.0,0.0,0.0,0.0,0.0,0.0,0.0,0.0,0.0,0.0,0.0,0.0,0.0,0.0,0.0,0.0,0.0,7.2832,7.3548,7.3932,7.3932,7.4061,7.3993,6.8197,6.6051,6.6371,6.3848,0.0,0.0,0.0,0.0,0.0,0.0,0.0,0.0,0.0,0.0,0.0,0.0,0.0,0.0,0.0,0.0,0.0,0.0,0.0,0.0,0.0,6.4738,6.5852,6.726,6.8311,6.9192,6.9889,0.0,0.0,0.0,0.0,0.0,7.2202,7.3656,7.4037,7.3244,7.6276,7.7892,7.8148,7.9543,7.9984,7.9396,7.5102,7.3244,7.312,0.0,0.0,0.0,0.0,0.0,0.0,0.0,0.0,0.0,0.0,0.0,0.0,0.0,0.0,0.0,0.0,0.0,0.0,0.0,0.0,0.0,0.0,0.0,0.0,0.0,0.0,0.0,0.0,0.0,0.0,0.0,0.0,0.0,0.0,0.0,0.0,0.0,0.0,0.0,0.0,0.0,6.4855,6.4965,0.0,0.0,0.0,0.0,0.0,0.0,0.0,0.0,0.0,0.0,0.0,0.0,0.0,7.1669,7.3383,7.575,7.6658,7.6102,7.8401,7.8866,7.7617,7.7617,7.7988,7.856,7.628,0.0,6.9939,6.7432,0.0,0.0,0.0,0.0,0.0,0.0,0.0,0.0,0.0,0.0,0.0,0.0,0.0,0.0,0.0,0.0,0.0,0.0,0.0,0.0,0.0,6.6035,6.76,6.8311,7.2055,7.3523,7.1578,7.3472,0.0,0.0,0.0,7.3083,7.3156,7.3854,7.5175,7.7136,7.9029,8.0865,8.2627,8.292,8.3251,8.3581,8.0975,7.8295,7.5601,7.3523,0.0,0.0,0.0,0.0,0.0,0.0,0.0,0.0,0.0,0.0,0.0,0.0,0.0,0.0,0.0,0.0,0.0,0.0,0.0,0.0,0.0,0.0,0.0,0.0,0.0,0.0,0.0,0.0,0.0,0.0,0.0,0.0,0.0,0.0,0.0,0.0,0.0,0.0,0.0,6.5481,6.6513,6.5617,6.6305,6.622,0.0,0.0,0.0,0.0,0.0,0.0,0.0,0.0,0.0,7.4957,7.6625,7.8271,7.9902,8.1963,8.3069,8.3217,8.48,8.5409,8.5149,8.5149,8.5112,8.4926,8.3789,8.1457,7.8007,7.2227,6.8593,6.6396,0.0,0.0,0.0,0.0,6.3181,6.3625,0.0,0.0,0.0,0.0,0.0,0.0,0.0,0.0,0.0,0.0,0.0,0.0,6.5424,6.7944,7.0096,7.1578,7.5726,7.7084,7.4258,7.5542,7.5307,7.2899,7.301,7.3303,7.367,7.475,7.7063,8.0718,8.215,8.4168,8.6701,8.6518,8.6664,8.6995,8.5967,8.292,7.839,7.5983,7.3891,7.2041,0.0,0.0,0.0,0.0,0.0,0.0,0.0,0.0,0.0,0.0,0.0,0.0,0.0,0.0,0.0,0.0,0.0,0.0,0.0,0.0,0.0,0.0,0.0,0.0,0.0,0.0,0.0,0.0,0.0,0.0,0.0,0.0,0.0,0.0,0.0,0.0,0.0,6.7373,6.8596,6.6726,6.8746,6.9056,0.0,0.0,0.0,0.0,0.0,0.0,7.3485,7.5712,7.8179,8.0951,8.2846,8.4703,8.6561,8.8195,8.9198,8.9644,9.0276,9.0647,9.0796,9.0796,9.0387,8.957,8.8753,8.723,8.474,7.7065,7.2462,6.9965,6.7432,6.5989,6.531,6.5902,6.6531,6.7136,0.0,0.0,0.0,0.0,0.0,0.0,0.0,0.0,0.0,0.0,0.0,6.4591,6.9302,7.061,7.3377,7.8788,7.8112,7.7619,7.8259,7.5506,7.3832,7.3648,7.4368,7.4441,7.3707,7.7503,8.0718,8.3234,8.6334,8.8316,8.9253,9.0739,9.1033,9.0298,8.872,8.5747,8.1782,7.936,7.6937,7.45,7.2114,0.0,0.0,0.0,0.0,0.0,0.0,0.0,0.0,0.0,0.0,0.0,0.0,0.0,0.0,0.0,0.0,0.0,0.0,0.0,0.0,0.0,0.0,0.0,0.0,0.0,0.0,0.0,0.0,0.0,0.0,0.0,0.0,0.0,0.0,0.0,0.0,0.0,0.0,6.9605,7.335,0.0,0.0,0.0,0.0,7.257,7.4269,7.6005,7.7686,7.9469,8.1917,8.5186,8.7638,9.009,9.2542,9.4177,9.4622,9.3879,9.3917,9.3136,9.165,9.165,9.1205,9.0387,8.957,8.8716,8.7468,8.1545,7.7645,7.5193,7.2778,7.1279,7.0511,7.0548,7.0586,7.0623,0.0,0.0,0.0,0.0,0.0,0.0,0.0,0.0,5.993,6.0713,6.3356,6.6843,7.1174,7.5175,7.8993,8.259,8.4225,8.4335,8.259,7.991,7.7928,7.69,7.5102,7.5212,7.7577,8.0571,8.3801,8.7271,9.0005,9.2281,9.4116,9.4153,9.4299,9.4446,9.2831,9.0445,8.7252,8.1709,7.8614,7.7162,7.4081,7.1929,0.0,0.0,0.0,0.0,0.0,0.0,0.0,0.0,0.0,0.0,0.0,0.0,0.0,0.0,0.0,0.0,0.0,0.0,0.0,0.0,0.0,0.0,0.0,0.0,0.0,0.0,0.0,0.0,0.0,0.0,0.0,0.0,0.0,0.0,0.0,0.0,0.0,7.5856,7.9235,0.0,7.7019,7.6731,7.7297,7.8633,8.1273,8.3789,8.5979,8.9183,9.1948,9.4214,9.5663,9.7037,9.8449,9.8523,9.8152,9.7334,9.7334,9.6777,9.57,9.57,9.4957,9.3619,9.2802,9.1688,9.0164,8.7081,8.3752,8.0259,7.7287,7.6246,7.6307,7.5267,7.5564,7.6419,0.0,0.0,0.0,0.0,0.0,0.0,0.0,0.0,5.9269,6.0639,6.4383,6.8862,7.4001,7.9617,8.4225,8.7215,8.8886,8.8445,8.5233,8.1966,7.947,7.7818,7.646,7.743,8.0938,8.4168,8.7528,9.1051,9.3529,9.5547,9.7089,9.6832,9.6722,9.6649,9.5584,9.408,9.1986,8.6049,8.2316,8.0068,7.6749,7.4845,7.3681,0.0,0.0,0.0,0.0,0.0,0.0,0.0,0.0,0.0,0.0,0.0,0.0,0.0,0.0,0.0,0.0,0.0,0.0,0.0,0.0,0.0,0.0,0.0,0.0,0.0,0.0,0.0,0.0,0.0,0.0,0.0,0.0,0.0,0.0,7.725,8.0724,8.0984,8.5215,8.6932,8.3886,8.4109,8.5,8.6338,8.9013,9.139,9.3285,9.648,9.8895,10.0307,10.1384,10.2201,10.2721,10.2498,10.1793,10.0789,10.0789,10.0009,9.8709,9.8412,9.7372,9.5774,9.4957,9.3657,9.2059,9.0982,8.879,8.5743,8.2452,8.1151,8.104,7.9962,8.0074,8.0705,0.0,0.0,0.0,0.0,0.0,0.0,0.0,5.7997,5.8877,6.1263,6.5241,7.0601,7.7892,8.3765,8.8812,9.2868,9.1657,8.9307,8.6114,8.1305,7.7892,7.624,7.8568,8.1085,8.3564,8.8299,9.1987,9.4483,9.6888,9.8043,9.8063,9.8814,9.8337,9.6795,9.6795,9.6432,9.5626,9.2441,8.8213,8.3451,8.032,7.8961,7.8387,0.0,0.0,0.0,0.0,0.0,0.0,0.0,0.0,0.0,0.0,0.0,0.0,0.0,0.0,0.0,0.0,0.0,0.0,0.0,0.0,0.0,0.0,0.0,0.0,0.0,0.0,0.0,0.0,0.0,0.0,0.0,0.0,0.0,7.5031,8.1176,8.5558,8.4904,9.1205,9.4028,9.0053,9.2542,9.4771,9.5551,9.7186,9.8486,9.9266,10.0901,10.209,10.2907,10.4505,10.5322,10.5322,10.6102,10.5619,10.4022,10.3984,10.2721,10.0307,9.9489,9.8226,9.6591,9.5811,9.4548,9.3025,9.3025,9.2542,9.1428,8.8158,8.5966,8.4629,8.4518,8.396,8.3158,0.0,0.0,0.0,0.0,0.0,0.0,5.7997,5.7997,5.8877,6.1263,6.7173,7.3523,7.969,8.6958,9.2574,9.5474,9.3161,9.0629,8.8556,8.226,7.8405,7.7928,8.0791,8.4352,8.8519,9.2226,9.5621,9.8631,10.0503,10.1384,10.1384,10.098,10.0283,9.9292,9.8704,9.7696,9.6414,9.5644,9.3509,9.0289,8.6017,8.2501,7.9703,0.0,0.0,0.0,0.0,0.0,0.0,0.0,0.0,0.0,0.0,0.0,0.0,0.0,0.0,0.0,0.0,0.0,0.0,0.0,0.0,0.0,0.0,0.0,0.0,0.0,0.0,0.0,0.0,0.0,0.0,0.0,8.1271,8.3945,8.347,8.7771,9.1762,9.3917,9.752,9.9378,9.8263,9.8969,9.9824,10.0586,10.2183,10.3501,10.4393,10.5991,10.6994,10.7217,10.7625,10.7885,10.7885,10.7514,10.6511,10.4913,10.4282,10.3019,10.1106,10.0307,9.9081,9.752,9.7297,9.5923,9.3879,9.3879,9.3397,9.2356,8.9681,8.905,8.9384,8.7007,8.5632,8.4815,0.0,0.0,0.0,0.0,0.0,0.0,5.7997,5.7997,5.8988,6.1741,6.8752,7.5432,8.0461,8.8536,9.4042,9.5107,9.2831,8.9931,8.6611,8.1489,7.9029,8.0057,8.4168,8.839,9.2574,9.5841,9.8778,10.131,10.2595,10.3219,10.3182,10.2705,10.2322,10.1808,10.1117,10.0181,9.9301,9.8908,9.7691,9.5791,9.2897,8.8988,8.4764,8.3093,8.0948,7.8713,7.7345,7.6476,7.5768,7.4489,0.0,0.0,0.0,0.0,0.0,0.0,0.0,0.0,0.0,0.0,0.0,0.0,0.0,0.0,0.0,0.0,0.0,0.0,0.0,0.0,0.0,0.0,0.0,0.0,8.6598,9.0722,9.3136,9.4957,9.7037,9.9601,10.2387,10.4096,10.4096,10.469,10.5322,10.5805,10.6696,10.7514,10.7922,10.9223,10.9891,10.9891,11.0206,11.0206,10.9891,10.9389,10.822,10.6213,10.5675,10.4505,10.2498,10.1718,10.0604,9.9378,9.8709,9.7372,9.57,9.5365,9.4511,0.0,0.0,0.0,0.0,0.0,8.7824,8.7007,0.0,0.0,0.0,0.0,0.0,0.0,5.7997,5.7997,5.9171,6.2389,6.9619,7.6041,8.0131,8.8316,9.3308,9.2868,9.1033,8.7692,8.2406,8.0057,8.0094,8.2884,8.8243,9.2684,9.597,9.9181,10.1604,10.3293,10.399,10.4304,10.4288,10.4194,10.4084,10.3884,10.3389,10.3101,10.29,10.1887,10.0907,9.9834,9.9496,9.6266,9.1256,8.7641,8.5914,8.5025,8.2134,8.0044,7.8553,7.7766,0.0,0.0,0.0,0.0,0.0,0.0,0.0,0.0,0.0,0.0,0.0,0.0,0.0,0.0,0.0,0.0,0.0,0.0,0.0,0.0,0.0,0.0,0.0,0.0,9.2356,9.7074,10.2592,10.2183,10.1904,10.3186,10.6102,10.7922,10.7922,10.9278,11.0206,11.0206,11.03,11.0411,11.0411,0.0,0.0,0.0,0.0,11.2175,11.1395,11.1283,11.0095,10.7922,10.7606,10.6325,10.4096,10.3112,10.2183,10.131,9.9861,9.8672,9.7706,9.6926,9.5663,9.4102,9.3322,9.2468,9.1613,9.0907,9.0127,8.931,0.0,0.0,0.0,0.0,0.0,0.0,5.7997,5.7997,5.9171,6.2389,6.8187,7.3546,7.7582,8.4225,8.9106,9.0922,8.7839,8.4462,8.1415,8.0791,8.2774,8.7785,9.2189,9.6061,9.9292,10.2522,10.5018,10.6691,10.6801,10.6995,10.7089,10.6276,10.5305,10.4182,10.4075,10.369,10.3011,10.3181,10.2296,10.0889,10.0997,9.7602,9.2404,9.1775,8.904,8.5475,8.4844,8.3596,8.1999,8.0505,7.9888,7.9391,7.7473,7.6841,0.0,0.0,0.0,0.0,0.0,0.0,0.0,0.0,0.0,0.0,0.0,0.0,0.0,0.0,0.0,0.0,0.0,0.0,0.0,9.2171,9.7557,10.261,10.7105,10.7997,10.8108,10.768,10.8795,10.9575,10.9575,11.0523,11.1117,11.1117,11.1712,11.1989,11.1989,11.2175,11.2306,11.2306,11.2398,11.2398,11.2306,11.158,11.0689,10.9594,0.0,0.0,10.4913,10.339,10.1904,10.0492,10.0195,9.8858,9.6852,9.6666,9.5663,9.4102,9.3322,9.2468,9.1688,9.1539,9.0945,9.0164,0.0,0.0,0.0,0.0,0.0,0.0,0.0,5.7997,5.8877,6.1288,6.6219,7.0587,7.3399,7.8757,8.2463,8.3287,8.0755,7.914,7.9161,8.1436,8.5527,9.1583,9.5731,9.9402,10.2575,10.432,10.5899,10.7609,10.7715,10.8004,10.8477,10.8093,10.7492,10.6783,10.6478,10.6109,10.5586,10.5222,10.4299,10.3001,10.2797,10.0513,9.7027,9.6334,9.3471,8.983,8.9459,8.7452,8.4815,8.3552,8.2883,8.2251,8.0668,7.9888,7.9293,0.0,0.0,0.0,0.0,0.0,0.0,0.0,0.0,0.0,0.0,0.0,0.0,0.0,0.0,8.3069,8.4703,0.0,9.3954,9.8895,10.3093,10.69,11.0206,11.0986,11.0894,10.9575,11.0206,11.0709,11.0709,11.1395,11.1878,11.1878,11.2306,11.2509,11.2509,11.2509,11.2509,11.2509,11.2509,11.2509,11.2509,11.2101,11.1117,10.952,10.82,10.6622,10.4616,10.4077,10.2796,10.0901,10.0901,9.9749,9.7743,9.6517,9.5514,9.4697,9.3471,9.2728,9.2356,9.2356,9.2096,9.1576,0.0,0.0,0.0,0.0,0.0,0.0,0.0,5.7997,5.8584,6.0199,6.409,6.7444,6.9192,7.3142,7.5454,7.4992,7.4441,7.5322,7.806,8.27,8.828,9.4923,9.8924,10.2412,10.5311,10.5715,10.6596,10.8086,10.8219,10.8693,10.9287,10.9492,10.9485,10.9383,10.8695,10.8493,10.8392,10.7212,10.6193,10.5392,10.469,10.3501,10.1793,10.0381,9.7669,9.4548,9.3768,9.0573,8.6709,8.6041,8.5186,8.431,8.3641,8.3121,8.234,8.052,7.8959,0.0,0.0,0.0,0.0,0.0,0.0,0.0,0.0,8.1188,8.2117,8.3789,8.6561,8.957,9.2393,9.6406,10.0715,10.4987,10.7885,11.03,11.2212,11.2509,11.1989,11.0689,11.1098,11.1506,11.1506,11.2101,11.2509,11.2509,11.2509,11.2509,11.2509,11.2509,11.2509,11.2509,11.2509,11.2398,11.2306,11.2306,11.1098,10.8888,10.8703,10.7217,10.4505,10.4802,10.3687,10.1495,10.1012,10.0084,9.8672,9.6369,9.5403,9.5254,9.3619,9.2988,9.2988,9.2988,9.2988,9.2765,0.0,0.0,0.0,0.0,0.0,0.0,0.0,0.0,5.8584,6.0199,6.2132,6.4261,6.6623,6.8678,7.011,7.0734,7.3854,7.7488,8.1415,8.5527,9.1033,9.8264,10.1714,10.4394,10.6192,10.7697,10.8799,10.9679,10.9796,10.9905,11.0208,11.0,10.9723,10.9399,10.8607,10.8803,10.9481,10.8123,10.742,10.7216,10.6417,10.521,10.3613,10.2721,9.9824,9.622,9.544,9.1539,8.6784,8.6709,8.5669,8.4384,8.431,8.4666,8.474,8.2415,8.104,7.9999,7.855,7.8179,7.8885,8.1894,8.2192,8.3009,0.0,8.9198,8.9756,9.1428,9.3768,9.5848,9.7,10.1124,10.5006,10.6975,10.9983,11.2175,11.2509,11.2509,11.2398,11.2306,11.2286,11.2398,11.2398,11.2398,11.2509,11.2509,11.2509,11.2509,11.2509,11.2509,11.2509,11.2509,11.2509,11.2175,11.1395,11.1395,11.0597,10.8888,10.8089,10.7217,10.6102,10.469,10.3204,10.1421,9.9229,9.8189,9.7892,9.6146,9.5403,9.5254,9.3619,9.2988,9.2988,9.2988,9.2988,9.2839,0.0,0.0,0.0,0.0,0.0,0.0,0.0,0.0,0.0,5.8914,6.0003,6.1104,6.2132,6.327,6.4273,6.5081,6.9302,7.4037,7.9014,8.5326,9.1932,9.8814,10.2191,10.4908,10.7095,10.7792,10.8688,10.9995,10.9611,11.0012,11.1018,11.0103,10.9787,11.0006,10.8808,10.8487,10.9003,10.7895,10.7213,10.6789,10.6009,10.5025,10.3799,10.2015,9.8746,9.5031,9.3731,9.0462,0.0,8.4629,8.448,8.4926,8.3997,8.4257,8.4518,8.2563,8.0705,7.9182,7.8476,7.9702,8.1597,8.3455,8.5409,8.7824,9.1205,9.3025,9.466,9.6814,9.9563,10.2015,10.3316,10.6808,10.9798,11.0986,11.2789,11.4106,11.4589,11.3809,11.2695,11.1303,11.1506,11.1989,11.2492,11.2509,11.2509,11.2509,11.2509,11.2509,11.2509,11.2509,11.2509,11.2509,11.1989,11.1897,11.1989,11.1506,11.0689,10.9594,10.9203,10.8089,10.6399,10.5693,10.3984,10.1421,9.8932,9.7892,9.778,9.6071,9.5403,9.5254,9.3619,9.2988,9.2988,9.2988,9.2988,9.2876,0.0,0.0,0.0,0.0,0.0,0.0,0.0,0.0,0.0,0.0,5.851,5.8939,5.9196,5.971,6.037,6.119,6.5154,7.0073,7.5931,8.3491,9.0831,9.7787,10.1604,10.4687,10.7205,10.7902,10.8688,10.9701,10.9506,10.9791,11.069,10.9703,10.9587,11.0092,10.8788,10.8413,10.8798,10.7782,10.7101,10.6696,10.5916,10.4597,10.3019,10.0307,9.6591,9.2691,9.1465,8.8344,8.4443,8.2117,8.2489,8.3775,8.3083,8.3566,8.4087,8.2489,8.0259,7.8439,7.9145,8.1374,8.4012,8.5929,8.931,9.2802,9.5143,9.7557,9.9935,10.2201,10.469,10.6994,10.8405,11.0689,11.2806,11.3718,11.4498,11.5109,11.5501,11.4106,11.2195,10.9706,10.95,10.9909,11.0689,11.158,11.2306,11.2509,11.2509,11.2509,11.2509,11.2509,11.2509,11.2509,11.1878,11.1803,11.2175,11.1803,11.0986,10.9817,11.0003,10.8906,10.6696,10.6009,10.4096,10.1087,9.9081,9.8115,9.778,9.6071,9.5403,9.5254,9.3619,9.2988,9.2988,9.2988,9.2988,9.2914,0.0,0.0,0.0,0.0,0.0,0.0,0.0,0.0,0.0,0.0,0.0,0.0,0.0,5.9221,5.9563,6.0382,6.2768,6.6966,7.3377,7.9947,8.7178,9.5273,10.0209,10.3917,10.6397,10.8688,10.9591,10.8799,10.9591,10.9591,10.8894,10.882,10.8891,10.9087,10.8484,10.8819,10.9707,10.8198,10.7606,10.7514,10.6696,10.4375,10.1198,9.7966,9.3694,8.9421,8.9384,8.5223,7.9702,7.9628,7.9628,7.9962,8.156,8.3121,8.4087,8.2489,8.0259,7.881,8.1226,8.3121,8.5521,9.0276,9.3954,9.7483,10.1495,10.43,10.6622,10.8294,10.9278,11.0206,11.0986,11.1878,11.2806,11.3718,11.4498,11.4701,11.4015,11.2398,11.0523,10.7997,10.6325,10.5693,0.0,10.952,11.1712,11.2398,11.2509,11.2509,11.2509,11.2509,11.2509,11.2509,11.2509,11.2101,11.1283,11.2101,11.1303,10.8906,10.9686,10.9223,10.7514,10.5099,10.2721,10.0307,9.9415,9.8635,9.778,9.6071,9.5403,9.5254,9.3619,9.2988,9.2988,9.2988,9.2988,9.2988,0.0,0.0,0.0,0.0,0.0,0.0,0.0,0.0,0.0,0.0,0.0,0.0,0.0,0.0,0.0,0.0,6.2365,6.5925,7.022,7.7598,8.3985,8.8848,9.474,9.9071,10.1494,10.3917,10.5311,10.5495,10.5789,10.6082,10.6302,10.4687,10.4922,10.671,10.5298,10.5686,10.7279,10.6208,10.5599,10.5006,10.3093,10.1087,9.8635,9.4214,8.983,8.5669,0.0,7.9888,7.6804,7.5206,7.5726,7.7138,7.7733,7.9033,8.0148,7.907,7.9702,8.13,8.3752,8.7192,9.1279,9.6183,9.9043,10.17,10.5916,10.7514,10.8405,10.952,10.8591,10.768,10.7997,10.8683,10.95,11.0411,11.3086,11.4886,11.4589,11.4106,11.1803,10.6603,10.6511,0.0,0.0,0.0,0.0,11.1526,11.1209,11.1415,11.2398,11.2509,11.2509,11.2509,11.1989,11.1803,11.2101,11.1283,11.0523,10.9706,10.8294,10.7105,10.5897,10.4022,10.209,10.0307,9.9452,9.8635,9.778,9.6071,9.5403,9.5254,9.3619,9.2988,9.2988,9.2988,9.2988,9.2988,0.0,0.0,0.0,0.0,0.0,0.0,0.0,0.0,0.0,0.0,0.0,0.0,0.0,0.0,0.0,0.0,0.0,6.387,6.738,7.3303,7.8369,8.215,8.7729,9.173,9.3896,9.6282,9.7787,9.83,9.8851,9.9548,10.0299,9.9071,9.9737,10.1878,10.0909,10.1491,10.3295,10.2593,10.1907,10.1087,9.8338,9.5886,9.3397,8.8455,8.422,0.0,7.6902,7.4598,7.3075,7.2419,7.3423,7.4983,7.528,7.6321,7.7547,7.8179,8.052,8.3641,8.7267,9.1836,9.6666,10.1012,10.3724,10.6083,10.9111,10.9817,10.9706,10.9297,10.6975,10.5025,10.469,10.391,10.4096,10.6696,10.9111,11.1209,11.2992,11.2695,11.0709,10.6213,10.6009,10.5099,0.0,0.0,0.0,10.9686,11.0114,11.0709,11.1989,11.2286,11.2509,11.2509,11.1989,11.1989,11.2509,11.1526,11.0709,11.0114,10.7291,10.5489,10.469,10.3,10.1421,9.9861,9.9303,9.8486,9.7334,9.596,9.5217,9.4845,9.3508,9.2988,9.2988,9.2988,9.2988,9.2988,0.0,0.0,0.0,0.0,0.0,0.0,0.0,0.0,0.0,0.0,0.0,0.0,0.0,0.0,0.0,0.0,0.0,0.0,6.4811,6.7417,7.0881,7.5469,7.9617,8.2553,8.4132,8.6518,8.7766,8.7766,8.9344,9.0519,9.1253,9.206,9.3272,9.4832,9.5019,9.6142,9.7802,9.7206,9.6585,9.57,9.2505,8.9273,8.5892,8.1137,7.7324,7.424,7.1762,6.9868,6.8865,7.1267,7.2679,7.3608,7.4463,7.5318,7.6655,7.9948,8.2771,8.6041,9.1799,9.6926,10.1421,10.469,10.7885,11.03,11.1192,11.1209,11.028,10.7792,10.4597,10.2015,10.0994,9.7855,9.7186,10.2907,10.339,10.4802,10.9706,10.898,10.7606,10.6603,10.5192,10.4189,10.4022,0.0,10.4189,10.7402,10.9111,11.0411,11.1283,11.2101,11.2509,11.2509,11.2509,11.2509,11.2509,11.2398,11.16,10.9909,10.6696,10.469,10.391,10.2201,10.0604,9.9118,9.9118,9.8152,9.6554,9.5737,9.492,9.4102,9.3322,9.2988,9.2988,9.2988,9.2988,9.2988,0.0,0.0,0.0,0.0,0.0,0.0,0.0,0.0,0.0,0.0,0.0,0.0,0.0,0.0,0.0,0.0,0.0,0.0,6.1618,6.5632,6.8582,6.9793,7.4294,7.7231,7.8259,8.0697,8.1946,8.1946,8.2957,8.3544,8.3765,8.3361,8.4121,8.5799,8.5865,8.6947,8.8725,8.8588,8.8107,8.7341,8.5298,8.3232,8.104,7.7919,7.5466,7.346,7.1576,6.9868,6.8679,6.9905,7.2109,7.4537,7.5986,7.7435,7.933,8.3217,8.6969,9.1093,9.6889,10.1607,10.5805,10.9706,11.0411,11.0523,11.1897,10.9798,10.6808,10.3724,9.9489,9.5551,9.2914,9.3545,9.5997,10.0492,10.521,10.952,11.3178,11.3205,11.1718,10.8609,10.7714,10.6488,10.4189,10.4913,10.6102,10.7514,10.7978,10.9389,11.212,11.2398,11.2509,11.2509,11.2509,11.2509,11.2509,11.1283,10.9891,10.82,10.5619,10.391,10.3019,10.1292,10.0084,9.9118,9.9118,9.8152,9.6554,9.5737,9.492,9.4102,9.3322,9.2988,9.2988,9.2988,9.2988,9.2988,0.0,0.0,0.0,0.0,0.0,0.0,0.0,0.0,0.0,0.0,0.0,0.0,0.0,0.0,0.0,0.0,0.0,0.0,0.0,6.3686,6.5167,6.5521,6.8495,7.0367,7.0807,7.2532,7.3964,7.5028,7.5102,7.5873,7.7268,7.646,7.6998,7.8627,7.8627,7.9701,8.142,8.1088,8.0985,0.0,0.0,7.7083,7.6024,7.3521,7.2035,7.1143,7.0165,6.9719,6.9831,7.1738,7.4338,7.7175,7.9553,8.1411,8.3589,8.8047,9.2022,9.6108,10.1495,10.5991,10.9686,11.2398,11.2101,11.08,10.9594,10.6696,10.261,9.6814,9.2579,8.8997,8.6001,8.7607,9.104,9.6134,10.1888,10.7286,11.1997,11.2778,11.2403,11.1013,11.071,10.9801,10.7805,10.8199,10.8793,10.9606,10.8996,10.9706,11.1897,11.2286,11.2509,11.2509,11.2509,11.2509,11.2509,11.0597,10.9111,10.8089,10.4616,10.2592,10.209,10.0121,9.9006,9.856,0.0,9.7632,9.6071,9.596,9.5031,9.3657,9.3582,9.3322,9.2988,9.2988,9.2988,9.2988,0.0,0.0,0.0,0.0,0.0,0.0,0.0,0.0,0.0,0.0,0.0,0.0,0.0,0.0,0.0,0.0,0.0,0.0,0.0,0.0,6.2071,6.2756,6.3503,6.3906,6.3906,6.4604,6.5985,6.8077,6.7393,6.8458,7.1211,7.0499,7.0903,7.2239,7.2349,7.3309,7.4755,7.4165,7.4542,7.5324,7.2484,7.1474,7.1465,0.0,6.8493,6.8493,6.8493,6.9459,7.1316,7.5044,7.803,8.0728,8.4146,8.6524,8.905,9.3917,9.7446,10.0789,10.5675,10.9686,11.2695,11.3698,11.3012,11.08,10.6102,10.2498,9.78,8.9331,8.5416,8.2809,8.0437,8.1696,8.5318,9.21,9.7185,10.2703,10.9498,11.0795,11.1694,11.3493,11.3588,11.3218,11.2514,11.19,11.1792,11.2313,11.1104,11.0724,11.1395,11.2101,11.2509,11.2509,11.2398,11.2286,11.2286,10.9909,10.8591,10.8405,10.3724,10.1421,10.1124,9.8895,9.7892,9.7892,9.7892,9.7,9.5626,9.6294,9.5254,9.3211,9.3917,9.3694,9.2988,9.2988,9.2988,9.2988,0.0,0.0,0.0,0.0,0.0,0.0,0.0,0.0,0.0,0.0,5.851,0.0,0.0,0.0,0.0,0.0,0.0,0.0,0.0,0.0,0.0,6.2793,6.2939,6.3013,6.3013,6.316,6.3453,6.3857,6.371,6.393,6.4481,6.4334,6.4407,6.4701,6.5448,6.598,6.6415,6.6955,6.7746,6.8577,6.8136,6.8371,6.8939,6.8643,0.0,0.0,6.8493,6.9125,7.0834,7.6827,8.0965,8.422,8.8195,9.1948,9.5737,9.9972,10.209,10.4207,10.9092,11.1489,11.2881,11.4403,11.2101,10.8591,10.5025,9.8598,9.1766,8.6035,8.1852,7.8792,7.7524,8.0296,8.5625,9.4348,9.9168,10.4789,11.3498,11.4091,11.4,11.4982,11.4502,11.4096,11.3911,11.3193,11.2808,11.2913,11.2105,11.1811,11.2323,11.2398,11.2509,11.2509,11.1897,11.1506,11.1506,10.9111,10.7217,10.5805,10.2907,10.0789,9.9489,9.8375,9.7892,9.7892,9.7892,0.0,9.6406,9.6554,9.5588,9.3991,9.414,9.3694,9.2988,9.2988,9.2988,9.2988,0.0,0.0,0.0,0.0,0.0,0.0,0.0,0.0,0.0,0.0,6.0382,5.9832,0.0,0.0,0.0,0.0,0.0,0.0,0.0,0.0,0.0,6.2793,6.2793,6.2793,6.2793,6.2793,6.3233,6.4114,0.0,6.3233,6.4077,6.3196,6.2793,6.2829,6.3246,6.3467,6.3529,6.3921,6.4892,6.6172,6.6235,6.7036,6.8221,0.0,0.0,0.0,6.8493,6.9274,7.1019,7.5453,8.0557,8.6041,9.1836,9.6183,9.9861,10.3483,10.5508,10.7402,11.1526,11.3495,11.4589,11.5406,11.1897,10.6696,10.0901,9.4073,8.7052,7.9933,7.7194,7.5638,7.4213,7.8404,8.3925,8.9522,9.411,10.0108,10.9215,10.9914,11.1098,11.5481,11.5592,11.5614,11.6019,11.4594,11.3693,11.349,11.2897,11.2401,11.2222,11.2185,11.2185,11.2185,11.1407,11.1,11.1,10.8172,10.6377,10.5598,10.2407,10.0492,9.9675,9.8449,9.7892,9.7892,9.7892,9.7409,9.6611,9.6971,9.6209,9.4791,9.4707,9.4241,9.3582,9.3136,9.2988,9.2988,0.0,0.0,0.0,0.0,0.0,0.0,0.0,6.015,6.0737,6.2793,6.2695,6.1704,5.9893,5.9563,0.0,0.0,0.0,0.0,0.0,0.0,0.0,0.0,0.0,0.0,6.2793,0.0,0.0,6.4774,6.3453,0.0,0.0,0.0,0.0,0.0,6.2793,6.2793,6.2793,6.3013,6.3994,0.0,0.0,6.6688,0.0,0.0,0.0,0.0,0.0,6.9311,7.0834,7.3632,7.8699,8.4963,9.1836,9.7446,10.2015,10.4616,10.7217,10.9798,11.3012,11.5018,11.6207,11.6001,11.1209,10.4486,9.6854,8.9739,8.2608,7.4931,7.3503,7.3268,7.218,7.6553,8.1363,8.4419,8.85,9.454,10.371,10.5388,10.8303,11.52,11.6298,11.6703,11.7393,11.5599,11.4294,11.4096,11.3477,11.2912,11.2206,11.2206,11.1985,11.1615,11.0803,11.0286,11.0195,10.7292,10.5723,10.5501,10.2222,10.0492,10.0177,9.8785,9.8099,9.8099,9.7861,9.7361,9.6787,9.7332,9.6757,9.5526,9.5351,9.4793,9.3985,9.3404,9.3087,9.2938,0.0,0.0,0.0,0.0,0.0,0.0,0.0,6.1582,6.2829,6.3833,6.4567,6.4053,6.163,6.075,0.0,0.0,0.0,0.0,0.0,0.0,0.0,0.0,0.0,0.0,0.0,0.0,0.0,6.3013,6.2866,0.0,0.0,0.0,0.0,0.0,0.0,6.2793,6.2866,6.3649,0.0,0.0,0.0,0.0,0.0,0.0,0.0,0.0,0.0,6.8605,6.9311,7.3261,7.6061,7.8773,8.3886,9.2876,10.1607,10.1904,10.5805,11.0503,11.3123,11.5018,11.6001,11.5295,10.9111,10.1608,9.5509,8.6227,7.7934,7.4605,7.2774,7.2092,7.3273,7.522,7.8404,8.4002,8.6946,9.2022,10.1886,10.581,10.9497,11.4409,11.578,11.6598,11.7214,11.5709,11.468,11.4694,11.4005,11.3397,11.2976,11.2998,11.2317,11.0803,10.9896,10.9215,10.8422,10.6218,10.4612,10.3797,10.2222,10.1012,10.0307,9.9218,9.8721,9.8684,9.7763,9.7302,0.0,9.7284,9.6767,9.5954,9.5899,9.4976,9.3681,9.378,9.3367,9.2734,0.0,0.0,0.0,0.0,0.0,0.0,0.0,6.0921,6.2034,6.3882,6.4787,6.4751,6.3258,6.2365,6.0823,0.0,0.0,0.0,0.0,0.0,0.0,0.0,0.0,0.0,0.0,0.0,6.2793,6.2793,6.2793,0.0,0.0,0.0,0.0,0.0,0.0,6.2793,6.2866,6.3723,0.0,0.0,0.0,0.0,0.0,0.0,0.0,0.0,0.0,0.0,6.8753,7.0388,7.2615,7.4913,7.5946,8.269,9.1437,9.7542,10.2313,10.6677,11.1712,11.4609,11.5889,11.4609,10.7697,9.9626,9.3806,8.4494,7.6337,7.3746,7.2234,7.1708,7.2767,7.3891,7.5719,7.9044,7.9937,8.3284,9.2151,9.4522,9.9078,10.9297,11.1309,11.3426,11.7498,11.6911,11.6007,11.5589,11.4782,11.4101,11.3397,11.2882,11.2205,11.1005,10.9681,10.8709,10.7789,10.56,10.4317,10.3892,10.1998,10.0981,10.0611,9.976,9.9058,9.8595,9.8208,9.7765,0.0,9.7156,9.699,9.6731,9.6196,9.5676,9.5189,9.4918,9.4579,9.4262,0.0,0.0,0.0,0.0,0.0,0.0,6.0162,6.0811,6.1851,6.3846,6.4787,6.5068,6.453,6.3062,6.1251,5.9245,0.0,0.0,0.0,0.0,0.0,0.0,0.0,0.0,0.0,0.0,6.2572,6.2793,6.2793,6.2793,0.0,0.0,6.2793,6.2793,0.0,0.0,0.0,0.0,0.0,0.0,0.0,0.0,0.0,0.0,0.0,0.0,0.0,0.0,0.0,0.0,0.0,7.1608,7.0796,7.4509,8.1044,9.0715,9.7337,10.2685,10.8086,11.2098,11.4309,11.2591,10.5485,9.7535,9.1912,8.3049,7.5389,7.3108,7.2112,7.1821,7.2422,7.3156,7.4147,7.5542,7.5674,7.828,8.5913,8.7601,9.2207,10.3423,10.5385,10.8505,11.4892,11.6617,11.7021,11.6397,11.5406,11.4598,11.3974,11.2983,11.1808,11.0524,10.9386,10.8175,10.6911,10.5098,10.4095,10.3801,10.2081,10.1292,10.1218,10.009,9.9296,9.8743,9.8207,9.7672,0.0,9.697,9.6989,9.7082,9.6511,9.6251,9.6116,9.5788,9.5503,9.5261,0.0,0.0,0.0,0.0,0.0,0.0,0.0,6.1765,6.3086,6.3992,6.4787,6.5288,6.5288,6.2389,6.075,6.1496,0.0,0.0,0.0,0.0,0.0,0.0,0.0,0.0,0.0,0.0,6.1998,6.2793,6.2793,6.2793,6.2793,6.2793,6.2793,6.2793,0.0,0.0,0.0,0.0,0.0,0.0,0.0,0.0,0.0,0.0,0.0,0.0,0.0,0.0,0.0,0.0,0.0,0.0,0.0,7.0137,7.2287,8.0842,9.0752,9.9461,10.1889,10.6785,11.0907,10.8803,10.2313,9.5057,8.9833,8.1681,7.4719,7.2892,7.2496,7.2496,7.2496,7.3156,7.3964,7.4793,7.6225,7.9564,8.606,8.905,9.2427,9.7419,9.8704,10.1788,10.8285,11.3901,11.7181,11.7181,11.5699,0.0,11.4818,11.3313,11.1295,10.8909,10.8799,10.7587,10.5201,10.4489,10.3801,10.2991,10.2376,10.2104,10.1993,10.0215,9.9382,9.9309,9.7516,9.6685,0.0,9.6685,9.6685,9.6705,9.6932,9.6492,9.5829,9.619,9.5813,9.5126,0.0,0.0,0.0,0.0,0.0,0.0,0.0,5.9673,6.0627,6.1447,6.2254,6.2989,6.3527,6.1692,6.0493,6.075,0.0,0.0,0.0,0.0,0.0,0.0,0.0,0.0,0.0,0.0,6.2536,6.2793,6.2793,6.2793,6.2793,6.2793,6.2793,6.2793,6.2793,6.2793,0.0,0.0,0.0,0.0,0.0,0.0,6.4438,0.0,0.0,0.0,0.0,0.0,0.0,0.0,0.0,0.0,0.0,0.0,0.0,7.5194,8.2162,8.9621,9.3711,9.7428,9.9871,9.8577,9.3811,8.8535,8.5193,7.9121,7.3853,7.2716,7.2041,7.1857,7.2422,7.2716,7.367,7.6151,7.6959,7.861,8.2353,8.6407,9.1583,9.8704,10.7587,11.3681,11.5185,11.6507,11.7181,11.7181,11.5699,11.4598,11.3974,11.2983,11.1515,10.9679,10.9092,10.7587,10.5107,10.4897,10.4109,10.2807,10.1985,10.14,10.0811,9.9703,9.8875,9.8324,9.7789,9.7199,9.6685,9.6685,9.6685,9.6705,9.6914,9.686,9.6676,9.7041,9.7035,9.6757,0.0,0.0,0.0,0.0,0.0,0.0,0.0,5.8682,5.938,5.9893,6.0382,6.1227,6.2646,6.0811,5.9869,6.0786,0.0,0.0,0.0,0.0,0.0,0.0,0.0,0.0,6.2034,6.2254,6.2499,6.2793,6.3417,6.3417,6.2793,6.3453,6.3417,6.2793,6.2793,6.2793,0.0,0.0,0.0,0.0,0.0,0.0,6.3958,0.0,0.0,0.0,0.0,0.0,0.0,0.0,0.0,0.0,0.0,0.0,0.0,0.0,7.5873,8.089,8.6414,9.0264,9.2442,9.1437,8.7975,8.4129,8.1602,7.7227,7.345,7.2679,7.2078,7.1894,7.2422,7.2261,7.2885,7.5527,7.5931,7.7105,8.0534,8.4903,9.0629,9.8447,10.871,11.5025,11.4782,11.5993,11.6727,11.6727,11.5002,11.3681,11.3226,11.2396,11.1184,10.9606,10.9092,10.7587,10.5107,10.4798,10.3806,10.2191,10.1384,10.0613,9.9805,9.8998,9.8374,9.7879,9.7566,9.7163,0.0,9.6685,9.6685,9.6705,9.6914,9.7007,9.7045,9.7358,9.7484,9.7428,0.0,0.0,0.0,0.0,0.0,0.0,0.0,0.0,0.0,0.0,5.9123,5.9967,6.2205,5.9795,5.8914,0.0,0.0,0.0,0.0,0.0,0.0,0.0,0.0,0.0,6.2572,6.1998,6.2034,6.2793,6.4407,6.4407,6.2939,6.4554,6.4444,6.2903,6.2903,6.2866,6.2866,0.0,0.0,0.0,6.4029,6.3689,0.0,0.0,0.0,0.0,0.0,0.0,0.0,0.0,0.0,0.0,0.0,0.0,0.0,0.0,0.0,0.0,0.0,8.4726,8.7538,8.6363,8.395,8.1266,7.8893,7.5983,0.0,7.2826,7.2642,7.2606,7.2679,7.1967,7.1931,7.367,7.3964,7.5579,8.0277,8.4849,9.0445,9.7659,10.4194,10.8416,10.8799,11.3093,11.5883,11.581,11.3681,11.2396,11.2396,11.1625,11.0487,10.8909,10.8799,10.7587,10.4997,10.432,10.3109,10.1404,10.0706,9.9842,9.8998,9.819,9.7787,0.0,9.7016,9.6685,9.6685,9.6685,9.6685,9.6631,9.6858,9.6952,9.6934,9.7193,9.7266,9.7303,0.0,0.0,0.0,0.0,0.0,0.0,0.0,0.0,0.0,0.0,0.0,5.851,5.9061,5.8437,0.0,0.0,0.0,0.0,0.0,0.0,0.0,0.0,0.0,0.0,6.0958,6.1985,6.2609,6.2793,6.387,6.4163,6.3796,6.4824,6.4751,6.3796,6.3796,6.3429,6.2793,6.3013,0.0,0.0,6.3086,6.3076,0.0,0.0,0.0,0.0,6.5262,6.611,0.0,0.0,0.0,0.0,0.0,0.0,0.0,0.0,7.2363,7.2973,7.5161,0.0,7.7221,7.6894,7.6285,7.5749,0.0,7.516,7.4551,7.4353,7.3854,7.3597,7.4206,7.3179,7.3142,7.6004,7.6445,7.7289,7.9727,8.8867,9.7566,10.3717,11.0083,11.2873,10.9973,11.2983,11.4818,11.4217,11.3116,11.2396,11.2396,11.1625,11.0487,10.8909,10.8799,10.7294,10.421,10.4614,10.3403,10.0576,10.0393,9.9548,9.8154,9.7346,9.6979,9.6979,9.6795,9.6685,9.6685,9.6685,9.6355,9.5841,9.6522,9.6395,9.5936,9.6768,9.7063,9.7101,0.0,0.0,0.0,0.0,0.0,0.0,0.0,0.0,0.0,0.0,0.0,0.0,0.0,0.0,0.0,0.0,0.0,0.0,0.0,0.0,0.0,0.0,0.0,6.0003,6.037,6.163,6.2254,6.2254,6.387,6.4457,6.4139,6.4934,6.4861,6.4066,6.3686,6.3233,6.2793,6.2793,6.2793,6.2793,6.2793,0.0,0.0,0.0,0.0,0.0,6.5014,6.5713,0.0,6.8696,6.9798,7.0404,0.0,0.0,0.0,0.0,7.2496,7.2679,7.3487,7.3413,7.323,7.3597,7.3722,7.3817,7.4258,7.461,7.4793,7.4441,7.4001,7.3707,7.378,7.2775,7.2738,7.5249,7.5968,7.8206,8.3948,9.1693,9.9328,10.6082,11.0399,11.2396,11.1721,11.291,11.3497,11.3116,11.2286,11.1808,11.1808,11.1111,11.0083,10.8799,10.8101,10.6706,10.4504,10.421,10.2815,10.0283,9.9548,9.8557,9.7309,9.6906,9.6685,9.6685,9.6685,9.6685,9.6685,9.6318,9.5914,9.5528,9.5988,9.5859,9.5621,9.6525,9.6857,9.6895,0.0,0.0,0.0,0.0,0.0,0.0,0.0,0.0,0.0,0.0,0.0,0.0,0.0,0.0,0.0,0.0,0.0,0.0,0.0,0.0,0.0,0.0,5.9123,5.96,6.0382,6.119,6.1667,6.1777,6.4383,6.5338,6.469,6.5742,6.5595,6.4433,6.3563,6.305,6.2793,6.2793,6.2793,6.2793,6.2793,0.0,0.0,0.0,0.0,0.0,0.0,0.0,0.0,6.8862,6.9926,7.0183,7.1651,0.0,0.0,0.0,0.0,0.0,7.3634,7.3303,7.2863,7.3538,7.3722,7.3722,7.3722,7.4404,7.483,7.4037,7.3891,7.367,7.301,7.2298,7.2371,7.4001,7.5469,7.9968,9.0262,9.4317,9.8998,10.6507,10.8526,11.0083,11.2492,11.2396,11.2212,11.2212,11.1588,11.1089,11.1001,11.0377,10.9496,10.8505,10.711,10.5789,10.4614,10.3219,10.1714,10.0099,9.8594,9.7456,9.6685,9.6685,9.6685,9.6685,0.0,0.0,9.6465,9.5804,9.5345,9.5161,9.5382,9.5418,9.5437,9.6355,9.6685,9.6724,0.0,0.0,0.0,0.0,0.0,0.0,0.0,0.0,0.0,0.0,0.0,0.0,0.0,0.0,0.0,0.0,0.0,0.0,0.0,0.0,0.0,5.818,5.8829,5.96,6.0382,6.119,6.1924,6.2609,6.5778,6.726,6.7187,6.9362,6.8848,6.6109,6.5301,6.4114,6.2793,6.2793,6.2793,6.2793,6.2793,0.0,0.0,0.0,0.0,0.0,0.0,0.0,0.0,6.8238,6.9082,6.9265,7.0183,0.0,0.0,0.0,0.0,0.0,7.4316,7.4147,7.356,7.3685,7.3722,7.3722,7.3722,7.4845,7.5689,7.4867,7.472,7.4683,7.4536,7.4426,7.4867,7.6481,8.0335,8.6297,9.5474,9.8374,10.131,10.6009,10.9092,11.0193,10.871,11.0304,11.1405,11.1405,11.1295,11.0891,11.0193,11.0105,10.8982,10.678,10.6486,10.4981,10.2081,10.1808,10.0907,9.9292,9.8337,9.7456,9.6685,9.6685,9.6685,9.6685,0.0,9.6318,9.5675,9.5528,9.4684,9.3602,9.4978,9.507,9.4666,9.6135,9.6685,9.6724,0.0,0.0,0.0,0.0,0.0,0.0,0.0,0.0,0.0,0.0,0.0,0.0,0.0,0.0,0.0,0.0,0.0,0.0,0.0,0.0,5.818,5.8609,5.9013,5.938,5.9747,6.1851,6.3356,6.415,6.699,6.8788,6.9633,6.9449,6.8091,6.5815,6.4517,6.3527,6.2793,6.2793,6.2793,6.2793,0.0,0.0,0.0,0.0,0.0,0.0,0.0,0.0,0.0,0.0,6.8531,6.9032,6.9853,0.0,0.0,0.0,0.0,0.0,7.3927,7.367,7.3266,7.4147,7.4368,7.4221,7.378,7.4625,7.5344,7.4977,7.4903,7.4903,7.4903,7.6019,7.8295,8.25,8.6591,9.1216,9.7089,9.8924,10.131,10.592,10.7697,10.8909,10.9496,11.0524,11.1221,11.1221,11.1221,11.0817,11.001,10.9606,10.8211,10.5789,10.4908,10.3293,10.0927,10.0009,9.9181,9.8447,9.764,9.7052,9.6685,9.6685,9.6465,9.6061,0.0,9.5621,9.485,9.485,9.441,9.3859,9.5034,9.5272,9.5107,9.6282,9.6685,9.6724,0.0,0.0,0.0,0.0,0.0,0.0,0.0,0.0,0.0,0.0,0.0,0.0,0.0,0.0,0.0,0.0,0.0,0.0,0.0,5.818,5.8547,5.9159,5.9563,5.9857,6.004,6.2695,6.4677,6.5852,6.8458,7.0646,7.2371,6.9963,6.7871,6.6059,6.4224,6.316,6.2793,6.2793,6.2793,6.2793,0.0,0.0,0.0,0.0,0.0,0.0,0.0,0.0,0.0,0.0,0.0,0.0,0.0,0.0,0.0,7.1233,7.1747,7.2386,7.3193,7.2973,7.2863,7.4258,7.4757,7.4903,7.4845,7.5616,7.6371,7.6555,7.6592,7.6445,7.5858,7.8075,8.2003,8.8059,9.2281,9.5988,9.9421,10.0723,10.2889,10.7,10.7514,10.8505,11.1001,11.1001,11.0891,11.0891,11.0597,11.001,10.9224,10.8395,10.6816,10.43,10.3109,10.1604,9.9769,9.8337,9.7713,9.7897,9.7089,9.6685,9.6685,9.6502,9.6098,9.5492,9.5308,9.4777,9.4042,9.4226,9.4189,9.4116,9.5107,9.5602,9.5859,9.6465,9.6685,9.6705,0.0,0.0,0.0,0.0,0.0,0.0,0.0,0.0,0.0,0.0,0.0,0.0,0.0,0.0,0.0,0.0,0.0,0.0,0.0,5.8682,5.9159,5.9196,6.0639,6.1777,6.2536,6.3576,6.5241,6.7517,7.0697,7.345,7.5689,7.3266,7.0917,6.8518,6.6169,6.4261,6.2793,6.2793,6.2793,6.2793,6.2793,0.0,0.0,0.0,0.0,0.0,0.0,0.0,0.0,0.0,0.0,0.0,0.0,0.0,7.033,7.1087,7.1344,7.1564,7.2386,7.2532,7.2716,7.356,7.4368,7.5491,7.7745,7.9433,8.0791,8.1525,8.1672,8.0975,7.8736,8.1525,8.5783,9.0739,9.6171,10.12,10.5201,10.711,10.8799,11.0575,11.0891,11.0905,11.1221,11.0487,11.0083,11.0083,10.871,10.7498,10.6706,10.5825,10.432,10.1788,10.1604,10.0486,9.81,9.7199,9.7163,9.7897,9.7089,9.6685,9.6685,9.5951,9.5528,9.5455,9.4703,9.3932,9.3235,9.3969,9.3859,9.3345,9.4868,9.5951,9.6612,9.6685,9.6685,9.6685,0.0,0.0,0.0,0.0,0.0,0.0,0.0,0.0,0.0,0.0,0.0,0.0,0.0,0.0,0.0,0.0,0.0,0.0,0.0,5.829,5.8902,5.9893,6.0529,6.1704,6.3576,6.5888,6.8274,7.0697,7.3413,7.4441,7.3817,7.1394,6.8958,6.6573,6.4628,6.3673,6.3576,6.3013,6.3123,6.3576,6.3013,6.2793,0.0,0.0,0.0,0.0,0.0,0.0,0.0,0.0,6.6269,6.7333,6.7724,6.9229,7.072,7.0022,7.0536,7.127,7.1064,7.1725,7.2679,7.3487,7.4661,7.6313,7.8772,8.0204,8.1525,8.3324,8.4499,8.4903,8.3985,8.6701,9.0335,9.4226,9.9181,10.3806,10.7404,10.8799,10.9973,11.1111,11.0781,11.0487,11.0487,10.9679,10.9276,10.9276,10.8175,10.7205,10.6413,10.5605,10.3806,10.0796,10.0816,9.9585,9.7163,9.6355,9.6098,9.6392,9.6098,9.5951,9.5932,9.5639,9.5254,9.4703,9.3896,9.3088,9.2391,9.3749,9.4116,9.4006,9.5621,9.6428,9.6685,9.6685,9.6685,9.6685,0.0,0.0,0.0,0.0,0.0,0.0,0.0,0.0,0.0,0.0,0.0,0.0,0.0,0.0,0.0,0.0,0.0,0.0,5.84,5.8621,5.9134,5.9967,6.0272,6.1557,6.4066,6.7247,6.9949,7.2129,7.505,7.5249,7.2826,7.066,6.8628,6.6719,6.4811,6.4457,6.5167,6.4053,6.3796,6.4029,6.316,6.2793,0.0,0.0,0.0,0.0,0.0,0.0,0.0,0.0,6.5558,6.7026,6.7504,6.9155,7.0756,6.9912,7.0243,7.077,6.9926,7.0513,7.1688,7.2973,7.4735,7.7157,8.1158,8.2517,8.3948,8.7655,8.828,8.8189,8.8463,9.0115,9.2574,9.6135,10.12,10.5626,10.8123,10.9276,11.0083,11.0414,10.9973,10.9606,10.9606,10.8909,10.8395,10.8395,10.7205,10.6213,10.5605,10.432,10.2281,9.9622,9.9548,9.8374,9.5951,9.5658,9.5345,9.5144,9.5144,9.5144,9.5144,9.5382,9.4923,9.3896,9.3345,9.2611,9.1913,9.3602,9.4593,9.518,9.6282,9.6685,9.6685,9.6685,9.6685,9.6685,0.0,0.0,0.0,0.0,0.0,0.0,0.0,0.0,0.0,0.0,0.0,0.0,0.0,0.0,0.0,0.0,0.0,0.0,5.9196,5.9967,6.004,5.9269,6.0003,6.1557,6.4029,6.7247,6.9692,7.1344,7.5307,7.6004,7.3634,7.2041,7.083,6.9963,6.7577,6.6953,6.759,6.5962,6.4824,6.4029,6.3172,6.2829,6.2793,0.0,0.0,0.0,0.0,0.0,0.0,0.0,6.5288,6.5839,6.9045,7.0073,7.0257,7.105,7.0734,6.9926,6.9119,6.8885,6.9486,7.1908,7.4331,7.8038,8.5363,8.7014,8.8867,9.5364,9.3492,9.0922,9.1693,9.1216,9.1987,9.6061,10.2191,10.6691,10.7498,10.9004,10.9701,10.8909,10.8799,10.8799,10.8799,10.7991,10.7609,10.7609,10.5296,10.388,10.388,10.1604,9.9548,9.7933,9.7897,9.6722,9.4299,9.507,9.507,9.4299,9.4299,9.4299,9.4336,9.5144,9.4611,9.3125,9.3088,9.2611,9.1913,9.3602,9.5254,9.6685,9.6685,9.6685,9.6685,9.6685,9.6685,9.6724,0.0,0.0,0.0,0.0,0.0,0.0,0.0,0.0,0.0,0.0,0.0,0.0,0.0,0.0,0.0,0.0,0.0,0.0,6.0003,6.026,6.0566,6.086,6.1117,6.1851,6.316,6.5815,6.9669,7.4698,7.4169,7.2973,7.1138,7.011,6.8591,6.6733,6.7173,6.6843,6.5925,6.4897,6.4323,6.4139,6.442,6.3857,6.2976,0.0,0.0,0.0,0.0,0.0,0.0,0.0,0.0,0.0,6.6426,6.8665,7.0646,6.9192,6.9816,7.0499,6.8568,6.8862,7.0477,7.3435,7.6056,7.9764,8.7014,8.8702,9.0537,9.7052,9.6979,9.5621,9.5327,9.5511,9.6318,9.8117,10.1898,10.5311,10.7315,10.8012,10.8416,10.8799,10.7294,10.6391,10.7073,10.5789,10.4981,10.4981,10.3313,10.2191,10.2191,10.0503,9.8741,9.7126,9.7052,9.6171,9.4299,9.3969,9.3712,9.3455,9.3455,9.4042,9.5144,9.4813,9.441,9.3896,9.3345,9.2611,9.1913,9.3602,9.5254,9.6685,9.6685,9.6685,9.6685,9.6685,9.6685,9.6685,0.0,0.0,0.0,0.0,0.0,0.0,0.0,0.0,0.0,0.0,5.7997,5.7997,0.0,0.0,0.0,0.0,0.0,0.0,0.0,6.119,6.13,6.1117,6.141,6.2291,6.3747,6.6219,6.9339,7.323,7.2092,7.0734,6.9169,6.9963,6.9545,6.8224,7.0183,6.9963,6.8128,6.7283,6.6219,6.5131,6.5925,6.5668,6.4897,0.0,0.0,0.0,0.0,0.0,0.0,0.0,0.0,0.0,6.5178,6.738,6.9596,6.8141,6.8972,7.0022,6.8568,6.9119,7.1027,7.4903,7.7965,8.2113,9.0024,9.329,9.5969,10.0483,10.0299,9.9292,9.9108,9.8447,9.8374,9.9805,10.2485,10.4908,10.6413,10.6911,10.7205,10.7294,10.5715,10.4687,10.4908,10.399,10.3293,10.3019,10.1808,10.098,10.098,9.9512,9.7897,9.6282,9.6208,9.529,9.3308,9.3492,9.3418,9.3088,9.3088,9.3786,9.4997,9.452,9.4116,9.3786,9.2941,9.2464,9.2427,9.3749,9.507,9.6282,9.6575,9.6685,9.6685,9.6685,9.6743,9.6819,0.0,0.0,0.0,0.0,0.0,0.0,0.0,0.0,0.0,0.0,5.7997,5.7997,0.0,0.0,0.0,0.0,0.0,0.0,0.0,0.0,6.2279,6.0786,6.152,6.3062,6.5472,6.7527,6.8554,6.8554,6.9376,6.9082,6.7884,7.0954,7.2422,7.2606,7.4955,7.4588,7.2129,7.1233,6.9032,6.6256,6.7297,6.7554,6.7407,6.77,0.0,0.0,0.0,0.0,0.0,0.0,0.0,0.0,6.5031,6.6402,6.77,6.77,6.8311,6.8995,6.8995,6.9706,7.1615,7.6518,8.0681,8.5673,9.395,9.9475,10.3219,10.4593,10.3293,10.1988,10.2705,10.0393,9.9054,10.1294,10.3513,10.4887,10.4887,10.5605,10.5715,10.4908,10.41,10.3293,10.2595,10.2412,10.2081,10.131,10.0503,9.9989,9.9989,9.8594,9.7016,9.5308,9.5345,9.4226,9.1803,9.3308,9.3712,9.2978,9.2978,9.3418,9.4189,9.4189,9.3786,9.3051,9.217,9.2354,9.3272,9.4006,9.4813,9.5675,9.6428,9.6685,9.6685,9.6685,9.6819,9.7026,0.0,0.0,0.0,0.0,0.0,0.0,0.0,0.0,0.0,0.0,0.0,0.0,0.0,0.0,0.0,0.0,0.0,0.0,0.0,0.0,6.3649,6.3319,6.409,6.5338,6.715,6.6439,6.6059,6.6059,6.688,6.7724,6.8678,7.0646,7.1894,7.2569,7.4353,7.3105,6.9596,6.8128,6.5999,6.382,6.6586,6.6562,6.5167,6.7687,6.6896,0.0,0.0,0.0,0.0,0.0,0.0,0.0,6.4811,6.6402,6.77,6.77,6.8728,6.9853,6.9853,7.1358,7.4258,7.9764,8.7399,9.441,9.7603,10.109,10.3586,10.3293,10.3786,10.4189,10.3696,10.2595,10.1788,10.2412,10.2889,10.3219,10.3219,10.3403,10.3182,10.2375,10.1604,10.1017,10.0796,10.0209,9.9805,9.9622,9.8851,9.8117,9.7493,9.7163,9.5914,9.3712,9.4226,9.3675,9.1803,9.217,9.2244,9.206,9.206,9.2537,9.3345,9.3345,9.3272,9.3051,9.217,9.2648,9.4042,9.4226,9.5144,9.6465,9.6649,9.6685,9.6685,9.6685,9.6819,9.7007,0.0,0.0,0.0,0.0,0.0,0.0,0.0,0.0,0.0,0.0,0.0,0.0,0.0,0.0,0.0,0.0,0.0,0.0,0.0,0.0,6.4494,6.4139,6.4861,6.5325,6.5338,6.5325,6.4921,6.4114,6.4517,6.5778,6.7797,6.9779,7.1762,7.3692,7.4918,7.3435,6.9949,6.8752,6.7026,6.5375,6.7834,6.8104,6.715,6.8893,6.756,6.4693,6.4289,0.0,0.0,0.0,0.0,0.0,0.0,0.0,6.715,6.715,6.8531,7.0183,7.0587,7.3303,7.7671,8.4535,9.1803,9.7713,9.9328,10.1604,10.3219,10.2815,10.4027,10.4908,10.399,10.3219,10.2595,10.2191,10.2081,10.2008,10.1604,10.1604,10.1384,10.098,10.0209,9.9585,9.9181,9.8778,9.8374,9.797,9.7199,9.6575,9.6171,9.5768,9.4813,9.3161,9.3529,9.3125,9.1803,9.1803,9.1803,9.1803,9.1803,9.2024,9.2501,9.2905,9.2868,9.2464,9.1987,9.2281,9.3161,9.3969,9.4777,9.5621,9.6392,9.6685,9.6685,9.6685,9.6876,9.7138,0.0,0.0,0.0,0.0,0.0,0.0,0.0,0.0,0.0,0.0,0.0,0.0,0.0,0.0,0.0,0.0,0.0,0.0,0.0,0.0,0.0,6.431,6.4934,6.4774,6.3673,6.4738,6.4628,6.3233,6.3086,6.4481,6.7357,6.9229,7.1835,7.4903,7.5469,7.4001,7.1013,6.9926,6.8458,6.7003,6.8605,6.9192,6.9096,6.9338,6.7634,6.5009,6.424,6.348,6.2977,6.3956,0.0,0.0,0.0,0.0,6.6512,6.6659,6.8128,6.9889,7.083,7.5175,8.1232,8.872,9.4263,9.8264,9.9769,10.131,10.2485,10.2301,10.3586,10.4394,10.3476,10.2705,10.2008,10.12,10.111,10.0796,9.9989,9.9989,9.9989,9.9695,9.9218,9.8594,9.775,9.7676,9.7346,9.6539,9.5859,9.5382,9.5088,9.4593,9.3859,9.2905,9.3015,9.2684,9.1803,9.1803,9.1803,9.1803,9.1803,9.1803,9.1803,9.2537,9.2464,9.1803,9.1803,9.195,9.2317,9.3712,9.4373,9.463,9.5988,9.6428,9.6282,9.6428,9.6748,9.71,0.0,0.0,0.0,0.0,0.0,0.0,0.0,0.0,0.0,0.0,5.9636,6.0126,0.0,0.0,0.0,0.0,0.0,0.0,0.0,0.0,0.0,6.5105,6.5251,6.5852,6.704,6.5888,6.5178,6.4958,6.4273,6.6256,7.0646,7.0293,7.1835,7.4867,7.4294,7.2606,7.011,6.7907,6.5632,6.36,6.5251,6.5521,6.4984,6.5681,6.5305,6.4229,6.3332,6.3002,6.3211,6.4642,6.4677,0.0,0.0,0.0,6.6623,6.7333,6.7774,6.8361,6.9853,7.6387,8.4005,8.9307,9.4263,9.8117,9.9071,10.0503,10.1514,10.0796,10.1898,10.2595,10.109,10.0686,10.0393,9.9548,9.9438,9.9145,9.8337,9.8814,9.8741,9.7346,9.7713,9.775,9.6942,9.6869,9.6539,9.5712,9.5565,9.4868,9.3492,9.3969,9.3565,9.2024,9.2721,9.2684,9.1803,9.1803,9.1803,9.1803,9.1803,9.1803,9.1803,9.1913,9.1913,9.1803,9.1803,9.2611,9.3969,9.4189,9.4703,9.5345,9.5565,9.5254,9.4703,9.5401,9.5902,9.6361,0.0,0.0,0.0,0.0,0.0,0.0,0.0,0.0,0.0,0.0,0.0,6.0566,0.0,0.0,0.0,6.3429,0.0,0.0,0.0,0.0,0.0,6.3894,6.3894,6.4224,6.4934,6.4261,6.3894,6.3894,6.4016,6.6586,7.1307,7.1872,7.4074,7.7524,7.4896,7.2606,7.0587,6.7724,6.5595,6.4261,6.4995,6.5375,6.5424,6.5415,6.489,6.4031,6.3198,6.2904,6.3137,6.4763,6.5068,6.5118,6.7076,0.0,0.0,0.0,6.7994,7.0073,7.4882,7.9066,8.3638,9.0335,9.3969,9.6318,9.8043,9.9328,9.9916,9.9108,9.9145,9.9402,9.9585,9.9622,9.9365,9.8557,9.8411,9.8154,9.7346,9.753,9.7346,9.6171,9.6355,9.6245,9.5437,9.5364,9.5217,9.485,9.441,9.3859,9.3125,9.2978,9.2537,9.1803,9.217,9.217,9.1803,9.1803,9.1803,9.1803,9.1803,9.1803,9.1803,9.1803,9.1803,9.1803,9.1803,9.2207,9.2941,9.3418,9.4116,9.4813,9.4813,9.5144,9.5621,9.5547,9.6049,9.6805,0.0,0.0,0.0,0.0,0.0,0.0,0.0,0.0,0.0,0.0,0.0,0.0,0.0,0.0,0.0,0.0,6.4457,0.0,0.0,0.0,0.0,6.2793,6.2793,6.2793,6.2793,6.2793,6.2793,6.2793,6.409,6.7393,7.2555,7.4184,7.7466,8.1762,7.7451,7.4331,7.2004,6.9009,6.7247,6.6426,6.5411,6.5338,6.5865,6.5785,6.5171,6.4323,6.3762,6.3504,0.0,0.0,6.5472,6.5582,6.7187,6.7554,0.0,0.0,0.0,7.0513,7.657,7.8846,8.1179,8.85,9.184,9.4042,9.6685,9.7897,9.8374,9.797,9.7089,9.6759,9.7951,9.8043,9.775,9.7346,9.7126,9.6759,9.6171,9.6282,9.6098,9.529,9.5382,9.518,9.4373,9.4299,9.4226,9.4006,9.3455,9.3015,9.2794,9.2134,9.1803,9.1803,9.1803,9.1803,9.1803,9.1803,9.1803,9.1803,9.1803,9.1803,9.1803,9.1803,9.1803,9.1803,9.1803,9.1913,9.217,9.2831,9.3455,9.4006,9.4226,9.4777,9.5474,9.5492,9.5994,9.6658,0.0,0.0,0.0,0.0,0.0,0.0,0.0,0.0,0.0,0.0,0.0,0.0,6.3882,6.3282,6.316,6.4029,6.3392,6.2903,6.2866,6.2829,0.0,6.2793,6.2793,0.0,6.2793,6.2793,6.2793,6.2793,6.5191,6.9633,7.5873,7.7561,8.1709,8.7545,8.2774,7.8427,7.4536,7.2078,7.0587,6.9522,6.5718,6.4176,6.4396,6.5865,6.5925,6.5215,6.5191,0.0,0.0,0.0,0.0,0.0,0.0,6.7187,6.6549,0.0,0.0,0.0,6.9926,7.2899,7.6408,8.1489,8.6811,9.1657,9.4868,9.6245,9.7016,9.775,9.6649,9.5565,9.5675,9.507,9.4777,9.5511,9.4997,9.4446,9.441,9.5089,9.5273,9.4446,9.5034,9.518,9.4373,9.4299,9.3969,9.3235,9.3125,9.2758,9.1913,9.1803,9.1803,9.1803,9.1803,9.1803,9.1803,9.1803,9.1803,9.1803,9.1803,9.1803,9.1803,9.1803,9.1803,9.1803,9.1803,9.2281,9.3051,9.3088,9.3125,9.3235,9.4006,9.3382,9.2317,9.4648,9.5202,9.5,0.0,0.0,0.0,0.0,0.0,0.0,0.0,0.0,0.0,0.0,0.0,0.0,0.0,6.3796,6.3759,6.4066,6.3319,6.305,6.3613,6.3613,0.0,6.3613,6.4127,6.415,6.3649,6.415,6.415,6.3613,6.5558,6.9009,7.3854,7.7084,8.0094,8.2753,8.0975,7.9396,7.7671,7.2129,6.9596,6.9082,6.6072,6.5485,6.6379,6.5888,6.6182,0.0,0.0,0.0,0.0,0.0,0.0,0.0,0.0,0.0,6.6402,6.5888,6.6109,6.7026,6.9449,7.1321,7.4023,7.9947,8.3728,8.6941,9.0721,9.3033,9.4483,9.4777,9.4373,9.4116,9.463,9.4483,9.4373,9.4666,9.4483,9.4299,9.4299,9.4575,9.4428,9.3639,9.3786,9.3639,9.2758,9.2684,9.2574,9.2281,9.2281,9.2134,9.1803,9.1803,9.1803,9.1803,9.1803,9.1803,9.1803,9.1803,9.1803,9.1803,9.1803,9.1803,9.1803,9.1803,9.1803,9.1803,9.1803,9.1987,9.2281,9.2281,9.2611,9.3125,9.3418,9.3492,9.3565,9.4978,9.5534,9.5717,0.0,0.0,0.0,0.0,0.0,0.0,0.0,0.0,0.0,6.2793,0.0,0.0,0.0,0.0,6.4494,6.4494,6.398,6.3894,6.4457,6.4494,6.4494,6.4494,6.5007,6.5031,6.4494,6.5031,6.5044,6.4494,6.6109,6.8972,7.2973,7.624,7.8919,8.0938,7.958,7.9727,8.0681,7.5542,7.3046,7.2239,6.8738,6.8274,6.9646,6.8825,0.0,0.0,0.0,0.0,0.0,0.0,0.0,0.0,0.0,0.0,0.0,0.0,6.6072,6.6916,6.8788,6.9889,7.2041,7.8589,8.0775,8.2684,8.7822,9.006,9.1289,9.2097,9.2501,9.2905,9.3749,9.3639,9.3565,9.3859,9.3639,9.3455,9.3455,9.3712,9.3602,9.2758,9.2941,9.2758,9.1877,9.1803,9.1803,9.1803,9.1803,0.0,9.1803,9.1803,9.1693,9.14,9.14,9.14,9.14,9.1657,9.1803,9.1803,9.1803,9.1803,9.1803,9.1803,9.1803,9.1803,9.1803,9.1803,9.1803,9.1803,9.2317,9.3088,9.3088,9.3418,9.4042,9.5107,9.5534,9.5754,0.0,0.0,0.0,0.0,0.0,0.0,0.0,0.0,6.2829,6.2829,0.0,0.0,0.0,0.0,0.0,6.5398,6.5362,6.5325,6.5325,6.5325,6.5325,6.5325,0.0,0.0,6.5325,6.5362,6.5362,6.5362,6.6966,6.9756,7.3634,7.5285,7.8589,8.2941,7.9087,7.9528,8.3124,8.2223,8.1064,7.9265,7.3546,7.2312,7.3942,0.0,0.0,0.0,7.4368,7.3817,0.0,7.022,0.0,0.0,0.0,0.0,0.0,0.0,0.0,0.0,0.0,0.0,0.0,7.6754,7.7729,7.9014,8.6224,8.7288,8.7455,8.9931,9.1033,9.1877,9.2831,9.2317,9.2024,9.2868,9.2354,9.1803,9.1803,9.2537,9.2758,9.1913,9.2537,9.2721,9.184,9.1767,9.1767,9.1767,9.173,9.173,9.1803,9.1803,9.1436,9.0629,9.0629,9.0629,9.0592,9.14,9.1803,9.1803,9.1803,9.1803,9.1803,9.1803,9.1803,9.1803,9.1803,9.1803,9.1803,9.1803,9.2281,9.3051,9.3088,9.3088,9.3308,9.4905,9.5165,9.489,0.0,0.0,0.0,0.0,0.0,0.0,6.2793,6.3356,6.3723,0.0,0.0,0.0,6.6072,6.6696,6.7283,6.7857,6.6843,6.6182,6.6182,6.6182,6.6182,6.6182,6.6733,6.6769,6.6182,6.6733,6.7026,6.7026,6.8054,6.9449,7.1138,7.3927,7.5652,7.646,7.8295,7.8736,7.7928,7.4771,7.5579,7.8442,7.2716,7.3156,7.7011,0.0,0.0,0.0,0.0,7.6717,7.7011,0.0,7.4426,7.312,0.0,0.0,0.0,0.0,0.0,0.0,6.6366,0.0,0.0,0.0,0.0,0.0,7.8589,8.0204,8.1929,8.5527,8.6444,8.7399,8.995,9.0207,9.0317,9.1179,9.1583,9.1803,9.1803,9.2024,9.206,9.184,9.2024,9.184,9.1033,9.0922,9.0922,0.0,9.0391,9.0592,9.173,9.1803,9.1436,9.0629,9.1179,9.1179,9.0629,9.14,9.1803,9.1803,9.1803,9.1803,9.1803,9.1803,9.1803,9.1803,9.1803,9.1803,9.1803,9.1803,9.195,9.2207,9.2868,9.3088,9.3308,9.4905,9.557,9.5846,0.0,0.0,0.0,0.0,0.0,6.3466,6.3783,6.4273,6.4604,0.0,0.0,0.0,6.7393,6.8531,6.9265,6.9376,6.8238,6.7504,6.7504,6.7173,6.699,6.699,6.776,6.7797,6.704,6.7797,6.8201,6.8201,6.8311,6.8972,7.0146,7.2018,7.301,7.3303,7.5322,7.6019,7.5359,7.1651,7.3193,7.7855,7.5212,7.6754,0.0,7.8846,8.0057,0.0,0.0,0.0,8.1819,7.9984,7.7892,0.0,0.0,0.0,0.0,0.0,0.0,0.0,0.0,0.0,0.0,7.1321,0.0,0.0,7.5322,7.635,7.7598,8.1342,8.2627,8.3985,8.6867,8.7675,8.8169,8.8959,8.9784,9.0519,9.1216,9.1289,9.1179,9.0849,9.1106,9.0996,9.017,9.0097,9.0097,9.0097,8.9987,9.0482,9.173,9.0849,9.0225,9.0097,9.0225,9.0225,9.0097,9.0922,9.1473,9.1803,9.1803,9.1803,9.1803,9.1803,9.1803,9.1803,9.1803,9.1803,9.1803,9.1803,9.2024,9.2354,9.2501,9.2978,9.3731,9.476,9.5534,9.6232,0.0,0.0,0.0,6.3943,6.4176,6.4494,6.5301,6.5508,6.5582,0.0,6.6476,6.7614,6.9119,7.0573,7.116,7.044,6.9633,6.9119,6.9032,6.8348,6.7958,6.7958,6.8752,6.8788,6.7994,6.8752,6.9105,6.9045,6.8311,6.8692,7.011,7.0183,7.0954,7.2202,7.149,7.2298,7.4059,7.1578,7.2936,7.6922,7.8772,8.1232,0.0,0.0,8.6224,8.8169,8.6701,8.6738,8.6904,8.3801,8.0094,0.0,0.0,0.0,0.0,0.0,6.9155,0.0,0.0,0.0,0.0,0.0,7.2606,0.0,7.4551,7.4478,7.4441,7.7561,7.925,8.0975,8.3581,8.4719,8.549,8.6207,8.7068,8.8316,9.0207,9.0464,9.0207,8.9473,9.0024,9.0134,8.9326,8.9253,8.9253,8.9253,8.9987,9.0739,9.1363,8.9454,8.861,8.9253,8.8683,8.8683,8.94,9.0207,9.0996,9.1803,9.1803,9.1803,9.1803,9.1803,9.1803,9.1803,9.1803,9.1803,9.1803,9.1803,9.2244,9.2868,9.2097,9.2831,9.4337,9.4522,9.5312,9.6361,0.0,0.0,6.3906,6.4066,6.464,6.5338,6.6145,6.6806,6.7467,6.8128,6.9472,7.072,7.1688,7.2092,7.2202,7.2055,7.1307,7.0573,6.9926,6.9706,6.9646,6.9646,7.0389,7.0463,6.9633,7.044,7.0499,6.9853,6.9706,6.9779,7.011,7.0756,7.0881,7.055,7.0403,7.0257,7.022,7.2165,7.3156,7.3692,7.6592,8.1216,8.6244,8.5747,8.7068,8.9106,8.8812,8.9216,8.9491,8.6921,8.3801,8.0388,0.0,0.0,0.0,0.0,0.0,0.0,0.0,0.0,0.0,0.0,0.0,0.0,7.1798,7.2018,7.3266,7.5212,7.5359,7.6276,8.0036,8.1379,8.2003,8.215,8.3381,8.5583,8.9143,8.962,8.9583,8.9436,8.9546,8.9326,8.85,8.8426,8.8426,8.8426,8.9179,8.94,8.894,8.9069,8.8923,8.8463,8.8923,8.9253,8.94,9.0207,9.0996,9.1803,9.1803,9.1803,9.1803,9.1803,9.1803,9.1803,9.1803,9.1803,9.1803,9.1803,9.1913,9.2024,9.1877,9.2831,9.4337,9.4522,9.5644,9.7137,0.0,6.382,6.4934,6.5755,6.6219,6.7026,6.8628,6.9229,6.9779,7.0587,7.2459,7.356,7.3156,7.345,7.3362,7.2569,7.1747,7.1123,7.0734,7.033,7.011,7.011,7.1248,7.1527,7.0734,7.149,7.1711,7.1284,7.0477,7.0293,7.0697,7.1123,7.1087,7.0697,7.0697,7.0697,7.077,7.1982,7.3435,7.5234,7.9307,0.0,8.5967,8.7582,8.9197,9.0592,9.0592,9.0849,9.0665,8.7031,8.5527,0.0,0.0,7.7252,7.7436,0.0,7.428,7.428,0.0,0.0,0.0,7.4206,0.0,0.0,0.0,7.066,7.077,7.323,7.2422,7.2532,7.6607,7.7047,7.7304,7.8904,8.0188,8.215,8.538,8.6848,8.7619,8.7619,8.7619,8.7288,8.6481,8.6775,8.7325,8.8133,8.8189,8.8372,8.8793,8.8409,8.8189,8.8206,8.8189,8.8409,8.8776,8.9583,9.0391,9.1216,9.162,9.1803,9.1803,9.1803,9.1803,9.1803,9.1803,9.1803,9.1803,9.1803,9.1803,9.1803,9.1803,9.2886,9.4485,9.4631,9.5863,9.7466,6.2976,6.415,6.5692,6.699,6.7627,6.8641,7.0756,0.0,7.1637,7.2606,7.4698,7.5726,7.4735,7.4955,7.4867,7.4221,7.2518,7.1784,0.0,0.0,0.0,0.0,7.1945,7.2349,7.1564,7.2312,7.2569,7.2275,7.0954,7.066,7.1307,7.1307,7.138,7.1527,7.138,7.1931,7.2899,7.2078,7.4096,7.817,8.259,8.4389,8.4829,8.883,9.0702,9.1179,9.162,9.1693,9.0959,8.7068,8.6848,8.7031,8.0314,8.0592,0.0,0.0,0.0,0.0,0.0,0.0,0.0,0.0,0.0,7.2386,0.0,0.0,0.0,7.1615,7.0367,6.9949,7.3325,7.3032,7.2995,7.5307,7.7032,0.0,0.0,8.2884,0.0,8.527,8.5196,8.4976,8.4646,8.5049,8.593,8.7399,8.6921,8.7161,8.8629,8.7601,8.7325,8.7949,8.7362,8.7399,8.8206,8.8996,8.9803,9.0629,9.1436,9.1803,9.1803,9.1803,9.1803,9.1803,9.1803,9.1803,9.1803,9.1987,9.195,9.1803,9.184,9.2996,9.4632,9.4792,9.6005,9.7609,6.2976,6.415,6.5362,6.5545,6.7357,6.9119,0.0,0.0,7.1821,7.334,7.5028,7.6607,7.7892,7.679,7.7047,7.98,0.0,0.0,7.6445,0.0,0.0,0.0,0.0,0.0,7.2386,7.3156,7.2863,7.1454,7.1233,7.1197,7.1307,7.1307,7.1674,7.2349,7.1637,7.2555,7.4573,7.378,7.5763,7.9743,8.2443,8.3528,0.0,8.8005,8.9143,8.8904,9.1033,9.1326,9.0665,0.0,8.916,8.7912,0.0,8.4665,8.3418,0.0,0.0,0.0,0.0,0.0,0.0,0.0,7.9653,0.0,0.0,0.0,7.251,7.0734,0.0,6.9265,7.044,0.0,0.0,0.0,7.3523,0.0,7.5784,7.7855,8.0461,8.3308,8.303,8.3141,8.4462,8.4058,8.4042,8.4939,8.4939,8.527,8.6151,8.6701,8.7014,8.7124,8.7051,8.7399,8.8206,8.8996,8.9803,9.0629,9.1436,9.1803,9.1803,9.1803,9.1803,9.1803,9.1803,9.1803,9.184,9.2648,9.2501,9.1822,9.2002,9.3104,9.4632,9.4934,9.6129,9.7609,6.2866,6.415,0.0,6.6512,6.754,6.8935,0.0,0.0,7.5946,7.7099,7.8626,8.0094,8.1269,7.9507,0.0,0.0,0.0,7.6203,0.0,0.0,0.0,0.0,0.0,0.0,0.0,7.378,0.0,7.2679,7.2239,7.2004,7.2004,7.2004,7.2665,7.3839,7.2555,7.3582,7.6225,7.5432,7.635,7.8662,8.2023,8.283,0.0,8.8042,8.9895,8.9784,9.1253,9.1289,9.0298,0.0,8.8904,0.0,0.0,0.0,0.0,0.0,0.0,0.0,0.0,0.0,0.0,0.0,0.0,0.0,7.5028,0.0,7.2165,0.0,0.0,0.0,0.0,0.0,0.0,0.0,7.2371,7.4067,0.0,0.0,7.7396,8.1525,0.0,0.0,8.1636,8.1929,8.2333,8.3141,8.3214,8.3765,8.5049,8.5416,8.604,8.6978,8.6978,8.7178,8.7509,8.8316,8.9124,8.9913,9.0739,9.1363,9.1803,9.1803,9.1803,9.1803,9.1803,9.1803,9.184,9.217,9.2207,9.2002,9.218,9.3301,9.4813,9.5004,9.6236,9.7787,6.316,0.0,0.0,6.6843,6.7577,0.0,0.0,7.5065,7.7781,7.9302,8.0865,8.2517,8.4188,8.2627,0.0,0.0,8.1819,7.9837,0.0,0.0,7.4992,0.0,0.0,0.0,0.0,0.0,0.0,7.3377,7.2789,7.2826,7.3487,7.3046,7.3817,7.5527,7.4588,7.5711,7.828,7.7928,7.8772,8.0518,8.3014,8.4022,8.4389,8.8426,9.0225,9.0702,9.151,9.1143,8.9987,8.8059,8.9087,0.0,8.7288,0.0,0.0,0.0,0.0,0.0,8.6371,0.0,0.0,0.0,0.0,0.0,0.0,0.0,0.0,0.0,0.0,0.0,0.0,0.0,0.0,0.0,0.0,7.3075,0.0,7.3241,0.0,0.0,0.0,0.0,0.0,7.9984,8.0571,8.1158,8.1195,8.1929,8.3544,8.4022,8.5013,8.6628,8.6867,8.6978,8.6978,8.7802,8.861,8.94,9.0207,9.1033,9.1803,9.1803,9.1803,9.1803,9.1803,9.1803,9.1803,9.2078,9.215,9.2164,9.2614,9.3679,9.4971,9.5146,9.6174,9.7595,6.4066,6.4714,0.0,6.5362,6.7307,6.9398,7.1087,7.2789,7.4992,7.8222,8.0057,8.2553,0.0,0.0,0.0,0.0,0.0,8.4719,8.5433,0.0,7.6151,0.0,0.0,7.334,0.0,0.0,0.0,0.0,7.2496,7.3707,7.5946,7.4368,7.4955,7.7252,7.8038,7.9323,8.0938,8.1672,8.4278,8.7729,8.6297,8.8023,9.1216,0.0,8.9234,9.0702,9.151,0.0,0.0,9.1106,9.0665,0.0,0.0,0.0,0.0,0.0,0.0,0.0,0.0,0.0,0.0,8.3398,0.0,0.0,0.0,0.0,7.6665,0.0,0.0,0.0,0.0,0.0,0.0,0.0,0.0,0.0,0.0,0.0,0.0,0.0,0.0,0.0,0.0,7.8662,7.8699,7.8699,7.8699,7.9433,8.1048,8.2574,8.4168,8.5783,8.6591,8.6978,8.6978,8.7802,8.861,8.94,9.0207,9.1033,9.1803,9.1803,9.1803,9.1803,9.1803,9.1803,9.1895,9.2848,9.281,9.2201,9.34,9.437,9.5109,9.5335,9.5923,9.6777,0.0,0.0,6.6733,6.6182,6.6769,6.8568,7.2312,7.5212,7.8662,8.3544,8.5086,8.7729,0.0,9.2721,9.3308,0.0,0.0,9.0225,8.8299,8.4903,0.0,0.0,0.0,7.7356,0.0,0.0,0.0,0.0,0.0,7.3707,7.4515,7.4515,7.5491,7.7326,7.7619,7.9234,8.1893,8.3214,0.0,0.0,0.0,9.0959,9.4703,0.0,9.0959,9.1473,9.173,9.1106,0.0,9.0812,9.0996,9.0959,9.0702,9.0592,9.0555,9.028,9.0592,0.0,0.0,0.0,9.0078,8.6334,0.0,0.0,0.0,0.0,0.0,0.0,0.0,0.0,0.0,0.0,0.0,0.0,0.0,0.0,0.0,0.0,0.0,0.0,0.0,0.0,0.0,0.0,0.0,7.6151,7.5652,7.6276,7.8427,8.0131,8.2003,8.4132,8.5527,8.6481,8.6978,8.7802,8.861,8.94,9.0207,9.1033,9.1803,9.1803,9.1803,9.1803,9.1803,9.1876,9.2002,9.235,9.2491,9.255,9.2966,9.3678,9.4575,9.52,9.6257,9.7483,6.7357,6.776,6.7871,6.7076,6.765,6.9559,7.3523,7.7635,8.2039,8.6811,8.9124,0.0,9.7052,0.0,9.786,0.0,9.7897,9.5107,9.0978,8.9271,0.0,8.281,8.1893,0.0,0.0,0.0,0.0,0.0,0.0,7.6019,7.7157,7.6497,7.7215,7.905,7.9638,8.0755,8.2406,8.5783,8.7031,0.0,0.0,9.3198,0.0,0.0,9.2464,9.2666,0.0,9.1289,9.0629,9.0922,9.1179,9.1289,9.0776,9.0812,9.0959,9.0702,9.1033,9.1436,9.1143,9.1216,0.0,8.8096,8.6444,0.0,8.0718,0.0,0.0,0.0,0.0,0.0,0.0,0.0,0.0,0.0,0.0,0.0,0.0,7.0357,0.0,0.0,0.0,0.0,0.0,0.0,7.4536,7.3692,7.3156,7.378,0.0,7.7855,8.0167,8.2884,8.4792,8.6187,8.6978,8.7802,8.861,8.94,9.0207,9.1033,9.1803,9.1803,9.184,9.1912,9.1912,9.202,9.2198,9.2268,9.2479,9.2701,9.2805,9.3371,9.4288,9.5105,9.6443,9.7892,6.9045,6.9082,6.8912,6.8068,6.9853,7.2188,7.4647,7.9784,8.4592,8.7986,9.1987,9.5768,9.9015,10.0099,10.12,10.2705,10.2081,9.9365,9.3932,9.3492,0.0,0.0,8.4719,8.3948,8.1489,0.0,0.0,0.0,0.0,8.0277,8.3161,8.0131,7.9874,8.2039,8.3801,8.3691,8.2627,8.9068,9.14,9.0996,9.3418,9.4923,9.5492,9.3822,9.3675,9.4116,9.2427,9.1326,9.0776,9.1546,9.1289,9.0665,9.0665,9.1179,9.1657,9.0886,9.1803,9.2868,9.2115,9.1289,9.0298,8.872,0.0,0.0,0.0,0.0,8.5233,0.0,0.0,0.0,0.0,0.0,0.0,0.0,0.0,0.0,0.0,0.0,0.0,0.0,0.0,0.0,0.0,0.0,7.3692,7.1431,7.1197,0.0,0.0,7.5858,7.8683,8.1929,8.4389,8.6077,8.6904,8.7766,8.861,8.94,9.0207,9.1033,9.1803,9.1803,9.1912,9.2091,9.2091,9.2215,9.2444,9.2616,9.2701,9.2717,9.2922,9.3508,9.4362,9.5143,9.648,9.7892,7.091,7.1821,7.2358,7.1549,7.1869,7.3215,7.6225,8.0518,8.5436,9.1106,9.5364,9.9328,10.3089,10.432,10.4981,10.5385,10.4687,0.0,0.0,0.0,0.0,9.3455,9.2354,9.0372,8.7308,8.549,0.0,8.217,0.0,0.0,8.0718,8.0498,7.9727,7.872,8.281,8.3691,8.2553,8.7802,9.1326,9.3492,9.5364,9.6942,9.7897,0.0,9.4502,9.4906,9.2611,9.1657,9.151,9.173,9.1657,9.1473,9.1473,9.162,9.1767,9.1546,9.1803,9.2097,9.1877,9.1657,9.1253,9.0262,8.894,8.7509,0.0,0.0,0.0,0.0,0.0,0.0,0.0,0.0,0.0,0.0,0.0,0.0,0.0,0.0,0.0,7.2056,0.0,0.0,0.0,0.0,7.1106,7.0593,6.9908,0.0,0.0,0.0,7.6738,7.9433,8.2443,8.4682,8.6077,8.7509,8.861,8.94,9.0207,9.1033,9.1803,9.1803,9.1912,9.2091,9.2091,9.2285,9.2633,9.2667,9.2805,9.2938,9.2971,9.3842,9.518,9.5997,9.6963,9.7892,7.271,7.4202,7.5456,7.5309,7.6395,7.7986,8.0151,8.3051,8.6904,9.2391,9.6906,0.0,10.2815,10.5311,10.7095,10.7404,10.6413,0.0,10.2795,0.0,0.0,9.7383,9.6685,9.4703,9.1088,8.861,0.0,8.4959,0.0,8.1489,8.2386,8.0718,7.9564,7.9087,8.292,8.3911,8.3067,8.8243,9.2537,9.5878,9.6098,9.6722,0.0,9.5511,9.441,9.3841,9.3547,9.2721,9.184,9.2244,9.2354,9.2427,9.2794,9.3125,9.3418,9.3418,9.3418,9.3492,9.3859,9.3418,9.2794,9.2317,9.1253,8.9931,8.8409,8.8409,8.8243,0.0,0.0,0.0,0.0,0.0,0.0,0.0,0.0,0.0,0.0,0.0,0.0,0.0,7.2933,0.0,0.0,0.0,0.0,0.0,0.0,0.0,0.0,0.0,7.6387,7.8516,8.2076,8.4535,8.5783,8.8096,8.9307,8.94,9.0592,9.1363,9.1803,9.1803,9.1966,9.2215,9.2215,9.2461,9.2838,9.2838,9.2905,9.3025,9.3397,9.4511,9.5997,9.6443,9.7149,9.7892,7.4243,7.6463,7.8305,7.8462,8.1684,8.4515,8.5416,8.7105,8.962,9.3382,0.0,10.1274,10.1274,10.5112,10.7902,10.8578,0.0,10.5495,10.3293,10.4504,10.3293,9.9035,9.9328,9.7787,9.3969,9.1271,0.0,0.0,0.0,8.259,8.4919,8.0608,7.9286,8.0645,8.3177,0.0,0.0,8.9381,9.3749,9.6979,9.5841,9.5455,9.5639,9.5418,9.4006,9.2427,9.4685,9.4061,9.2281,9.3235,9.3565,9.3675,9.4373,9.5107,9.5639,9.5639,9.5565,9.5639,9.6355,9.5437,9.4299,9.4299,9.3712,9.2537,9.0391,8.9803,8.9473,8.8683,8.7399,8.6297,0.0,0.0,0.0,0.0,0.0,0.0,0.0,0.0,0.0,0.0,0.0,0.0,0.0,0.0,0.0,0.0,0.0,0.0,0.0,0.0,7.635,7.8222,8.2076,8.4609,8.5654,8.872,9.0024,8.9583,9.0959,9.1693,9.1803,9.184,9.2038,9.2409,9.2444,9.265,9.2988,9.2988,9.2988,9.3062,9.3879,9.5105,9.648,9.6554,9.7149,9.7892,7.5329,7.884,8.0973,7.8396,8.3839,8.9042,9.0408,9.3125,9.5731,9.7767,10.2889,10.6287,10.6287,10.7095,10.7682,10.7792,10.689,0.0,0.0,0.0,0.0,10.3896,10.2705,10.0796,9.8097,9.4373,9.1308,0.0,8.4959,8.226,8.0807,7.9286,7.8369,7.8096,8.1232,0.0,8.56,8.9271,0.0,9.2941,9.4079,9.5327,9.6355,9.5034,9.4226,9.4006,9.5126,9.4795,9.4079,9.5584,9.6061,9.6098,9.6245,9.6392,9.6502,9.6502,9.6025,9.5528,9.5675,9.5034,9.4299,9.4299,9.3712,9.2978,9.2574,9.1913,9.1143,9.0372,8.9968,8.894,8.6314,0.0,0.0,0.0,0.0,0.0,0.0,0.0,0.0,0.0,0.0,7.3912,0.0,0.0,0.0,0.0,0.0,0.0,0.0,0.0,7.3472,0.0,7.9837,0.0,0.0,0.0,8.9234,9.0391,9.0702,9.1179,9.1822,9.1966,9.2162,9.2427,9.2582,9.2768,9.2988,9.2988,9.2988,9.3062,9.3879,9.4771,9.57,9.6369,9.7149,9.7892,7.9217,8.1449,0.0,0.0,8.8417,9.3051,9.5823,9.8998,10.0613,9.9292,10.2595,10.5112,10.5112,10.7294,10.8799,10.8799,10.7719,10.7021,10.7021,10.6596,10.6009,10.5107,10.4394,0.0,9.9769,9.5768,9.2721,9.0629,8.4132,8.0975,8.0991,7.7598,7.6276,7.6775,0.0,8.281,0.0,0.0,0.0,9.2537,9.3345,9.463,9.5951,9.474,9.4556,9.507,9.6301,9.6759,9.6832,9.7199,9.7309,9.7383,9.7823,9.7933,9.7933,9.7933,9.7383,9.6722,9.6722,9.6171,9.5437,9.5034,9.463,9.4153,9.3308,9.2794,9.2244,9.14,9.0886,8.9655,8.6473,8.2695,0.0,0.0,0.0,0.0,0.0,0.0,0.0,0.0,0.0,0.0,0.0,0.0,0.0,0.0,0.0,0.0,0.0,0.0,7.345,0.0,0.0,0.0,8.3968,0.0,0.0,9.0164,9.0956,9.1581,9.1966,9.2056,9.2198,9.2427,9.2616,9.2822,9.2988,9.2988,9.3471,9.4288,9.466,9.5588,9.674,9.7112,9.7557,9.7892,8.3571,8.4785,0.0,0.0,9.3364,9.6963,10.0119,10.3403,10.4504,10.131,10.2705,10.41,10.421,10.7697,10.9995,10.9995,10.8526,10.7609,10.7609,10.678,10.6082,10.5422,10.518,10.3806,10.0907,9.6869,9.3565,0.0,8.3361,7.9984,8.0534,7.6056,7.4625,0.0,0.0,0.0,0.0,0.0,8.9417,9.2868,9.3015,9.4189,9.5694,9.485,9.5144,9.6171,9.7456,9.8521,9.9255,9.8631,9.8521,9.876,9.9218,9.9255,9.9052,9.8888,9.8411,9.786,9.7676,9.7309,9.6759,9.5951,9.5639,9.5125,9.3675,9.3235,9.2868,9.1987,9.1179,8.9747,8.7053,8.4293,0.0,0.0,0.0,0.0,0.0,0.0,0.0,0.0,0.0,0.0,7.183,0.0,0.0,0.0,0.0,0.0,7.1087,0.0,0.0,0.0,0.0,8.2423,8.3447,0.0,9.0398,8.9973,9.1392,9.2074,9.2038,9.2127,9.2233,9.2427,9.265,9.2855,9.2988,9.2988,9.3731,9.492,9.5254,9.622,9.7409,9.778,9.7892,9.7892,0.0,8.9441,9.1669,0.0,0.0,10.1216,10.1387,10.4818,10.7205,10.6911,10.7587,10.8505,10.9202,10.9679,10.9995,10.9995,10.8526,10.7609,10.7609,10.678,10.6397,10.6302,10.5495,10.432,10.2522,9.8521,9.3859,0.0,0.0,8.0408,0.0,0.0,0.0,0.0,0.0,0.0,0.0,8.6554,8.9601,9.2079,9.2794,9.452,9.6502,9.5675,9.6355,9.7676,9.7843,9.8888,10.0209,10.0099,10.0596,10.098,10.0393,9.9695,9.8961,9.8227,9.7953,9.775,9.7016,9.7273,9.7566,9.6795,9.6061,9.5272,9.4373,9.3602,9.2868,9.1987,9.1179,9.0132,8.8542,8.7262,8.5314,0.0,0.0,0.0,0.0,0.0,0.0,0.0,0.0,0.0,0.0,7.2281,7.2372,0.0,7.1394,0.0,0.0,0.0,0.0,7.4867,7.894,8.1937,8.3643,8.7763,9.0157,9.0803,9.1686,9.2002,9.184,9.2198,9.2392,9.2427,9.2822,9.2971,9.2988,9.2988,9.3099,9.3359,9.4845,9.5514,9.5811,9.7334,9.7892,9.7892,0.0,0.0,0.0,0.0,0.0,10.1684,10.4084,10.6213,10.7792,10.8306,10.8982,10.979,11.0597,11.0707,11.0487,11.001,10.9004,10.8123,10.7609,10.678,10.6376,10.6376,10.6082,10.5091,10.3476,10.0393,9.6575,0.0,0.0,0.0,0.0,0.0,0.0,0.0,0.0,8.1636,8.4499,8.6591,8.916,9.1913,9.2758,9.4556,9.6575,9.5254,9.6392,9.8557,9.808,9.9548,10.1714,10.1714,10.131,10.0686,10.0393,10.0099,9.9769,9.9438,9.9328,9.9145,9.8374,9.8007,9.7713,9.6906,9.6465,9.6025,9.5217,9.4777,9.4299,9.3455,9.2648,9.1638,9.0057,8.8645,8.7066,0.0,0.0,0.0,0.0,0.0,0.0,0.0,0.0,0.0,0.0,7.1761,7.2225,7.2694,0.0,0.0,0.0,0.0,0.0,7.4147,0.0,8.1144,8.2902,8.707,8.9643,9.054,9.125,9.1843,9.232,9.2392,9.253,9.2788,9.2938,9.2988,9.2988,9.2988,9.3285,9.3842,9.4957,9.57,9.6257,9.7446,9.7892,9.7892,9.5277,0.0,9.772,0.0,10.2081,10.3109,10.6324,10.7205,10.8012,10.8982,10.9606,11.0304,11.1111,11.1221,11.1001,11.0414,10.9606,10.8799,10.8012,10.7205,10.6596,10.6376,10.6376,0.0,10.4284,10.2118,9.9035,9.4997,9.0849,0.0,0.0,0.0,0.0,0.0,8.0277,8.2884,8.6554,8.7619,8.9931,9.2941,9.3565,9.496,9.6575,9.5437,9.6722,9.9035,9.8447,10.0209,10.2705,10.2705,10.1898,10.0907,10.0393,10.0283,10.0209,9.9732,9.9916,10.0099,9.9035,9.8668,9.83,9.7016,9.6869,9.6795,9.5749,9.5492,9.5198,9.4153,9.3272,9.2354,9.1179,9.0005,8.8848,8.7634,0.0,0.0,0.0,0.0,0.0,0.0,0.0,7.4783,7.1923,7.175,7.2132,7.2951,0.0,0.0,0.0,0.0,0.0,0.0,0.0,0.0,8.2834,8.707,8.9551,9.023,9.1199,9.1958,9.253,9.2513,9.2667,9.2988,9.2988,9.2988,9.2988,9.2988,9.3322,9.3954,9.4994,9.5737,9.6369,9.7483,9.7892,9.7892,9.9878,10.1009,10.2505,10.581,10.6302,10.6596,10.7498,10.7609,10.8196,10.9811,10.9995,11.0304,11.1111,11.1221,11.1221,11.1221,11.0414,10.9606,10.8799,10.7991,10.7205,0.0,0.0,10.6009,10.5107,10.3513,10.0723,9.6685,0.0,0.0,8.4535,0.0,8.1709,8.1122,8.4278,8.6628,8.828,8.9895,9.2446,9.5455,9.5455,9.5951,9.6685,9.6685,9.7676,9.9108,9.9088,10.0593,10.2705,10.2705,10.2705,10.2412,10.0796,10.0283,9.9989,9.8374,9.9035,9.9952,9.8337,9.9071,9.9695,9.7309,9.7309,9.7456,9.5859,9.5492,9.5051,9.3455,9.2427,9.1803,9.1803,9.1767,9.105,8.8836,0.0,0.0,0.0,0.0,0.0,0.0,7.8355,7.7958,7.2951,7.2496,0.0,0.0,0.0,0.0,0.0,0.0,0.0,7.6056,8.0173,0.0,8.3856,8.8083,9.0102,9.0009,9.1821,9.2496,9.2109,9.253,9.2822,9.2988,9.2988,9.2988,9.2988,9.2988,9.2988,9.3174,9.4771,9.5403,9.5626,9.7297,9.7892,9.7892,10.1795,10.3113,10.432,10.529,10.6009,10.6486,10.6706,10.7205,10.7792,10.8306,10.8799,10.9312,10.9496,11.0524,11.1001,0.0,10.9606,10.8799,0.0,10.7183,10.6691,10.6376,10.6376,10.6009,10.5107,10.4593,10.2575,9.9145,0.0,0.0,0.0,8.6811,8.6151,8.5967,8.7545,8.9491,9.162,9.2684,9.4042,9.5492,9.5492,9.6318,9.753,9.753,9.8851,10.0686,10.0686,10.2301,10.43,10.43,10.43,10.41,10.2412,10.1604,10.0907,9.9842,10.0283,10.0816,9.9145,9.9108,9.9035,9.7163,9.6906,9.6942,9.6428,9.6318,9.6025,9.4941,9.452,9.4006,9.2905,9.2684,9.2079,9.0223,8.9416,0.0,0.0,0.0,0.0,0.0,7.6978,7.642,7.3575,7.3919,0.0,0.0,0.0,0.0,0.0,0.0,0.0,0.0,8.0014,0.0,8.5694,8.8148,8.9975,9.1153,9.1525,9.189,9.234,9.2701,9.2938,9.2988,9.2988,9.2988,9.2988,9.2988,9.2988,9.3099,9.4177,9.492,9.5514,9.6629,9.7372,9.7892,10.3602,10.4687,10.5605,10.5605,10.6009,10.6376,10.6376,10.678,10.7315,10.7609,10.7991,10.8505,10.8799,11.001,0.0,10.9606,10.9092,10.8505,10.7682,10.7095,10.6706,10.6376,10.6376,10.6119,10.5605,10.5605,0.0,10.2118,10.0099,9.6703,9.2115,9.0996,9.0482,9.0519,9.1308,9.2703,9.4483,9.4997,9.5841,9.6813,9.6539,9.7199,9.8374,9.8668,9.9916,10.1587,10.2212,10.3586,10.5201,10.5495,10.5605,10.5385,10.4006,10.3293,10.2485,10.0796,10.0927,10.109,9.9548,9.9328,9.9181,9.7566,9.7163,9.7052,9.6759,9.6465,9.6098,9.5602,9.5015,9.4281,9.3308,9.2831,9.2281,9.1216,8.962,8.7418,8.4298,0.0,0.0,0.0,0.0,0.0,0.0,7.5705,7.6345,0.0,0.0,0.0,0.0,0.0,0.0,7.8446,8.1491,0.0,8.7032,8.8979,9.051,9.1627,9.1744,9.2032,9.253,9.2855,9.2988,9.2988,9.2988,9.2988,9.2988,9.2988,9.2988,9.3062,9.3879,9.4697,9.5514,9.6294,9.7149,9.7892,10.518,10.5789,10.6376,10.6376,10.6376,10.6376,10.6376,10.6376,10.6691,10.7388,10.7498,10.7792,10.8615,10.9312,10.9518,10.8799,0.0,0.0,0.0,10.7498,10.7205,10.6413,10.6376,10.6376,10.6376,10.6376,10.6009,10.5107,10.131,9.8631,9.7016,9.5401,9.463,9.4666,9.5364,9.6135,9.6869,9.6869,9.775,9.9035,9.8264,9.8484,9.9365,10.0099,10.1,10.1898,10.3403,10.4504,10.529,10.6119,10.6376,10.6192,10.529,10.5091,10.4483,10.1384,10.098,10.12,9.9622,9.9695,9.9842,9.8264,9.786,9.7603,9.6869,9.6135,9.5565,9.5565,9.441,9.3308,9.3198,9.2501,9.1913,9.173,8.905,8.6444,8.4756,0.0,0.0,0.0,0.0,0.0,0.0,7.7781,7.8038,0.0,0.0,0.0,0.0,0.0,7.9365,8.0124,8.4183,8.6856,8.8016,9.0366,9.1552,9.1556,9.2333,9.2667,9.2684,9.2888,9.2988,9.2988,9.2988,9.2988,9.2988,9.2988,9.2988,9.3062,9.3879,9.4697,9.5514,9.6294,9.7149,9.7892,0.0,0.0,10.6376,10.6376,10.6376,10.6376,10.6376,10.6376,10.6507,10.6691,10.6691,10.7021,10.7792,10.7498,10.7404,10.7807,10.8395,10.8211,10.6801,10.6691,10.6596,10.6376,10.6376,10.6376,10.6376,10.6376,10.6009,10.5107,10.3513,10.1898,10.0283,9.8704,9.797,9.797,9.753,9.7787,9.8521,9.8521,9.8741,9.9071,9.8888,9.9659,10.1,10.109,10.2485,10.432,10.4724,10.5385,10.6119,10.6302,10.6376,10.6082,10.4687,10.4614,10.4703,10.2705,10.2301,10.2081,10.0503,9.9695,9.9145,9.8154,9.7419,9.6942,9.6722,9.6539,9.6428,9.6428,9.6098,9.5474,9.4226,9.3859,9.3088,9.1179,8.872,8.6207,8.4005,8.1452,0.0,0.0,7.8846,7.914,7.8935,7.9302,7.9339,0.0,0.0,0.0,7.9967,8.201,8.2782,8.1871,8.4901,8.7771,9.0372,9.1231,9.1824,9.2183,9.2368,9.2479,9.2479,9.2667,9.2855,9.2988,9.2988,9.2988,9.2988,9.2988,9.2988,9.3062,9.3879,9.4697,9.5514,9.6294,9.7149,9.7892,10.6376,10.6376,10.6376,10.6376,10.6376,10.6376,10.6376,10.6376,10.6376,10.6376,10.6376,10.6617,10.7021,10.7294,10.7404,10.7095,10.7498,10.7294,10.6507,10.6376,10.6376,10.6376,10.6376,10.6376,10.6376,10.6376,10.6192,10.5715,10.4908,10.399,10.3109,10.1494,10.0703,10.0703,10.0283,10.0099,10.0209,10.0209,10.0393,10.0723,9.9952,10.0796,10.2615,10.2615,10.3586,10.5201,10.5605,10.6009,10.6302,10.5899,10.5789,10.5605,10.4284,10.421,10.432,10.3109,10.2705,10.2412,10.12,10.0283,9.9475,9.8631,9.8117,9.7713,9.7346,9.6942,9.6685,9.6685,9.6428,9.5768,9.452,9.4006,9.2831,8.9968,8.7472,8.5049,8.2647,8.0204,0.0,7.9103,7.9837,8.0645,8.1379,8.2129,8.2092,8.0991,8.1856,0.0,8.1834,8.4719,8.5742,8.4358,8.7152,8.9568,9.131,9.1882,9.2205,9.225,9.2547,9.2582,9.2427,9.2684,9.2905,9.2988,9.2988,9.2988,9.2988,9.2988,9.2988,9.3062,9.3879,9.4697,9.5514,9.6294,9.7149,9.7892,10.6376,10.6376,10.6376,10.6376,10.6376,10.6413,10.6617,10.6617,10.6596,10.6706,10.678,10.678,10.689,10.8101,10.8285,10.7095,10.6706,10.6486,10.6376,10.6376,10.6376,10.6376,10.6376,10.6376,10.6376,10.6376,10.6376,10.6376,10.5715,10.518,10.5107,10.3676,10.2999,10.2889,10.2889,10.2485,10.1918,10.1918,10.2322,10.2815,10.1384,10.2118,10.41,10.41,10.4614,10.5422,10.6119,10.6302,10.6082,10.529,10.4997,10.4798,10.399,10.3806,10.3696,10.2925,10.2705,10.2595,10.1918,10.12,10.0393,9.9365,9.9181,9.9071,9.8264,9.7566,9.7016,9.6906,9.6355,9.5547,9.4483,9.3749,9.2207,8.8904,8.6261,8.3801,8.1489,0.0,7.8295,7.9963,8.1085,8.2333,8.3785,8.5196,8.5176,8.33,8.5433,8.5868,8.3761,8.6789,8.8213,8.7317,8.9834,9.135,9.165,9.2283,9.2444,9.2109,9.265,9.2717,9.2427,9.2805,9.2971,9.2988,9.2988,9.2988,9.2988,9.2988,9.2988,9.3099,9.4028,9.4808,9.5514,9.6443,9.726,9.7929,10.6376,10.6376,10.6376,10.6376,10.6376,10.6596,10.7315,10.7388,10.7719,10.8285,10.8395,10.8688,10.9408,10.9092,10.8982,10.9386,10.8196,10.7095,10.6413,10.6376,10.6376,10.6376,10.6376,10.6376,10.6376,10.6376,10.6376,10.6376,10.6302,10.5789,10.5107,10.4813,10.4394,10.3696,10.3696,10.3586,10.3513,10.3513,10.3586,10.3696,10.3403,10.399,10.4887,10.4887,10.5401,10.6192,10.6397,10.5899,10.529,10.5107,10.4593,10.3917,10.3109,10.3403,10.3696,10.2925,10.2705,10.2705,10.2501,10.2412,10.1788,9.9659,9.9622,9.9916,9.9108,9.8814,9.8521,9.786,9.7603,9.6869,9.4703,9.4189,9.3051,8.973,8.6628,8.3985,8.226,0.0,8.0021,8.1636,8.3728,8.5416,8.6354,8.6664,8.7027,8.7492,8.6583,8.6818,8.874,8.9113,8.9629,9.0449,9.0949,9.154,9.224,9.2231,9.2145,9.2091,9.2392,9.2461,9.2427,9.2633,9.2855,9.2988,9.2988,9.2988,9.2988,9.2988,9.2988,9.3136,9.4622,9.5291,9.5588,9.7112,9.778,9.8003,10.6376,10.6376,10.6376,10.6376,10.6801,10.7205,10.7498,10.8012,10.8416,10.8799,10.8799,10.8909,10.9312,10.9386,10.9386,10.9386,10.8688,10.7881,10.7095,10.6596,10.6376,10.6376,10.6376,10.6376,10.6376,10.6376,10.6376,10.6376,10.6376,10.6192,10.5789,10.5789,10.5605,10.5201,10.5201,10.4981,10.4483,10.4483,10.4483,10.4504,10.41,10.4687,10.5715,10.4798,10.5018,10.5605,10.5201,10.4798,10.4394,10.399,10.3586,10.3109,10.2301,10.2301,10.2485,10.2191,10.2412,10.2705,10.2705,10.2705,10.2501,10.1898,10.1604,10.1384,10.0613,10.0099,9.9512,9.8704,9.819,9.7439,9.5878,9.4887,9.3382,9.0501,8.6995,0.0,0.0,8.1746,8.1342,8.3838,8.5894,8.7582,8.883,8.8923,8.8975,8.899,8.8204,8.8365,8.9745,8.9963,9.0754,9.2271,9.192,9.1899,9.2409,9.2322,9.225,9.225,9.2582,9.2667,9.2565,9.2751,9.2922,9.2988,9.2988,9.2988,9.2988,9.2988,9.2988,9.3136,9.4771,9.5403,9.5588,9.726,9.7892,9.8003,10.6376,10.6376,10.6376,10.6376,10.6911,10.7425,10.7792,10.8395,10.8909,10.9312,10.9386,10.9386,10.9386,10.99,11.001,10.9386,10.9019,10.8505,10.7902,10.7021,10.6376,10.6376,10.6376,10.6376,10.6376,10.6376,10.6376,10.6376,10.6376,10.6376,10.6376,10.6376,10.6376,10.6376,10.6376,10.6009,10.5422,10.5422,10.529,10.4997,10.4394,10.4798,10.5678,10.4394,10.4284,10.4703,10.41,10.3806,10.3513,10.2889,10.2705,10.2595,10.2008,10.1808,10.1808,10.1808,10.2191,10.2705,10.2705,10.3109,10.3586,10.3586,10.3403,10.2999,10.2008,10.131,10.0613,9.9585,9.8741,9.786,9.6869,9.5547,9.3786,9.1289,0.0,0.0,0.0,8.3581,8.3398,8.604,8.7766,8.9307,9.0739,9.1069,9.0867,9.0095,9.0169,9.026,9.025,9.0663,9.1601,9.3179,9.2646,9.2422,9.2653,9.2466,9.2483,9.2685,9.2896,9.2905,9.2701,9.3091,9.3174,9.2988,9.3211,9.3174,9.2988,9.2988,9.3099,9.3434,9.4845,9.5514,9.5848,9.7334,9.7892,9.804,10.6376,10.6376,10.6376,10.6376,10.6413,10.7,10.8505,10.8799,10.9312,11.0817,11.1001,11.1001,11.1001,11.1111,11.1111,11.0979,10.9679,10.8799,10.8688,10.7315,10.6376,10.6376,10.6376,10.6376,10.6376,10.6376,10.6376,10.6376,10.6376,10.6376,10.6376,10.6376,10.6376,10.6376,10.6376,10.6397,10.6302,10.6302,10.5789,10.5107,10.4997,10.4614,10.41,10.3917,10.3917,10.399,10.388,10.3403,10.2815,10.2705,10.2705,10.2705,10.2595,10.2595,10.2595,10.2595,10.2705,10.2705,10.2705,10.4394,10.5605,10.3293,10.3917,10.4483,10.2999,10.2595,10.2118,10.0503,9.9585,9.8557,9.6979,9.5988,9.4593,9.2097,0.0,0.0,8.7014,8.6647,8.6921,8.7912,8.9454,9.0776,9.162,9.2427,9.2647,9.1945,9.2482,9.2556,9.1981,9.1802,9.2134,9.3107,9.307,9.3125,9.3306,9.2709,9.2779,9.3498,9.3155,9.2905,9.2738,9.3685,9.3694,9.3025,9.3768,9.3694,9.2988,9.2988,9.3434,9.4214,9.5068,9.5848,9.6629,9.7557,9.7892,9.8115,10.6376,10.6376,10.6376,10.6376,10.678,10.7388,10.8012,10.8909,10.9811,11.0377,11.0891,11.1221,11.1221,11.1221,11.1221,11.1221,10.9716,10.8799,10.8799,10.7294,10.6376,10.6376,10.6376,10.6376,10.6376,10.6376,10.6376,10.6376,10.6376,10.6376,10.6376,10.6376,10.6376,10.6376,10.6376,10.6376,10.6376,10.6376,10.5899,10.5107,10.5107,10.4614,10.3806,10.3293,10.3182,10.3109,10.2595,10.2191,10.1991,10.1991,10.1991,10.2008,10.2522,10.2705,10.2889,10.3896,10.4189,10.4189,10.4189,10.4908,10.5495,10.5091,10.4997,10.4777,10.3696,10.3109,10.2412,10.1274,10.0393,9.9659,9.9035,9.7456,9.6098,9.5658,0.0,8.9913,9.1326,8.9784,8.9179,9.1033,9.2207,9.3015,9.3308,9.3639,9.3749,9.3492,9.3676,9.3529,9.2757,9.3125,9.3547,9.4044,9.4007,9.4007,9.4117,9.4107,9.3988,9.3766,9.4245,9.418,9.3668,9.4552,9.4771,9.4511,9.4808,9.4771,9.4474,9.4474,9.466,9.5031,9.5848,9.6331,9.6703,9.7595,9.7892,9.804,10.6376,10.6376,10.6376,10.6376,10.7095,10.7719,10.7881,10.9092,11.0083,11.0304,11.0891,11.1221,11.1221,11.1001,11.0817,11.0817,10.9386,10.8395,10.8395,10.7205,10.6376,10.6376,10.6376,10.6376,10.6376,10.6376,10.6376,10.6376,10.6376,10.6376,10.6376,10.6376,10.6376,10.6376,10.6376,10.6376,10.6376,10.6376,10.5899,10.5107,10.5107,10.4614,10.3806,10.3293,10.2889,10.2595,10.2081,10.1898,10.1898,10.1898,10.2191,10.2705,10.3293,10.3513,10.3676,10.5091,10.5495,10.5605,10.5789,10.5899,10.5899,10.6009,10.5715,10.5201,10.41,10.3696,10.3109,10.1808,10.111,10.0613,10.0319,9.8741,9.7456,9.753,9.4263,9.2317,9.4042,9.2354,9.1565,9.3272,9.3969,9.4299,9.4299,9.452,9.4556,9.4299,9.452,9.4336,9.3529,9.3823,9.432,9.4964,9.5054,9.5219,9.5514,9.5006,9.4718,9.4733,9.5203,9.5105,9.4585,9.5143,9.5403,9.5403,9.5403,9.5403,9.5403,9.5403,9.5551,9.5848,9.6369,9.6777,9.7074,9.7669,9.7892,9.8003,10.6376,10.6376,10.6376,10.6376,10.7095,10.7902,10.8688,10.9518,11.0304,11.1111,11.1221,11.1221,11.1221,11.0487,10.9995,10.9995,10.8526,10.7609,10.7609,10.678,10.6376,10.6376,10.6376,10.6376,10.6376,10.6376,10.6376,10.6376,10.6376,10.6376,10.6376,10.6376,10.6376,10.6376,10.6376,10.6376,10.6376,10.6376,10.5899,10.5107,10.5107,10.4614,10.388,10.388,10.3403,10.2705,10.2705,10.2705,10.2705,10.2705,10.3806,10.5107,10.5107,10.5107,10.529,10.6192,10.6376,10.6617,10.7388,10.7609,10.7205,10.5474,10.5789,10.5993,10.4284,10.4504,10.4394,10.2008,10.1514,10.1294,10.0503,9.9659,9.8594,9.6979,9.6722,9.6135,9.4556,9.4299,9.4299,9.4299,9.4299,9.4299,9.4299,9.5034,9.518,9.4373,9.507,9.518,9.4336,9.3731,9.4135,9.5755,9.6211,9.6776,9.7591,9.5183,9.4824,9.6591,9.5811,9.544,9.5403,9.544,9.544,9.544,9.544,9.544,9.544,9.544,9.5886,9.6629,9.6629,9.7149,9.7892,9.7892,9.7892,9.8003,10.6376,10.6376,10.6376,10.6376,10.6596,10.678,10.7073,10.8285,10.9202,10.9496,11.0524,11.1221,11.1221,11.0487,11.0193,11.0817,10.9386,10.8175,10.7609,10.678,10.6376,10.6376,10.6376,10.6376,10.6376,10.6376,10.6376,10.6376,10.6376,10.6376,10.6376,10.6376,10.6376,10.6376,10.6376,10.6376,10.6376,10.6376,10.5899,10.5107,10.5107,10.4614,10.388,10.388,10.3806,10.3586,10.421,10.4394,10.4504,10.5091,10.5605,10.6082,10.6727,10.6911,10.7,10.7807,10.7294,10.6617,10.7388,10.7205,10.6801,10.678,10.6192,10.5385,10.4908,10.4504,10.41,10.3293,10.3182,10.2889,10.2118,10.131,10.0393,9.9402,9.7787,9.6722,9.6795,9.5841,9.5364,9.5914,9.5988,9.5988,9.5988,9.6208,9.6245,9.5988,9.5694,9.5714,9.6178,9.5497,9.5699,9.7005,9.6594,9.6792,9.7822,9.708,9.6688,9.6591,9.6963,9.6814,9.6257,9.6889,9.7149,9.7149,9.7149,9.7149,9.7149,9.7149,9.7297,9.752,9.752,9.7669,9.7892,9.7892,9.7892,9.7998,10.6376,10.6376,10.6376,10.6376,10.689,10.7183,10.689,10.8505,10.9606,10.9312,11.0414,11.1221,11.1221,11.0487,11.0193,11.0707,10.9276,10.8306,10.8123,10.7,10.6486,10.6911,10.6617,10.6376,10.6376,10.6376,10.6376,10.6376,10.6376,10.6376,10.6376,10.6376,10.6376,10.6376,10.6376,10.6376,10.6376,10.6376,10.6082,10.5605,10.5605,10.5311,10.4908,10.4908,10.4687,10.4394,10.4887,10.5107,10.5201,10.5715,10.6082,10.6486,10.7315,10.7388,10.7315,10.8123,10.7587,10.7021,10.7498,10.7205,10.7021,10.7498,10.6596,10.5495,10.5201,10.5018,10.4687,10.399,10.421,10.41,10.3293,10.2779,10.2101,10.1,9.9548,9.8557,9.8411,9.7273,9.6649,9.7126,9.6906,9.6685,9.6685,9.6685,9.6685,9.6685,9.5951,9.5936,9.6952,9.629,9.6454,9.7536,9.718,9.723,9.7892,9.7892,9.7632,9.7112,9.7632,9.7632,9.7112,9.7297,9.7557,9.7892,9.7557,9.7595,9.7892,9.7892,9.7892,9.7892,9.7892,9.7892,9.7892,9.7892,9.8044,9.8271,10.6376,10.6507,10.6486,10.6486,10.7807,10.8578,10.7792,10.9606,11.0817,11.0083,11.0707,11.1221,11.1221,11.0487,10.9973,11.0083,10.871,10.8123,10.8799,10.7404,10.6801,10.7498,10.6801,10.6376,10.6376,10.6376,10.6376,10.6376,10.6376,10.6376,10.6376,10.6376,10.6376,10.6376,10.6376,10.6376,10.6376,10.6376,10.6376,10.6376,10.6376,10.6413,10.6486,10.6413,10.6009,10.529,10.5401,10.5401,10.529,10.5401,10.6009,10.6706,10.7498,10.7205,10.6691,10.7388,10.7498,10.7498,10.7498,10.7498,10.7498,10.7498,10.689,10.6192,10.5422,10.5789,10.5993,10.4394,10.4687,10.5018,10.421,10.3917,10.3403,10.1918,10.1514,10.0927,9.9402,9.8447,9.7916,9.7916,9.7199,9.6685,9.6685,9.6685,9.6685,9.6685,9.6044,9.6028,9.6989,9.651,9.6672,9.7609,9.7805,9.7892,9.7892,9.7892,9.7892,9.7892,9.7892,9.7892,9.7855,9.7074,9.7149,9.7855,9.7074,9.7186,9.7892,9.7892,9.7892,9.7892,9.7892,9.7892,9.7909,9.7941,9.8303,9.8732,10.6376,10.6911,10.7315,10.7315,10.8101,10.8688,10.8578,10.9496,11.0193,10.9973,11.0707,11.1221,11.1221,11.0487,11.0325,11.0891,11.001,10.9276,10.8799,10.7902,10.7073,10.6691,10.6486,10.6376,10.6376,10.6376,10.6376,10.6376,10.6376,10.6376,10.6376,10.6376,10.6376,10.6376,10.6376,10.6376,10.6376,10.6376,10.6376,10.6376,10.6376,10.6801,10.7315,10.6596,10.6691,10.711,10.7807,10.7587,10.7205,10.7807,10.8101,10.8285,10.8505,10.8012,10.7388,10.7498,10.7205,10.6691,10.6691,10.6691,10.6691,10.6691,10.6486,10.6397,10.6192,10.6302,10.6302,10.5899,10.6009,10.5899,10.5018,10.432,10.3586,10.2595,10.1384,10.0393,10.0099,9.8778,9.7916,9.7916,9.7199,9.6685,9.6685,9.6685,9.6685,9.6685,9.6691,9.6842,9.7211,9.7264,9.7461,9.784,9.7874,9.7892,9.7892,9.7892,9.7892,9.7892,9.7892,9.7892,9.7892,9.7706,9.7706,9.7892,9.7706,9.7743,9.7892,9.7892,9.7892,9.7892,9.7892,9.7892,9.7961,9.838,9.8592,9.8945,10.6376,10.6706,10.7073,10.7498,10.8306,10.8799,10.8799,10.979,11.0414,11.0105,11.0707,11.1221,11.1221,11.0817,11.0707,11.1184,11.012,10.9386,10.9386,10.7881,10.7021,10.7021,10.6596,10.6376,10.6376,10.6376,10.6376,10.6376,10.6376,10.6376,10.6376,10.6376,10.6376,10.6376,10.6376,10.6376,10.6376,10.6376,10.6376,10.6376,10.6376,10.6691,10.7021,10.7021,10.7205,10.7682,10.8123,10.7697,10.7205,10.8012,10.7991,10.7697,10.7697,10.7425,10.7021,10.7021,10.6706,10.6376,10.6376,10.6376,10.6376,10.6376,10.6727,10.6911,10.6486,10.6376,10.6376,10.6376,10.6376,10.6302,10.5789,10.5385,10.4687,10.3513,10.2595,10.1714,10.098,9.9475,9.8484,9.8484,9.7419,9.6685,9.6685,9.6685,9.6685,9.6685,9.6876,9.7082,9.7266,9.7484,9.768,9.7892,9.7892,9.7892,9.7892,9.7892,9.7892,9.7892,9.7892,9.7892,9.7892,9.7892,9.7892,9.7892,9.7892,9.7892,9.7892,9.7892,9.7892,9.7892,9.7892,9.8078,9.8299,9.8592,9.9071,9.9739,10.6376,10.6486,10.6911,10.7719,10.8526,10.8982,10.8982,11.012,11.0781,11.0083,11.0597,11.0979,11.1221,11.1221,11.1221,11.1221,10.99,10.9202,10.9811,10.7792,10.678,10.7388,10.6801,10.6376,10.6376,10.6376,10.6376,10.6376,10.6376,10.6376,10.6376,10.6376,10.6376,10.6376,10.6376,10.6376,10.6376,10.6376,10.6376,10.6376,10.6376,10.6486,10.6691,10.7205,10.7498,10.7609,10.7609,10.7205,10.6727,10.7205,10.6984,10.6376,10.6376,10.6376,10.6376,10.6376,10.6376,10.6376,10.6376,10.6376,10.6376,10.6376,10.6911,10.7205,10.6617,10.6486,10.6617,10.6413,10.6376,10.6397,10.6192,10.6103,10.5495,10.3917,10.3586,10.2999,10.1698,10.0099,9.9108,9.9108,9.7676,9.6685,9.6685,9.6685,9.6705,9.6743,9.6932,9.7138,9.7321,9.7538,9.7734,9.7892,9.7892,9.7892,9.7892,9.7892,9.7892,9.7892,9.7892,9.7892,9.7892,9.7892,9.7892,9.7892,9.7892,9.7892,9.7892,9.7892,9.7892,9.7909,9.7992,9.8299,9.871,9.8937,9.9714,10.0721,10.6376,10.7021,10.7719,10.8505,10.9276,10.979,10.979,11.001,11.0083,10.9973,11.0083,11.0414,11.1111,11.1221,11.1221,11.1221,11.0377,10.9606,10.8982,10.8012,10.7205,10.6617,10.6507,10.6376,10.6376,10.6376,10.6376,10.6376,10.6376,10.6376,10.6376,10.6376,10.6376,10.6376,10.6376,10.6376,10.6376,10.6376,10.6376,10.6376,10.6376,10.678,10.7388,10.6801,10.7021,10.7609,10.7609,10.7498,10.7315,10.6801,10.6486,10.6376,10.6376,10.6376,10.6376,10.6376,10.6376,10.6376,10.6376,10.6376,10.6376,10.6376,10.6486,10.6486,10.6413,10.689,10.7205,10.6486,10.6376,10.6192,10.5401,10.4687,10.3917,10.2999,10.2301,10.1677,10.1514,10.0099,9.9108,9.9108,9.7676,9.6685,9.6685,9.6685,9.6762,9.6951,9.7138,9.7339,9.7538,9.777,9.7874,9.7892,9.7892,9.7892,9.7892,9.7892,9.7892,9.7892,9.7892,9.7892,9.7892,9.7892,9.7892,9.7892,9.7892,9.7892,9.7892,9.7892,9.7892,9.7961,9.8429,9.8639,9.8817,9.9872,10.0688,10.121,10.6376,10.6727,10.7205,10.8012,10.8799,10.9496,10.99,11.0377,11.0707,11.0707,11.0707,11.0817,11.1184,11.1221,11.1001,11.0597,10.979,10.8982,10.8196,10.7388,10.6801,10.6413,10.6376,10.6376,10.6376,10.6376,10.6376,10.6376,10.6376,10.6376,10.6376,10.6376,10.6376,10.6376,10.6376,10.6376,10.6376,10.6376,10.6376,10.6376,10.6376,10.6911,10.7609,10.7205,10.7609,10.8306,10.8306,10.7719,10.689,10.7021,10.6801,10.6376,10.6376,10.6376,10.6376,10.6376,10.6376,10.6376,10.6376,10.6376,10.6376,10.6376,10.6706,10.6984,10.6486,10.7021,10.7388,10.6617,10.6376,10.6302,10.5899,10.5091,10.432,10.3513,10.2705,10.2008,10.1587,10.0503,9.9438,9.8521,9.7419,9.6685,9.6685,9.6685,9.6781,9.6989,9.7175,9.7376,9.7573,9.7805,9.7892,9.7892,9.7892,9.7892,9.7892,9.7892,9.7892,9.7892,9.7892,9.7892,9.7892,9.7892,9.7892,9.7892,9.7892,9.7892,9.7892,9.7892,9.8095,9.838,9.8608,9.9129,9.982,10.06,10.1091,10.1279]}]]